[[{"header":{"parameterUnit":"m.s-1","parameterCategory":1,"la1":31.0,"la2":29.5877,"lo1":-88.7671,"lo2":-86.6584,"dy":0.0162,"dx":0.0185,"nx":115,"ny":88,"refTime":"2025-11-05T12:00:00:Z","depth":0,"parameterNumber":2,"parameterNumberName":"U-component_of_WINDS"},"data":[0.0,0.0,0.0,0.0,0.0,0.0,0.0,0.0,0.0,0.0,0.0,0.0,0.0,0.0,0.0,0.0,0.0,0.0,0.0,0.0,0.0,0.0,0.0,0.0,0.0,0.0,0.0,0.0,0.0,0.0,0.0,0.0,0.0,0.0,0.0,0.0,0.0,0.0,0.0,0.0,0.0,0.0,0.0,0.0,0.0,0.0,0.0,0.0,0.0,0.0,0.0,0.0,0.0,0.0,0.0,0.0,0.0,0.0,0.0,0.0,0.0,0.0,0.0,0.0,0.0,0.0,0.0,0.0,0.0,0.0,0.0,0.0,0.0,0.0,0.0,0.0,0.0,0.0,0.0,0.0,0.0,0.0,0.0,0.0,0.0,0.0,0.0,0.0,0.0,0.0,0.0,0.0,0.0,0.0,0.0,0.0,0.0,0.0,0.0,0.0,0.0,0.0,0.0,0.0,0.0,0.0,0.0,0.0,0.0,0.0,0.0,0.0,0.0,0.0,0.0,0.0,0.0,0.0,0.0,0.0,0.0,0.0,0.0,0.0,0.0,0.0,0.0,0.0,0.0,0.0,0.0,0.0,0.0,0.0,0.0,0.0,0.0,0.0,0.0,0.0,0.0,0.0,0.0,0.0,0.0,0.0,0.0,0.0,0.0,0.0,0.0,0.0,0.0,0.0,0.0,0.0,0.0,0.0,0.0,0.0,0.0,0.0,0.0,0.0,0.0,0.0,0.0,0.0,0.0,0.0,0.0,0.0,0.0,0.0,0.0,0.0,0.0,0.0,0.0,0.0,0.0,0.0,0.0,0.0,0.0,0.0,0.0,0.0,0.0,0.0,0.0,0.0,0.0,0.0,0.0,0.0,0.0,0.0,0.0,0.0,0.0,0.0,0.0,0.0,0.0,0.0,0.0,0.0,0.0,0.0,0.0,0.0,0.0,0.0,0.0,0.0,0.0,0.0,0.0,0.0,0.0,0.0,0.0,0.0,0.0,0.0,0.0,0.0,0.0,0.0,0.0,0.0,0.0,0.0,0.0,0.0,0.0,0.0,0.0,0.0,0.0,0.0,0.0,0.0,0.0,0.0,0.0,0.0,0.0,0.0,0.0,0.0,0.0,0.0,0.0,0.0,0.0,0.0,0.0,0.0,0.0,0.0,0.0,0.0,0.0,0.0,0.0,0.0,0.0,0.0,0.0,0.0,0.0,0.0,0.0,0.0,0.0,0.0,0.0,0.0,0.0,0.0,0.0,0.0,0.0,0.0,0.0,0.0,0.0,0.0,0.0,0.0,0.0,0.0,0.0,0.0,0.0,0.0,0.0,0.0,0.0,0.0,0.0,0.0,0.0,0.0,0.0,0.0,0.0,0.0,0.0,0.0,0.0,0.0,0.0,0.0,0.0,0.0,0.0,0.0,0.0,0.0,0.0,0.0,0.0,0.0,0.0,0.0,0.0,0.0,0.0,0.0,0.0,0.0,0.0,0.0,0.0,0.0,0.0,0.0,0.0,0.0,0.0,0.0,0.0,0.0,0.0,0.0,0.0,0.0,0.0,0.0,0.0,0.0,0.0,0.0,0.0,0.0,0.0,0.0,0.0,0.0,0.0,0.0,0.0,0.0,0.0,0.0,0.0,0.0,0.0,0.0,0.0,0.0,0.0,0.0,0.0,0.0,0.0,0.0,0.0,0.0,0.0,0.0,0.0,0.0,0.0,0.0,0.0,0.0,0.0,0.0,0.0,0.0,0.0,0.0,0.0,0.0,0.0,0.0,0.0,0.0,0.0,0.0,0.0,0.0,0.0,0.0,0.0,0.0,0.0,0.0,0.0,0.0,0.0,0.0,0.0,0.0,0.0,0.0,0.0,0.0,0.0,0.0,0.0,0.0,0.0,0.0,0.0,0.0,0.0,0.0,0.0,0.0,0.0,0.0,0.0,0.0,0.0,0.0,0.0,0.0,0.0,0.0,0.0,0.0,0.0,0.0,0.0,0.0,0.0,0.0,0.0,0.0,0.0,0.0,0.0,0.0,0.0,0.0,0.0,0.0,0.0,0.0,0.0,0.0,0.0,0.0,0.0,0.0,0.0,0.0,0.0,0.0,0.0,0.0,0.0,0.0,0.0,0.0,0.0,0.0,0.0,0.0,0.0,0.0,0.0,0.0,0.0,0.0,0.0,0.0,0.0,0.0,0.0,0.0,0.0,0.0,0.0,0.0,0.0,0.0,0.0,0.0,0.0,0.0,0.0,0.0,0.0,0.0,0.0,0.0,0.0,0.0,0.0,0.0,0.0,0.0,0.0,0.0,0.0,0.0,0.0,0.0,0.0,0.0,0.0,0.0,0.0,0.0,0.0,0.0,0.0,0.0,0.0,0.0,0.0,0.0,0.0,0.0,0.0,0.0,0.0,0.0,0.0,0.0,0.0,0.0,0.0,0.0,0.0,0.0,0.0,0.0,0.0,0.0,0.0,0.0,0.0,0.0,0.0,0.0,0.0,0.0,0.0,0.0,0.0,0.0,0.0,0.0,0.0,0.0,0.0,0.0,0.0,0.0,0.0,0.0,0.0,0.0,0.0,0.0,0.0,0.0,0.0,0.0,0.0,0.0,0.0,0.0,0.0,0.0,0.0,0.0,0.0,0.0,0.0,0.0,0.0,0.0,0.0,0.0,0.0,0.0,0.0,0.0,0.0,0.0,0.0,0.0,0.0,0.0,0.0,0.0,0.0,0.0,0.0,0.0,0.0,0.0,0.0,0.0,0.0,0.0,0.0,0.0,0.0,0.0,0.0,0.0,0.0,0.0,0.0,0.0,0.0,0.0,0.0,0.0,0.0,0.0,0.0,0.0,0.0,0.0,0.0,0.0,0.0,0.0,0.0,0.0,0.0,0.0,0.0,0.0,0.0,0.0,0.0,0.0,0.0,0.0,0.0,0.0,0.0,0.0,0.0,0.0,0.0,0.0,0.0,0.0,0.0,0.0,0.0,0.0,0.0,0.0,0.0,0.0,0.0,0.0,0.0,0.0,0.0,0.0,0.0,0.0,0.0,0.0,0.0,0.0,0.0,0.0,0.0,0.0,0.0,0.0,0.0,0.0,0.0,0.0,0.0,0.0,0.0,0.0,0.0,0.0,0.0,0.0,0.0,0.0,0.0,0.0,0.0,0.0,0.0,0.0,0.0,0.0,0.0,0.0,0.0,0.0,0.0,0.0,0.0,0.0,0.0,0.0,0.0,0.0,0.0,0.0,0.0,0.0,0.0,0.0,0.0,0.0,0.0,0.0,0.0,0.0,0.0,0.0,0.0,0.0,0.0,0.0,0.0,0.0,0.0,0.0,0.0,0.0,0.0,0.0,0.0,0.0,0.0,0.0,0.0,0.0,0.0,0.0,0.0,0.0,0.0,0.0,0.0,0.0,0.0,0.0,0.0,0.0,0.0,0.0,0.0,0.0,0.0,0.0,0.0,0.0,0.0,0.0,0.0,0.0,0.0,0.0,0.0,0.0,0.0,0.0,0.0,0.0,0.0,0.0,0.0,0.0,0.0,0.0,0.0,0.0,0.0,0.0,0.0,0.0,0.0,0.0,0.0,0.0,0.0,0.0,0.0,0.0,0.0,0.0,0.0,0.0,0.0,0.0,0.0,0.0,0.0,0.0,0.0,0.0,0.0,0.0,0.0,0.0,0.0,0.0,0.0,0.0,0.0,0.0,0.0,0.0,0.0,0.0,0.0,0.0,0.0,0.0,0.0,0.0,0.0,0.0,0.0,0.0,0.0,0.0,0.0,0.0,0.0,0.0,0.0,0.0,0.0,0.0,0.0,0.0,0.0,0.0,0.0,0.0,0.0,0.0,0.0,0.0,0.0,0.0,0.0,0.0,0.0,0.0,0.0,0.0,0.0,0.0,0.0,0.0,0.0,0.0,0.0,0.0,0.0,0.0,0.0,0.0,0.0,0.0,0.0,0.0,0.0,0.0,0.0,0.0,0.0,0.0,0.0,0.0,0.0,0.0,0.0,0.0,0.0,0.0,0.0,0.0,0.0,0.0,0.0,0.0,0.0,0.0,0.0,0.0,0.0,0.0,0.0,0.0,0.0,0.0,0.0,0.0,0.0,0.0,0.0,0.0,0.0,0.0,0.0,0.0,0.0,0.0,0.0,0.0,0.0,0.0,0.0,0.0,0.0,0.0,0.0,0.0,0.0,0.0,0.0,0.0,0.0,0.0,0.0,0.0,0.0,0.0,0.0,0.0,0.0,0.0,0.0,0.0,0.0,0.0,0.0,0.0,-0.8201,0.0,0.0,0.0,0.0,0.0,0.0,0.0,0.0,0.0,0.0,0.0,0.0,0.0,0.0,0.0,0.0,0.0,0.0,0.0,0.0,0.0,0.0,0.0,0.0,0.0,0.0,0.0,0.0,0.0,0.0,0.0,0.0,0.0,0.0,0.0,0.0,0.0,0.0,0.0,0.0,0.0,0.0,0.0,0.0,0.0,0.0,0.0,0.0,0.0,0.0,0.0,0.0,0.0,0.0,0.0,0.0,0.0,0.0,0.0,0.0,0.0,0.0,0.0,0.0,0.0,0.0,0.0,0.0,0.0,0.0,0.0,0.0,0.0,0.0,0.0,0.0,0.0,0.0,0.0,0.0,0.0,0.0,0.0,0.0,0.0,0.0,0.0,0.0,0.0,0.0,0.0,0.0,0.0,0.0,0.0,0.0,0.0,0.0,0.0,0.0,0.0,0.0,0.0,0.0,0.0,0.0,0.0,0.0,0.0,0.0,-0.8523,-0.8512,-0.8315,-0.8201,-0.8211,0.0,0.0,0.0,0.0,0.0,0.0,0.0,0.0,0.0,0.0,0.0,0.0,0.0,0.0,0.0,0.0,0.0,0.0,0.0,0.0,0.0,0.0,0.0,0.0,0.0,0.0,0.0,0.0,0.0,0.0,0.0,0.0,0.0,0.0,0.0,0.0,0.0,0.0,0.0,0.0,0.0,0.0,0.0,0.0,0.0,0.0,0.0,0.0,0.0,0.0,0.0,0.0,0.0,0.0,0.0,0.0,0.0,0.0,0.0,0.0,0.0,0.0,0.0,0.0,0.0,0.0,0.0,0.0,0.0,0.0,0.0,0.0,0.0,0.0,0.0,0.0,0.0,0.0,0.0,0.0,0.0,0.0,0.0,0.0,0.0,0.0,0.0,0.0,0.0,0.0,0.0,0.0,0.0,0.0,0.0,0.0,0.0,0.0,0.0,0.0,0.0,0.0,0.0,0.0,0.0,0.0,0.0,0.0,0.0,0.0,0.0,0.0,-0.8497,-0.8497,-0.8508,0.0,0.0,0.0,0.0,0.0,0.0,0.0,0.0,0.0,0.0,0.0,0.0,0.0,0.0,0.0,0.0,0.0,0.0,0.0,0.0,0.0,0.0,0.0,0.0,0.0,0.0,0.0,0.0,0.0,0.0,0.0,0.0,0.0,0.0,0.0,0.0,0.0,0.0,0.0,0.0,0.0,0.0,0.0,0.0,0.0,0.0,0.0,0.0,0.0,0.0,0.0,0.0,0.0,0.0,0.0,0.0,0.0,0.0,0.0,0.0,0.0,0.0,0.0,0.0,0.0,0.0,0.0,0.0,0.0,0.0,0.0,0.0,0.0,0.0,0.0,0.0,0.0,0.0,0.0,0.0,0.0,0.0,0.0,0.0,0.0,0.0,0.0,0.0,0.0,0.0,0.0,0.0,0.0,0.0,0.0,0.0,0.0,0.0,0.0,0.0,0.0,0.0,0.0,0.0,0.0,0.0,0.0,0.0,0.0,0.0,-0.858,-0.9355,-0.9386,0.0,-0.9406,0.0,0.0,0.0,0.0,0.0,0.0,0.0,0.0,0.0,0.0,0.0,0.0,0.0,0.0,0.0,0.0,0.0,0.0,0.0,0.0,0.0,0.0,0.0,0.0,0.0,0.0,0.0,0.0,0.0,0.0,0.0,0.0,0.0,0.0,0.0,0.0,0.0,0.0,0.0,0.0,0.0,0.0,0.0,0.0,0.0,0.0,0.0,0.0,0.0,0.0,0.0,0.0,0.0,0.0,0.0,0.0,0.0,0.0,0.0,0.0,0.0,0.0,0.0,0.0,0.0,0.0,0.0,0.0,0.0,0.0,0.0,0.0,0.0,0.0,0.0,0.0,0.0,0.0,0.0,0.0,0.0,0.0,0.0,0.0,0.0,0.0,0.0,0.0,0.0,0.0,0.0,0.0,0.0,0.0,0.0,0.0,0.0,0.0,0.0,0.0,0.0,0.0,0.0,0.0,0.0,0.0,0.0,0.0,0.0,0.0,-0.9138,-0.9482,-0.9482,-0.9482,0.0,0.0,0.0,0.0,0.0,0.0,0.0,0.0,0.0,0.0,0.0,0.0,0.0,0.0,0.0,0.0,0.0,0.0,0.0,0.0,0.0,0.0,0.0,0.0,0.0,0.0,0.0,0.0,0.0,0.0,0.0,0.0,0.0,0.0,0.0,0.0,0.0,0.0,0.0,0.0,0.0,0.0,0.0,0.0,0.0,0.0,0.0,0.0,0.0,0.0,0.0,0.0,0.0,0.0,0.0,0.0,0.0,0.0,0.0,0.0,0.0,0.0,0.0,0.0,0.0,0.0,0.0,0.0,0.0,0.0,0.0,0.0,0.0,0.0,0.0,0.0,0.0,0.0,0.0,0.0,0.0,0.0,0.0,0.0,0.0,0.0,0.0,0.0,0.0,0.0,0.0,0.0,0.0,0.0,0.0,0.0,0.0,0.0,0.0,0.0,0.0,0.0,0.0,0.0,0.0,0.0,0.0,0.0,0.0,0.0,-0.9313,-0.9616,-0.987,-0.9891,-0.9716,-0.9344,0.0,0.0,0.0,0.0,0.0,0.0,0.0,0.0,0.0,0.0,0.0,0.0,0.0,0.0,0.0,0.0,0.0,0.0,0.0,0.0,0.0,0.0,0.0,0.0,0.0,0.0,0.0,0.0,0.0,0.0,0.0,0.0,0.0,0.0,0.0,0.0,0.0,0.0,0.0,0.0,0.0,0.0,0.0,0.0,0.0,0.0,0.0,0.0,0.0,0.0,0.0,0.0,0.0,0.0,0.0,0.0,0.0,0.0,0.0,0.0,0.0,0.0,0.0,0.0,0.0,0.0,0.0,0.0,0.0,0.0,0.0,0.0,0.0,0.0,0.0,0.0,0.0,0.0,0.0,0.0,0.0,0.0,0.0,0.0,0.0,0.0,0.0,0.0,0.0,0.0,0.0,0.0,0.0,0.0,0.0,0.0,0.0,0.0,0.0,0.0,0.0,0.0,0.0,0.0,0.0,0.0,0.0,0.0,-1.0632,-0.9922,-0.9943,-1.0817,-1.0848,-1.0246,0.0,0.0,0.0,0.0,0.0,0.0,0.0,0.0,0.0,0.0,0.0,0.0,0.0,0.0,0.0,0.0,0.0,0.0,0.0,0.0,0.0,0.0,0.0,0.0,0.0,0.0,0.0,0.0,0.0,0.0,0.0,0.0,0.0,0.0,0.0,0.0,0.0,0.0,0.0,0.0,0.0,0.0,0.0,0.0,0.0,0.0,0.0,0.0,0.0,0.0,0.0,0.0,0.0,0.0,0.0,0.0,0.0,0.0,0.0,0.0,0.0,0.0,0.0,0.0,0.0,0.0,0.0,0.0,0.0,0.0,0.0,0.0,0.0,0.0,0.0,0.0,0.0,0.0,0.0,0.0,0.0,0.0,0.0,0.0,0.0,0.0,0.0,0.0,0.0,0.0,0.0,0.0,0.0,0.0,0.0,0.0,0.0,0.0,0.0,0.0,0.0,0.0,0.0,0.0,0.0,0.0,0.0,0.0,0.0,-0.9149,-0.9386,-1.0249,-1.1674,-1.0381,-0.9646,0.0,0.0,0.0,0.0,0.0,0.0,0.0,0.0,0.0,0.0,0.0,0.0,0.0,0.0,0.0,0.0,0.0,0.0,0.0,0.0,0.0,0.0,0.0,0.0,0.0,0.0,0.0,0.0,0.0,0.0,0.0,0.0,0.0,0.0,0.0,0.0,0.0,0.0,0.0,0.0,0.0,0.0,0.0,0.0,0.0,0.0,0.0,0.0,0.0,0.0,0.0,0.0,0.0,0.0,0.0,0.0,0.0,0.0,0.0,0.0,0.0,0.0,0.0,0.0,0.0,0.0,0.0,0.0,0.0,0.0,0.0,0.0,0.0,0.0,0.0,0.0,0.0,0.0,0.0,0.0,0.0,0.0,0.0,0.0,0.0,0.0,0.0,0.0,0.0,0.0,0.0,0.0,0.0,0.0,0.0,0.0,0.0,0.0,0.0,0.0,0.0,0.0,0.0,0.0,0.0,0.0,0.0,0.0,0.0,-0.9067,0.0,-1.0878,-1.1706,-1.0233,-0.9247,0.0,0.0,0.0,0.0,0.0,0.0,0.0,0.0,0.0,0.0,0.0,0.0,0.0,0.0,0.0,0.0,0.0,0.0,0.0,0.0,0.0,0.0,0.0,0.0,0.0,0.0,0.0,0.0,0.0,0.0,0.0,0.0,0.0,0.0,0.0,0.0,0.0,0.0,0.0,0.0,0.0,0.0,0.0,0.0,0.0,0.0,0.0,0.0,0.0,0.0,0.0,0.0,0.0,0.0,0.0,0.0,0.0,0.0,0.0,0.0,0.0,0.0,0.0,0.0,0.0,0.0,0.0,0.0,0.0,0.0,0.0,0.0,0.0,0.0,0.0,0.0,0.0,0.0,0.0,0.0,0.0,0.0,0.0,0.0,0.0,0.0,0.0,0.0,0.0,0.0,0.0,0.0,0.0,0.0,0.0,0.0,0.0,0.0,0.0,0.0,0.0,0.0,0.0,0.0,0.0,0.0,0.0,0.0,-0.9103,-1.0797,-1.1695,-1.1768,-1.0962,-1.0417,-0.9128,0.0,0.0,0.0,0.0,0.0,0.0,0.0,0.0,0.0,0.0,0.0,0.0,0.0,0.0,0.0,0.0,0.0,0.0,0.0,0.0,0.0,0.0,0.0,0.0,0.0,0.0,0.0,0.0,0.0,0.0,0.0,0.0,0.0,0.0,0.0,0.0,0.0,0.0,0.0,0.0,0.0,0.0,0.0,0.0,0.0,0.0,0.0,0.0,0.0,0.0,0.0,0.0,0.0,0.0,0.0,0.0,0.0,0.0,0.0,0.0,0.0,0.0,0.0,0.0,0.0,0.0,0.0,0.0,0.0,0.0,0.0,0.0,0.0,0.0,0.0,0.0,0.0,0.0,0.0,0.0,0.0,0.0,0.0,0.0,0.0,0.0,0.0,0.0,0.0,0.0,0.0,0.0,0.0,0.0,0.0,0.0,0.0,0.0,0.0,0.0,0.0,0.0,0.0,0.0,0.0,0.0,0.0,0.0,0.0,-0.9953,-1.0848,-1.1654,-1.2181,-1.035,-0.9408,0.0,0.0,0.0,0.0,0.0,0.0,0.0,0.0,0.0,0.0,0.0,0.0,0.0,0.0,0.0,0.0,0.0,0.0,0.0,0.0,0.0,0.0,0.0,0.0,0.0,0.0,0.0,0.0,0.0,0.0,0.0,0.0,0.0,0.0,0.0,0.0,0.0,0.0,0.0,0.0,0.0,0.0,0.0,0.0,0.0,0.0,0.0,0.0,0.0,0.0,0.0,0.0,0.0,0.0,0.0,0.0,0.0,0.0,0.0,0.0,0.0,0.0,0.0,0.0,0.0,0.0,0.0,0.0,0.0,0.0,0.0,0.0,0.0,0.0,0.0,0.0,0.0,0.0,0.0,0.0,0.0,0.0,0.0,0.0,0.0,0.0,0.0,0.0,0.0,0.0,0.0,0.0,0.0,0.0,0.0,0.0,0.0,0.0,0.0,0.0,0.0,0.0,0.0,0.0,0.0,0.0,0.0,0.0,0.0,-1.1056,-1.1778,-1.2398,-1.2894,-1.095,-0.9957,-1.0084,0.0,0.0,0.0,0.0,0.0,0.0,0.0,0.0,0.0,0.0,0.0,0.0,0.0,0.0,0.0,0.0,0.0,0.0,0.0,0.0,0.0,0.0,0.0,0.0,0.0,0.0,0.0,0.0,0.0,0.0,0.0,0.0,0.0,0.0,0.0,0.0,0.0,0.0,0.0,0.0,0.0,0.0,0.0,0.0,0.0,0.0,0.0,0.0,0.0,0.0,0.0,0.0,0.0,0.0,0.0,0.0,0.0,0.0,0.0,0.0,0.0,0.0,0.0,0.0,0.0,0.0,0.0,0.0,0.0,0.0,0.0,0.0,0.0,0.0,0.0,0.0,0.0,0.0,0.0,0.0,0.0,0.0,0.0,0.0,0.0,0.0,0.0,0.0,0.0,0.0,0.0,0.0,0.0,0.0,0.0,0.0,0.0,0.0,0.0,0.0,0.0,0.0,0.0,0.0,0.0,0.0,0.0,0.0,-1.369,-1.42,-1.401,-1.3152,-1.2203,-1.0895,0.0,0.0,0.0,0.0,0.0,0.0,0.0,0.0,0.0,0.0,0.0,0.0,0.0,0.0,0.0,0.0,0.0,0.0,0.0,0.0,0.0,0.0,0.0,0.0,0.0,0.0,0.0,0.0,0.0,0.0,0.0,0.0,0.0,0.0,0.0,0.0,0.0,0.0,0.0,0.0,0.0,0.0,0.0,0.0,0.0,0.0,0.0,0.0,0.0,0.0,0.0,0.0,0.0,0.0,0.0,0.0,0.0,0.0,0.0,0.0,0.0,0.0,0.0,0.0,0.0,0.0,0.0,0.0,0.0,0.0,0.0,0.0,0.0,0.0,0.0,0.0,0.0,0.0,0.0,0.0,0.0,0.0,0.0,0.0,0.0,0.0,0.0,0.0,0.0,0.0,0.0,0.0,0.0,0.0,0.0,0.0,0.0,0.0,0.0,0.0,0.0,0.0,0.0,0.0,0.0,0.0,0.0,0.0,0.0,-1.509,-1.589,-1.6025,-1.5473,-1.3921,-1.2566,0.0,0.0,0.0,0.0,0.0,0.0,0.0,0.0,0.0,0.0,0.0,0.0,0.0,0.0,0.0,0.0,0.0,0.0,0.0,0.0,0.0,0.0,0.0,0.0,0.0,0.0,0.0,0.0,0.0,0.0,0.0,0.0,0.0,0.0,0.0,0.0,0.0,0.0,0.0,0.0,0.0,0.0,0.0,0.0,0.0,0.0,0.0,0.0,0.0,0.0,0.0,0.0,0.0,0.0,0.0,0.0,0.0,0.0,0.0,0.0,0.0,0.0,0.0,0.0,0.0,0.0,0.0,0.0,0.0,0.0,0.0,0.0,0.0,0.0,0.0,0.0,0.0,0.0,0.0,0.0,0.0,0.0,0.0,0.0,0.0,0.0,0.0,0.0,0.0,0.0,0.0,0.0,0.0,0.0,0.0,0.0,0.0,0.0,0.0,0.0,0.0,0.0,0.0,0.0,0.0,0.0,0.0,0.0,-1.4251,-1.62,-1.6829,-1.7175,-1.7233,-1.5639,-1.4007,0.0,0.0,0.0,0.0,0.0,0.0,0.0,0.0,0.0,0.0,0.0,0.0,0.0,0.0,0.0,0.0,0.0,0.0,0.0,0.0,0.0,0.0,0.0,0.0,0.0,0.0,0.0,0.0,0.0,0.0,0.0,0.0,0.0,0.0,0.0,0.0,0.0,0.0,0.0,0.0,0.0,0.0,0.0,0.0,0.0,0.0,0.0,0.0,0.0,0.0,0.0,0.0,0.0,0.0,0.0,0.0,0.0,0.0,0.0,0.0,0.0,0.0,0.0,0.0,0.0,0.0,0.0,0.0,0.0,0.0,0.0,0.0,0.0,0.0,0.0,0.0,0.0,0.0,0.0,0.0,0.0,0.0,0.0,0.0,0.0,0.0,0.0,0.0,0.0,0.0,0.0,0.0,0.0,0.0,0.0,0.0,0.0,0.0,0.0,0.0,0.0,0.0,0.0,0.0,0.0,0.0,0.0,0.0,-1.5048,-1.7028,-1.7336,-1.7798,-1.834,-1.7149,-1.522,0.0,0.0,0.0,0.0,0.0,0.0,0.0,0.0,0.0,0.0,0.0,0.0,0.0,0.0,0.0,0.0,0.0,0.0,0.0,0.0,0.0,0.0,0.0,0.0,0.0,0.0,0.0,0.0,0.0,0.0,0.0,0.0,0.0,0.0,0.0,0.0,0.0,0.0,0.0,0.0,0.0,0.0,0.0,0.0,0.0,0.0,0.0,0.0,0.0,0.0,0.0,0.0,0.0,0.0,0.0,0.0,0.0,0.0,0.0,0.0,0.0,0.0,0.0,0.0,0.0,0.0,0.0,0.0,0.0,0.0,0.0,0.0,0.0,0.0,0.0,0.0,0.0,0.0,0.0,0.0,0.0,0.0,0.0,0.0,0.0,0.0,0.0,0.0,0.0,0.0,0.0,0.0,0.0,0.0,0.0,0.0,0.0,0.0,0.0,0.0,0.0,0.0,0.0,0.0,0.0,0.0,0.0,0.0,-1.6056,-1.7523,-1.8325,-1.8613,-1.8414,-1.7419,-1.5949,0.0,0.0,0.0,0.0,0.0,0.0,0.0,0.0,0.0,0.0,0.0,0.0,0.0,0.0,0.0,0.0,0.0,0.0,0.0,0.0,0.0,0.0,0.0,0.0,0.0,0.0,0.0,0.0,0.0,0.0,0.0,0.0,0.0,0.0,0.0,0.0,0.0,0.0,0.0,0.0,0.0,0.0,0.0,0.0,0.0,0.0,0.0,0.0,-0.6164,0.0,0.0,0.0,0.0,0.0,0.0,0.0,0.0,0.0,0.0,0.0,0.0,0.0,0.0,0.0,0.0,0.0,0.0,0.0,0.0,0.0,0.0,0.0,0.0,0.0,0.0,0.0,0.0,0.0,0.0,0.0,0.0,0.0,0.0,0.0,0.0,0.0,0.0,0.0,0.0,0.0,0.0,0.0,0.0,0.0,0.0,0.0,0.0,0.0,0.0,0.0,0.0,0.0,0.0,0.0,0.0,0.0,0.0,0.0,-1.5697,-1.7451,-1.7527,-1.775,-1.8147,-1.7302,-1.6029,0.0,0.0,0.0,0.0,0.0,0.0,0.0,0.0,0.0,0.0,0.0,0.0,0.0,0.0,0.0,0.0,0.0,0.0,0.0,0.0,0.0,0.0,0.0,0.0,0.0,0.0,0.0,0.0,0.0,0.0,0.0,0.0,0.0,0.0,0.0,0.0,0.0,0.0,0.0,0.0,0.0,0.0,0.0,0.0,0.0,0.0,0.0,0.0,0.0,0.0,0.0,0.0,0.0,0.0,0.0,0.0,0.0,0.0,0.0,0.0,0.0,0.0,0.0,0.0,0.0,0.0,0.0,0.0,0.0,0.0,0.0,0.0,0.0,0.0,0.0,0.0,0.0,0.0,0.0,0.0,0.0,0.0,0.0,0.0,0.0,0.0,0.0,0.0,0.0,0.0,0.0,0.0,0.0,0.0,0.0,0.0,0.0,0.0,0.0,0.0,0.0,0.0,0.0,0.0,0.0,0.0,0.0,-1.3301,-1.4965,-1.7077,-1.6414,-1.6559,-1.7779,-1.7054,-1.5822,-1.4211,0.0,0.0,0.0,0.0,0.0,0.0,0.0,0.0,0.0,0.0,0.0,0.0,0.0,0.0,0.0,0.0,0.0,0.0,0.0,0.0,0.0,0.0,0.0,0.0,0.0,0.0,0.0,0.0,0.0,0.0,0.0,0.0,0.0,0.0,0.0,0.0,0.0,0.0,-0.5632,-0.676,0.0,0.0,0.0,0.0,0.0,0.0,0.0,0.0,-0.7166,0.0,0.0,0.0,0.0,0.0,0.0,0.0,0.0,0.0,0.0,0.0,0.0,0.0,0.0,0.0,0.0,0.0,0.0,0.0,0.0,0.0,0.0,0.0,0.0,0.0,0.0,0.0,0.0,0.0,0.0,0.0,0.0,0.0,0.0,0.0,0.0,0.0,0.0,0.0,0.0,0.0,0.0,0.0,0.0,0.0,0.0,0.0,0.0,0.0,0.0,0.0,0.0,0.0,0.0,0.0,0.0,-1.3337,-1.366,-1.4845,-1.6878,-1.68,-1.6828,-1.7051,-1.6762,-1.562,-1.3564,0.0,0.0,0.0,0.0,0.0,0.0,0.0,0.0,0.0,0.0,0.0,0.0,0.0,0.0,0.0,0.0,0.0,0.0,0.0,0.0,0.0,0.0,0.0,0.0,0.0,0.0,0.0,0.0,0.0,0.0,0.0,0.0,0.0,0.0,0.0,0.0,0.0,0.0,0.0,-0.8309,-0.8786,0.0,0.0,0.0,0.0,0.0,0.0,0.0,0.0,-0.6689,0.0,0.0,0.0,0.0,0.0,0.0,0.0,0.0,0.0,0.0,0.0,0.0,0.0,0.0,0.0,0.0,0.0,0.0,0.0,0.0,0.0,0.0,0.0,0.0,0.0,0.0,0.0,0.0,0.0,0.0,0.0,0.0,0.0,0.0,0.0,0.0,0.0,0.0,0.0,0.0,0.0,0.0,0.0,0.0,0.0,0.0,0.0,0.0,0.0,0.0,0.0,0.0,0.0,0.0,0.0,-1.234,-1.3268,-1.4541,-1.6262,-1.593,-1.5895,-1.6298,-1.5477,-1.438,0.0,0.0,0.0,0.0,0.0,0.0,0.0,0.0,0.0,0.0,0.0,0.0,0.0,0.0,0.0,0.0,0.0,0.0,0.0,0.0,0.0,0.0,0.0,0.0,0.0,0.0,0.0,0.0,0.0,0.0,0.0,0.0,0.0,0.0,0.0,0.0,0.0,0.0,0.0,0.0,-0.8804,-0.9279,-0.9597,0.0,0.0,0.0,0.0,0.0,0.0,-0.7948,-0.7374,0.0,0.0,0.0,0.0,0.0,0.0,0.0,0.0,0.0,0.0,0.0,0.0,0.0,0.0,0.0,0.0,0.0,0.0,0.0,0.0,0.0,0.0,0.0,0.0,0.0,0.0,0.0,0.0,0.0,0.0,0.0,0.0,0.0,0.0,0.0,0.0,0.0,0.0,0.0,0.0,0.0,0.0,0.0,0.0,0.0,0.0,0.0,0.0,0.0,0.0,0.0,0.0,0.0,0.0,0.0,-1.1274,-1.2641,-1.4019,-1.5429,-1.4955,-1.4887,-1.5415,-1.4245,-1.3232,0.0,0.0,0.0,0.0,0.0,0.0,0.0,0.0,0.0,0.0,0.0,0.0,0.0,0.0,0.0,0.0,0.0,0.0,0.0,0.0,0.0,0.0,0.0,0.0,0.0,0.0,0.0,0.0,0.0,0.0,0.0,0.0,0.0,0.0,0.0,0.0,0.0,0.0,0.0,0.0,0.0,-0.9795,-0.9977,-0.9731,0.0,0.0,0.0,0.0,-0.9263,-0.911,0.0,0.0,0.0,0.0,0.0,0.0,0.0,0.0,0.0,0.0,0.0,0.0,0.0,0.0,0.0,0.0,0.0,0.0,0.0,0.0,0.0,0.0,0.0,0.0,0.0,0.0,0.0,0.0,0.0,0.0,0.0,0.0,0.0,0.0,0.0,0.0,0.0,0.0,0.0,0.0,0.0,0.0,0.0,0.0,0.0,0.0,0.0,0.0,0.0,0.0,0.0,0.0,0.0,0.0,0.0,0.0,-1.1235,-1.1942,-1.3053,-1.4633,-1.4641,-1.4525,-1.4311,-1.4063,-1.3079,0.0,0.0,0.0,0.0,0.0,0.0,0.0,0.0,0.0,0.0,0.0,0.0,0.0,0.0,0.0,0.0,0.0,0.0,0.0,0.0,0.0,0.0,0.0,0.0,0.0,0.0,0.0,0.0,0.0,0.0,0.0,0.0,0.0,0.0,0.0,0.0,0.0,0.0,0.0,0.0,0.0,-1.0709,-1.0472,-1.0097,-1.0048,0.0,0.0,-0.9978,-1.0653,-1.0717,0.0,0.0,0.0,0.0,0.0,0.0,0.0,0.0,0.0,0.0,0.0,0.0,0.0,0.0,0.0,0.0,0.0,0.0,0.0,0.0,0.0,0.0,0.0,0.0,0.0,0.0,0.0,0.0,0.0,0.0,0.0,0.0,0.0,0.0,0.0,0.0,0.0,0.0,0.0,0.0,0.0,0.0,0.0,0.0,0.0,0.0,0.0,0.0,0.0,0.0,0.0,0.0,0.0,0.0,0.0,-0.9449,-1.1218,-1.2359,-1.3457,-1.4557,-1.4605,-1.4439,-1.4109,-1.3299,-1.2286,0.0,0.0,0.0,0.0,0.0,0.0,0.0,0.0,0.0,0.0,0.0,0.0,0.0,0.0,0.0,0.0,0.0,0.0,0.0,0.0,0.0,0.0,0.0,0.0,0.0,0.0,0.0,0.0,0.0,0.0,0.0,0.0,0.0,0.0,0.0,0.0,0.0,0.0,0.0,0.0,0.0,0.0,-1.1042,-1.1082,0.0,0.0,0.0,-1.1289,-1.1834,0.0,0.0,0.0,0.0,0.0,0.0,0.0,0.0,0.0,0.0,0.0,0.0,0.0,0.0,0.0,0.0,0.0,0.0,0.0,0.0,0.0,0.0,0.0,0.0,0.0,0.0,0.0,0.0,0.0,0.0,0.0,0.0,0.0,0.0,0.0,0.0,0.0,0.0,0.0,0.0,0.0,0.0,0.0,0.0,0.0,0.0,0.0,0.0,0.0,0.0,0.0,0.0,0.0,0.0,0.0,0.0,0.0,-1.1192,-1.2767,-1.3892,-1.4573,-1.4605,-1.4391,-1.3974,-1.2798,0.0,0.0,0.0,0.0,0.0,0.0,0.0,0.0,0.0,0.0,0.0,0.0,0.0,0.0,0.0,0.0,0.0,0.0,0.0,0.0,0.0,0.0,0.0,0.0,0.0,0.0,0.0,-0.4444,0.0,0.0,0.0,0.0,0.0,0.0,0.0,0.0,0.0,0.0,0.0,0.0,0.0,0.0,-1.1336,-1.159,-1.2003,-1.2315,0.0,0.0,-1.2536,-1.2933,-1.2575,-1.1805,0.0,0.0,0.0,0.0,0.0,0.0,0.0,0.0,0.0,0.0,0.0,0.0,0.0,0.0,0.0,0.0,0.0,0.0,0.0,0.0,0.0,0.0,0.0,0.0,0.0,0.0,0.0,0.0,0.0,0.0,0.0,0.0,0.0,0.0,0.0,0.0,0.0,0.0,0.0,0.0,0.0,0.0,0.0,0.0,0.0,0.0,0.0,0.0,0.0,0.0,0.0,0.0,0.0,0.0,-0.969,-1.12,-1.2648,-1.3813,-1.4573,-1.4605,-1.428,-1.3665,-1.2941,-1.1905,0.0,0.0,0.0,0.0,0.0,0.0,0.0,0.0,0.0,0.0,0.0,0.0,0.0,0.0,0.0,0.0,0.0,0.0,0.0,0.0,0.0,0.0,0.0,0.0,0.0,0.0,0.0,0.0,0.0,0.0,0.0,0.0,0.0,0.0,0.0,0.0,0.0,0.0,0.0,0.0,0.0,-1.1956,-1.195,-1.2575,-1.3251,0.0,-1.3688,-1.36,-1.395,-1.4193,-1.3607,-1.1304,0.0,0.0,0.0,0.0,0.0,0.0,0.0,0.0,0.0,0.0,0.0,0.0,0.0,0.0,0.0,0.0,0.0,0.0,0.0,0.0,0.0,0.0,0.0,0.0,0.0,0.0,0.0,0.0,0.0,0.0,0.0,0.0,0.0,0.0,0.0,0.0,0.0,0.0,0.0,0.0,0.0,0.0,0.0,0.0,0.0,0.0,0.0,0.0,0.0,0.0,0.0,0.0,0.0,-0.988,-1.1509,-1.2837,-1.3866,-1.4565,-1.4605,-1.4367,-1.391,-1.3243,-1.2264,0.0,0.0,0.0,0.0,0.0,0.0,0.0,0.0,0.0,0.0,0.0,0.0,0.0,0.0,0.0,0.0,0.0,0.0,0.0,0.0,0.0,0.0,0.0,0.0,0.0,0.0,0.0,0.0,-0.6284,-0.6474,-0.6427,0.0,0.0,0.0,0.0,0.0,0.0,0.0,0.0,0.0,0.0,-1.283,-1.3243,-1.3926,0.0,0.0,-1.4506,-1.4538,-1.4415,-1.4013,-1.3187,-1.1845,-1.0796,0.0,0.0,0.0,0.0,0.0,0.0,0.0,0.0,0.0,0.0,0.0,0.0,0.0,0.0,0.0,0.0,0.0,0.0,0.0,0.0,0.0,0.0,0.0,0.0,0.0,0.0,0.0,0.0,0.0,0.0,0.0,0.0,0.0,0.0,0.0,0.0,0.0,0.0,0.0,0.0,0.0,0.0,0.0,0.0,0.0,0.0,0.0,0.0,0.0,0.0,0.0,0.0,-1.0118,-1.1673,-1.3059,-1.4003,-1.4589,-1.4605,-1.4439,-1.4109,-1.3449,-1.2511,0.0,0.0,0.0,0.0,0.0,0.0,0.0,0.0,0.0,0.0,0.0,0.0,0.0,0.0,0.0,0.0,0.0,0.0,0.0,0.0,0.0,0.0,0.0,0.0,0.0,0.0,0.0,0.0,-0.7015,-0.6966,-0.6554,0.0,0.0,0.0,0.0,0.0,0.0,0.0,0.0,0.0,0.0,-1.3727,-1.4169,-1.4792,-1.5131,-1.4803,-1.4832,-1.4816,-1.4629,-1.4029,-1.3203,-1.2186,0.0,0.0,0.0,0.0,0.0,0.0,0.0,0.0,0.0,0.0,0.0,0.0,0.0,0.0,0.0,0.0,0.0,0.0,0.0,0.0,0.0,0.0,0.0,0.0,0.0,0.0,0.0,-0.6289,0.0,0.0,-0.5826,0.0,0.0,0.0,0.0,0.0,0.0,0.0,0.0,0.0,0.0,0.0,0.0,0.0,0.0,0.0,0.0,0.0,0.0,0.0,0.0,0.0,0.0,-1.0368,-1.168,-1.3262,-1.4233,-1.4589,-1.4605,-1.4439,-1.4117,-1.3449,-1.2591,-1.1523,0.0,0.0,0.0,0.0,0.0,0.0,0.0,0.0,0.0,0.0,0.0,0.0,0.0,0.0,0.0,0.0,0.0,0.0,0.0,0.0,0.0,0.0,0.0,0.0,0.0,0.0,-0.6728,-0.6807,-0.657,0.0,0.0,0.0,0.0,0.0,0.0,0.0,0.0,0.0,-1.1895,-1.348,-1.4573,-1.4605,-1.4959,-1.525,-1.5181,-1.4617,-1.4283,-1.4581,-1.4573,-1.3987,0.0,0.0,0.0,0.0,0.0,0.0,0.0,0.0,0.0,0.0,0.0,0.0,0.0,0.0,0.0,0.0,0.0,0.0,0.0,0.0,0.0,0.0,0.0,0.0,0.0,0.0,0.0,-0.8099,-0.7872,0.0,0.0,0.0,0.0,0.0,0.0,0.0,0.0,0.0,0.0,0.0,-1.0814,-1.1459,0.0,0.0,0.0,0.0,0.0,0.0,0.0,0.0,0.0,0.0,0.0,0.0,-1.0674,-1.1966,-1.3355,-1.4283,-1.4589,-1.4605,-1.455,-1.4431,-1.4013,-1.3052,-1.1535,0.0,0.0,0.0,0.0,0.0,0.0,0.0,0.0,0.0,0.0,0.0,0.0,0.0,0.0,0.0,0.0,0.0,0.0,0.0,0.0,0.0,0.0,0.0,0.0,0.0,-0.6667,0.0,0.0,0.0,0.0,0.0,0.0,0.0,0.0,0.0,0.0,-1.0947,-1.2107,-1.3259,-1.4331,-1.5078,-1.53,-1.5634,-1.5864,0.0,0.0,0.0,0.0,0.0,0.0,0.0,0.0,0.0,0.0,0.0,0.0,0.0,-1.4005,-1.3759,-1.1006,-1.0297,-1.0169,-1.0272,0.0,0.0,0.0,0.0,0.0,0.0,0.0,0.0,0.0,0.0,0.0,0.0,0.0,0.0,-0.9699,-0.9662,-0.9102,0.0,0.0,0.0,0.0,0.0,0.0,0.0,0.0,-1.1341,-1.2134,-1.2464,-1.3053,-1.2958,-1.2274,-1.1943,-1.0609,0.0,0.0,0.0,0.0,0.0,0.0,0.0,0.0,-1.1154,-1.2382,-1.3632,-1.4375,-1.4589,-1.4605,-1.4605,-1.4589,-1.418,-1.3282,-1.1937,-1.0696,-0.9802,0.0,0.0,0.0,0.0,0.0,0.0,0.0,0.0,0.0,0.0,0.0,0.0,0.0,0.0,0.0,0.0,0.0,0.0,0.0,0.0,0.0,0.0,0.0,-0.7173,0.0,0.0,0.0,0.0,0.0,0.0,0.0,0.0,0.0,-1.1197,-1.2313,-1.3545,-1.4697,-1.5348,-1.5801,-1.6015,0.0,0.0,0.0,0.0,0.0,0.0,0.0,-1.4569,-1.4792,-1.4474,-1.4204,-1.4275,-1.5054,-1.5569,-1.5086,0.0,0.0,-1.3092,-1.2479,-1.2375,-1.2583,-1.279,-1.2965,-1.3092,-1.3489,-1.3888,0.0,0.0,0.0,0.0,-0.9782,0.0,0.0,0.0,-1.0902,-1.1129,0.0,-1.0646,0.0,0.0,0.0,0.0,-0.8972,-1.0726,0.0,0.0,-1.3572,-1.4335,-1.4049,-1.4071,-1.3879,-1.3587,-1.3836,-1.3162,-1.1584,-0.9131,0.0,0.0,0.0,0.0,0.0,0.0,-1.1794,-1.2883,-1.3994,-1.4585,-1.4569,-1.4605,-1.4605,-1.4589,-1.3974,-1.3331,-1.2662,-1.1945,-1.1012,-0.9934,-0.909,0.0,0.0,0.0,0.0,0.0,0.0,0.0,0.0,0.0,0.0,0.0,0.0,0.0,0.0,0.0,0.0,0.0,0.0,0.0,0.0,-0.7276,0.0,0.0,0.0,0.0,0.0,0.0,0.0,0.0,0.0,-1.2431,-1.1834,-1.3753,-1.5459,-1.6111,0.0,0.0,0.0,0.0,-1.623,-1.6254,-1.5944,-1.584,-1.6174,-1.6182,-1.5936,-1.534,0.0,0.0,-1.489,-1.5324,-1.5602,-1.4874,-1.5459,-1.5999,-1.6586,-1.5975,-1.5569,-1.5585,-1.5038,-1.4787,-1.5125,-1.5157,-1.5292,-1.3345,0.0,0.0,0.0,0.0,-1.2233,-1.2943,-1.4157,-1.3798,-1.3543,-1.3293,-1.2753,0.0,0.0,0.0,0.0,0.0,0.0,-1.2489,-1.2987,-1.4004,-1.4538,-1.4645,-1.5145,-1.5189,-1.4874,-1.4735,-1.4311,-1.3623,-1.2189,-1.0565,-0.8826,0.0,0.0,0.0,0.0,-1.2573,-1.3081,-1.4063,-1.4493,-1.4245,-1.4389,-1.4505,-1.4597,-1.4204,-1.3862,-1.3664,-1.3004,-1.2258,-1.1399,-1.0371,0.0,0.0,0.0,0.0,0.0,0.0,0.0,0.0,0.0,0.0,0.0,0.0,0.0,0.0,0.0,0.0,0.0,0.0,0.0,-0.7567,-0.7687,-0.7839,0.0,0.0,0.0,0.0,0.0,0.0,0.0,0.0,0.0,-1.4517,-1.53,-1.6079,0.0,0.0,-1.7032,-1.6729,-1.661,-1.6675,-1.6929,-1.6667,0.0,-1.6563,-1.6158,-1.5936,-1.6238,-1.6675,-1.6937,-1.6889,-1.7254,-1.7477,-1.7254,-1.7577,-1.7949,-1.8073,-1.6818,-1.5864,-1.5968,-1.588,-1.588,-1.6158,-1.6285,-1.6389,-1.5416,-1.4457,-1.3645,-1.3594,-1.4048,-1.3959,-1.4596,-1.5564,-1.5367,-1.5248,-1.5127,-1.4655,-1.3843,-1.2782,-1.2435,0.0,0.0,0.0,-1.3652,-1.4054,-1.4604,-1.4955,-1.5119,-1.554,-1.5579,-1.5382,-1.5185,-1.5002,-1.4845,-1.4253,-1.2994,-1.1173,0.0,-1.1314,-1.1308,-1.256,-1.3262,-1.3508,-1.4194,-1.4475,-1.4217,-1.4389,-1.4533,-1.4597,-1.4426,-1.4288,-1.428,-1.3791,-1.3202,-1.2546,-1.1615,-1.047,0.0,0.0,0.0,0.0,0.0,0.0,0.0,0.0,0.0,0.0,0.0,-0.616,-0.4851,0.0,0.0,0.0,-0.6998,-0.7869,-0.8565,-0.8962,0.0,0.0,0.0,0.0,0.0,0.0,0.0,-1.3965,-1.4993,-1.5721,-1.6047,-1.6404,-1.6714,-1.6921,-1.7016,-1.7032,-1.6961,0.0,-1.6865,-1.7223,-1.7096,-1.6992,-1.7111,-1.6675,-1.6508,-1.6873,-1.7239,-1.7568,-1.7775,-1.7962,-1.8089,-1.8112,-1.8263,-1.8406,-1.8406,-1.7342,-1.6667,-1.7135,-1.7127,-1.7119,-1.7318,-1.7254,-1.7215,-1.6939,-1.6815,-1.5347,-1.4853,-1.5075,-1.5367,-1.5688,-1.6023,-1.603,-1.633,-1.6851,-1.6243,-1.5754,-1.5367,-1.4538,0.0,-1.4121,-1.4696,-1.4951,-1.4958,-1.5279,-1.5411,-1.5389,-1.5418,-1.5425,-1.5425,-1.5425,-1.5425,-1.5418,-1.5389,-1.4984,-1.4128,-1.3236,-1.2954,-1.3349,-1.3708,-1.3924,-1.4053,-1.4402,-1.455,-1.4397,-1.4533,-1.4605,-1.4605,-1.4605,-1.4605,-1.4589,-1.4288,-1.3894,-1.338,-1.2718,-1.1685,-1.0234,0.0,0.0,0.0,0.0,0.0,0.0,0.0,0.0,0.0,0.0,0.0,0.0,0.0,0.0,-0.7825,-0.8784,0.0,-0.9613,-1.0743,0.0,0.0,0.0,-1.2286,-1.2837,-1.3703,-1.4554,-1.5298,0.0,0.0,-1.6776,-1.7151,-1.7342,-1.7318,-1.7024,-1.6887,-1.7231,-1.7,-1.6897,-1.7239,-1.7313,-1.7424,-1.7623,-1.7456,-1.7305,-1.731,-1.7572,-1.7763,-1.7862,-1.7886,-1.787,-1.7958,-1.791,-1.7934,-1.791,-1.791,-1.8057,-1.8629,-1.8454,-1.82,-1.8144,-1.7914,-1.7759,-1.7216,-1.7186,-1.6806,-1.6557,-1.6448,-1.6484,-1.6696,-1.6943,-1.6943,-1.6938,-1.6895,-1.6749,-1.633,-1.5789,-1.5555,-1.5321,-1.5109,-1.5496,-1.5506,-1.5301,-1.5608,-1.5622,-1.5403,-1.5637,-1.5796,-1.5804,-1.5804,-1.5754,-1.5789,-1.5506,-1.5396,-1.5445,-1.5218,-1.4609,-1.3753,-1.4309,-1.451,-1.4216,-1.4531,-1.4592,-1.4413,-1.4433,-1.4497,-1.4605,-1.4605,-1.4605,-1.4597,-1.4526,-1.4312,-1.3929,-1.3265,-1.2475,-1.1571,-1.0003,0.0,0.0,0.0,0.0,0.0,0.0,0.0,0.0,0.0,-0.86,-0.6546,0.0,-0.9605,0.0,-1.0119,-1.0893,-1.1618,-1.1781,0.0,0.0,-1.3773,-1.4042,-1.5205,-1.5554,-1.5983,-1.6747,-1.7374,-1.7834,-1.7922,-1.8001,-1.7962,-1.7735,-1.7572,-1.7469,-1.7318,-1.7215,-1.7183,-1.7262,-1.7337,-1.7345,-1.7448,-1.7591,-1.7703,-1.7703,-1.7731,-1.7902,-1.8128,-1.8176,-1.8255,-1.8518,-1.8581,-1.8573,-1.8557,-1.8573,-1.8613,-1.8748,-1.8327,-1.7898,-1.7934,-1.7878,-1.7814,-1.7286,-1.7286,-1.7286,-1.7223,-1.7062,-1.7062,-1.7165,-1.7286,-1.7286,-1.723,-1.7062,-1.7062,-1.6879,-1.6505,-1.6543,-1.6374,-1.6082,-1.625,-1.6082,-1.5665,-1.579,-1.5745,-1.5396,-1.5571,-1.5701,-1.5659,-1.5652,-1.5732,-1.5899,-1.5688,-1.5695,-1.5913,-1.5913,-1.5436,-1.4591,-1.5076,-1.5171,-1.4798,-1.4718,-1.4561,-1.4421,-1.4618,-1.4699,-1.4613,-1.4764,-1.4736,-1.4383,-1.4375,-1.4068,-1.3463,-1.3011,-1.2445,-1.1791,-1.0626,-0.9864,0.0,0.0,0.0,0.0,0.0,0.0,0.0,0.0,0.0,0.0,0.0,-1.1005,-1.1217,-1.2055,-1.2957,-1.3768,-1.4019,-1.4601,-1.5753,-1.5666,-1.5888,-1.6802,-1.6905,-1.7119,-1.7668,-1.793,-1.8057,-1.8065,-1.8109,-1.8001,-1.7838,-1.7806,-1.7751,-1.754,-1.7501,-1.7501,-1.7536,-1.7544,-1.7544,-1.7544,-1.7822,-1.8001,-1.8017,-1.8136,-1.8311,-1.8502,-1.8533,-1.8597,-1.8742,-1.8781,-1.8781,-1.8781,-1.8781,-1.8781,-1.878,-1.8526,-1.8271,-1.824,-1.824,-1.824,-1.7286,-1.7286,-1.7286,-1.7286,-1.7286,-1.7286,-1.7286,-1.7286,-1.7286,-1.7286,-1.7286,-1.7286,-1.7304,-1.7267,-1.7267,-1.7091,-1.6851,-1.6844,-1.6543,-1.5979,-1.5979,-1.5826,-1.5506,-1.5511,-1.5447,-1.5447,-1.5403,-1.5577,-1.5805,-1.5812,-1.587,-1.5913,-1.5913,-1.5789,-1.5528,-1.5796,-1.5731,-1.544,-1.4908,-1.4618,-1.4475,-1.4951,-1.5041,-1.4664,-1.4938,-1.48,-1.4156,-1.4117,-1.3703,-1.286,-1.2639,-1.2282,-1.1775,-1.1311,-1.0883,0.0,-1.0308,0.0,0.0,0.0,0.0,0.0,0.0,0.0,0.0,-1.2075,-1.2609,-1.316,-1.4182,-1.511,-1.5784,-1.6412,-1.68,-1.6887,-1.7175,-1.7512,-1.7838,-1.7842,-1.7954,-1.8263,-1.8065,-1.795,-1.799,-1.7906,-1.795,-1.7946,-1.7962,-1.7969,-1.7914,-1.787,-1.7783,-1.7806,-1.7862,-1.7858,-1.7946,-1.8176,-1.8375,-1.8398,-1.8573,-1.8773,-1.8758,-1.8765,-1.8773,-1.8781,-1.8781,-1.8781,-1.8781,-1.8781,-1.8781,-1.8781,-1.8742,-1.8772,-1.8772,-1.8718,-1.8781,-1.7286,-1.7286,-1.7286,-1.7286,-1.7286,-1.7286,-1.7286,-1.7286,-1.7286,-1.7286,-1.7286,-1.7286,-1.7186,-1.6998,-1.6991,-1.6807,-1.6507,-1.6507,-1.6441,-1.6331,-1.6279,-1.625,-1.6177,-1.5935,-1.5826,-1.5761,-1.5555,-1.5418,-1.5484,-1.5484,-1.5615,-1.5913,-1.5913,-1.6009,-1.6177,0.0,0.0,0.0,-1.5178,-1.4881,-1.4752,-1.5155,-1.517,-1.4774,-1.4738,0.0,-1.414,-1.4117,-1.4019,-1.3824,-1.3787,0.0,0.0,0.0,0.0,0.0,0.0,0.0,0.0,0.0,0.0,0.0,-1.3816,-1.3423,-1.2822,-1.4098,-1.4935,-1.4824,-1.5429,-1.6079,-1.6451,-1.6921,-1.7397,-1.7922,-1.7811,-1.7811,-1.8152,-1.82,-1.8232,-1.8287,-1.8486,-1.8621,-1.8597,-1.8629,-1.8621,-1.8536,-1.8621,-1.8629,-1.8605,-1.8136,-1.7838,-1.783,-1.8033,-1.8303,-1.8581,-1.8669,-1.8647,-1.8748,-1.8764,-1.8781,-1.8781,-1.8781,-1.8781,-1.8781,-1.8781,-1.8781,-1.8781,-1.8781,-1.8781,-1.8781,-1.8781,-1.8781,-1.8781,-1.8781,-1.8781,-1.7286,-1.7286,-1.7286,-1.7286,0.0,-1.7286,-1.7286,-1.7286,-1.7286,-1.7286,-1.7286,-1.7286,-1.7238,-1.7091,-1.7084,-1.6996,-1.6843,-1.6843,-1.6762,-1.6653,-1.6661,-1.6573,-1.6404,-1.6213,-1.614,-1.6133,-1.5972,-1.5811,-1.563,-1.5672,-1.5672,-1.5637,-1.5672,-1.5752,-1.5899,-1.5965,-1.5846,-1.5543,-1.5527,-1.532,-1.5034,-1.5528,-1.5543,-1.5011,-1.5083,0.0,0.0,0.0,0.0,0.0,0.0,0.0,0.0,0.0,0.0,-1.3537,-1.3702,-1.3763,-1.3753,-1.4375,-1.4893,-1.5062,-1.5619,-1.5499,-1.4399,-1.5491,-1.6277,-1.646,-1.6945,-1.7382,-1.768,-1.7779,-1.7993,-1.847,-1.8247,-1.8168,-1.8494,-1.8565,-1.8565,-1.8565,-1.8716,-1.8781,-1.8781,-1.8781,-1.8781,-1.8781,-1.8781,-1.8781,-1.8804,-1.8533,-1.8295,-1.8295,-1.843,-1.8613,-1.8734,-1.8781,-1.8781,-1.8781,-1.8781,-1.8781,-1.8781,-1.8781,-1.8781,-1.8781,-1.8781,-1.8781,-1.8781,-1.8781,-1.8781,-1.8781,-1.8781,-1.8781,-1.8781,-1.8781,-1.8781,-1.7286,-1.7286,-1.7286,-1.7286,-1.7286,-1.7286,-1.7286,-1.7286,-1.7286,0.0,0.0,-1.7286,-1.7286,-1.7286,-1.7286,-1.7286,-1.7286,-1.7286,-1.7186,-1.6983,-1.6983,-1.6844,-1.6543,-1.6529,-1.6499,-1.6492,-1.6441,-1.6287,-1.6001,-1.5994,-1.5833,-1.5506,-1.5469,-1.5482,-1.5472,-1.588,-1.5991,-1.5763,-1.5916,-1.5772,-1.5374,-1.5936,-1.596,-1.5342,-1.5562,-1.538,-1.4724,-1.4458,-1.4011,-1.3339,-1.3355,-1.3514,-1.3685,-1.3755,-1.4336,-1.5483,-1.5744,-1.5761,-1.5816,-1.6222,-1.6269,-1.5808,-1.6802,-1.708,-1.6198,-1.6675,-1.7247,-1.7819,-1.8128,-1.8414,-1.8654,-1.8541,-1.851,-1.8796,-1.8565,-1.8518,-1.8734,-1.8781,-1.8758,-1.8781,-1.8819,-1.8781,-1.8781,-1.8781,-1.8781,-1.8781,-1.8781,-1.8781,-1.8781,-1.875,-1.8764,-1.8718,-1.8764,-1.8765,-1.8781,-1.8781,-1.8781,-1.8781,-1.8781,-1.8781,-1.8781,-1.8781,-1.8781,-1.8781,-1.8781,-1.8781,-1.8781,-1.8781,-1.8781,-1.8781,-1.8781,-1.8781,-1.8781,-1.8781,-1.8781,-1.7286,-1.7286,-1.7286,-1.7286,-1.7286,-1.7286,-1.7286,-1.7286,-1.7286,-1.7286,-1.7286,-1.7286,-1.7286,-1.7286,-1.7286,-1.7286,-1.7286,-1.7286,-1.7304,-1.726,-1.7267,-1.7191,-1.7179,-1.6908,-1.6837,-1.6807,-1.6543,-1.6397,-1.6309,-1.6353,-1.6148,-1.5884,-1.5848,-1.5786,-1.5688,-1.5963,-1.6139,-1.6291,-1.6324,-1.6145,-1.5826,-1.617,-1.6193,-1.5818,-1.5739,-1.5507,-1.5125,-1.5054,-1.499,-1.4867,-1.5157,-1.5213,-1.4982,-1.5213,-1.5348,-1.533,-1.5809,-1.6134,-1.6158,-1.7008,-1.7644,-1.7842,-1.8049,-1.8081,-1.7954,-1.8025,-1.812,-1.8224,-1.8279,-1.8311,-1.8383,-1.8613,-1.8734,-1.8843,-1.8742,-1.8734,-1.8867,-1.8821,-1.8829,-1.8883,-1.8781,-1.8851,-1.8845,-1.8829,-1.8891,-1.8805,-1.8939,-1.8813,-1.8845,-1.8781,-1.8781,-1.8781,-1.8781,-1.8781,-1.8781,-1.8781,-1.8781,-1.8781,-1.8781,-1.8781,-1.8781,-1.8781,-1.8781,-1.8781,-1.8781,-1.8781,-1.8781,-1.8781,-1.8781,-1.8781,-1.8781,-1.8781,-1.8781,-1.8781,-1.8781,-1.7286,-1.7286,-1.7286,-1.7286,-1.7286,-1.7286,-1.7286,-1.7286,-1.7286,-1.7286,-1.7286,-1.7286,-1.7286,-1.7286,-1.7286,-1.7286,-1.7286,-1.7286,-1.7286,-1.7286,-1.7286,-1.7286,-1.7271,-1.7179,-1.7113,-1.7099,-1.696,-1.6806,-1.669,-1.6683,-1.6514,-1.6184,-1.63,-1.6311,-1.6209,-1.6438,-1.6547,-1.6566,-1.6566,-1.6401,-1.607,-1.6385,-1.6401,-1.607,-1.6008,-1.5896,-1.5745,-1.5554,-1.5489,-1.5451,-1.5594,-1.5736,-1.5745,-1.6055,-1.6349,-1.662,-1.7056,-1.7342,-1.7342,-1.7604,-1.7922,-1.8263,-1.8303,-1.839,-1.8573,-1.8406,-1.8375,-1.8557,-1.8589,-1.8669,-1.8859,-1.9026,-1.9193,-1.9368,-1.9391,-1.9391,-1.9391,-1.9391,-1.9391,-1.9391,-1.9383,-1.9391,-1.9391,-1.9391,-1.9391,-1.9383,-1.9383,-1.9376,-1.9376,-1.9376,-1.9241,-1.8923,-1.8781,-1.8781,-1.8781,-1.8781,-1.8781,-1.8781,-1.8781,-1.8781,-1.8781,-1.8789,-1.8789,-1.8781,-1.8781,-1.8781,-1.8789,-1.8781,-1.8781,-1.8781,-1.8781,-1.8781,-1.8781,-1.8781,-1.8781,-1.7286,-1.7286,-1.7286,-1.7286,-1.7286,-1.7286,-1.7286,-1.7286,-1.7286,-1.7286,-1.7286,-1.7286,-1.7286,-1.7286,-1.7286,-1.7286,-1.7286,-1.7286,-1.7286,-1.7286,-1.7286,-1.7286,-1.7286,-1.7286,-1.7286,-1.7286,-1.7286,-1.7201,-1.7027,-1.7005,-1.6844,-1.664,-1.6736,-1.679,-1.6806,-1.6955,-1.6985,-1.6943,-1.6969,-1.6721,-1.6349,-1.6554,-1.6595,-1.6357,-1.6285,-1.6325,-1.6309,-1.6063,-1.5912,-1.592,-1.5991,-1.6166,-1.6444,-1.6778,-1.7207,-1.7775,-1.8025,-1.8224,-1.8279,-1.8049,-1.8081,-1.8502,-1.8541,-1.8692,-1.8986,-1.8819,-1.8724,-1.8923,-1.9026,-1.9193,-1.9455,-1.9527,-1.9638,-1.9877,-1.9909,-1.9869,-1.9901,-1.9909,-1.9909,-1.9909,-1.9909,-1.9893,-1.9909,-1.9909,-1.9877,-1.9869,-1.9909,-1.9909,-1.9909,-1.9909,-1.9614,-1.9248,-1.9002,-1.8915,-1.8813,-1.8781,-1.8781,-1.8781,-1.8868,-1.897,-1.8994,-1.901,-1.9074,-1.9105,-1.9018,-1.8994,-1.8962,-1.897,-1.8978,-1.8994,-1.9066,-1.9105,-1.9121,-1.9121,-1.8986,-1.7286,-1.7286,-1.7293,-1.7286,-1.7286,-1.7286,-1.7286,-1.7286,-1.7286,-1.7286,-1.7301,-1.7286,-1.7301,-1.7286,-1.7286,-1.7286,-1.7286,-1.7286,-1.7286,-1.7286,-1.7286,-1.7286,-1.7286,-1.7286,-1.7286,-1.7286,-1.7286,-1.7304,-1.726,-1.7267,-1.7213,-1.7085,-1.6936,-1.7058,-1.7355,-1.7442,-1.7541,-1.7668,-1.7719,-1.735,-1.6689,-1.6673,-1.6673,-1.665,-1.665,-1.6642,-1.6665,-1.661,-1.6594,-1.6618,-1.6937,-1.7177,-1.7199,-1.7493,-1.7743,-1.7822,-1.7826,-1.7998,-1.8263,-1.8271,-1.8549,-1.9185,-1.9248,-1.9431,-1.975,-1.9765,-1.959,-1.9455,-1.9598,-1.9781,-1.9861,-1.9869,-1.9909,-1.9996,-1.9988,-1.9909,-1.9957,-1.9909,-1.9909,-1.9909,-1.9996,-1.9917,-1.9996,-1.9996,-1.9965,-2.002,-2.0044,-2.0036,-2.0028,-2.002,-1.9932,-1.9741,-1.9534,-1.9217,-1.8986,-1.8835,-1.8923,-1.8868,-1.9121,-1.928,-1.9352,-1.9526,-1.9749,-1.9542,-1.9479,-1.9328,-1.932,-1.9367,-1.9328,-1.9391,-1.9495,-1.9773,-1.9805,-1.975,-1.9495,-1.7454,-1.7301,-1.7538,-1.7454,-1.7301,-1.7286,-1.7286,-1.7301,-1.753,-1.7618,-1.764,-1.7816,-1.7691,-1.7293,-1.7286,-1.7286,-1.7286,-1.7286,-1.7286,-1.7286,-1.7286,-1.7286,-1.7286,-1.7286,-1.7286,-1.7286,-1.7286,-1.7286,-1.7326,-1.7426,-1.7507,-1.7527,-1.7659,-1.7779,-1.7765,-1.7919,-1.7941,-1.7814,-1.7806,-1.7628,-1.739,-1.735,-1.7342,-1.7342,-1.735,-1.7342,-1.735,-1.7342,-1.735,-1.7358,-1.7501,-1.7615,-1.7615,-1.789,-1.8081,-1.8097,-1.8287,-1.8454,-1.8551,-1.8804,-1.9058,-1.9407,-1.9606,-1.9773,-1.9909,-2.01,-2.0122,-2.0011,-1.9957,-1.9988,-2.0188,-2.0178,-2.0265,-2.044,-2.0488,-2.048,-2.0488,-2.048,-2.0496,-2.0488,-2.0496,-2.048,-2.0488,-2.0488,-2.0488,-2.0488,-2.048,-2.0456,-2.048,-2.0488,-2.04,-2.0218,-2.0051,-1.9836,-1.9511,-1.9439,-1.9431,-1.9455,-1.9606,-1.971,-1.9734,-1.9789,-1.9901,-1.9925,-1.9805,-1.9718,-1.9654,-1.971,-1.9718,-1.9765,-1.9765,-1.9909,-1.9909,-1.9909,-1.9693,-1.7505,-1.7344,-1.7684,-1.7677,-1.7432,-1.7512,-1.7596,-1.7618,-1.7845,-1.7947,-1.7977,-1.8203,-1.8043,-1.764,-1.7596,-1.7596,-1.7582,-1.7454,-1.7465,-1.7395,-1.733,-1.7286,-1.7286,-1.7286,-1.7286,-1.7286,-1.7286,-1.7333,-1.7426,-1.7581,-1.7768,-1.7962,-1.8288,-1.8402,-1.8214,-1.8348,-1.8319,-1.8097,-1.8057,-1.8065,-1.8065,-1.8065,-1.7969,-1.7838,-1.7806,-1.7806,-1.7806,-1.7806,-1.7806,-1.7806,-1.7858,-1.7914,-1.7966,-1.8255,-1.8486,-1.8597,-1.8827,-1.9018,-1.9105,-1.936,-1.959,-1.9662,-1.9884,-2.0059,-2.0227,-2.0392,-2.0527,-2.0512,-2.0297,-2.0297,-2.048,-2.0535,-2.0662,-2.0893,-2.0925,-2.0925,-2.0901,-2.0925,-2.0901,-2.0925,-2.0853,-2.0925,-2.0917,-2.0893,-2.0869,-2.0869,-2.0893,-2.0925,-2.0925,-2.0893,-2.0805,-2.0583,-2.0535,-2.0337,-2.002,-1.9853,-1.9909,-1.9949,-1.9949,-2.006,-2.0027,-2.0116,-2.0162,-2.0345,-2.0146,-2.0019,-2.0011,-2.0011,-2.0067,-2.0122,-2.0146,-2.0146,-2.0249,-2.017,-2.017,-1.7293,-1.7344,-1.7684,-1.7823,-1.7816,-1.8101,-1.824,-1.8196,-1.8262,-1.8284,-1.8284,-1.8328,-1.8299,-1.8255,-1.8262,-1.8247,-1.8203,-1.7918,-1.7786,-1.7765,-1.7508,-1.7301,-1.7286,-1.7286,-1.7308,-1.7366,-1.7381,-1.7485,-1.7705,-1.7682,-1.7955,-1.8435,-1.8481,-1.8604,-1.8688,-1.8726,-1.8788,-1.8708,-1.87,-1.8748,-1.8702,-1.8702,-1.8422,-1.7898,-1.783,-1.787,-1.7846,-1.7822,-1.783,-1.7822,-1.8105,-1.8279,-1.8303,-1.8605,-1.8955,-1.9256,-1.9336,-1.9527,-1.9773,-1.9861,-2.0012,-2.0257,-2.0337,-2.0496,-2.0734,-2.0813,-2.0845,-2.0885,-2.0813,-2.0829,-2.0853,-2.0829,-2.0861,-2.0909,-2.0925,-2.0925,-2.0925,-2.0925,-2.0925,-2.0925,-2.0925,-2.0925,-2.0925,-2.0925,-2.0925,-2.0925,-2.0925,-2.0925,-2.0925,-2.0925,-2.0893,-2.0877,-2.0813,-2.0655,-2.0092,-2.0076,-2.0036,-2.0084,-2.0273,-2.0369,-2.0488,-2.0607,-2.0726,-2.0758,-2.0527,-2.0392,-2.0384,-2.0432,-2.0527,-2.0599,-2.0686,-2.0718,-2.0607,-2.079,-2.0758,-1.7717,-1.7955,-1.8079,-1.8123,-1.8138,-1.8255,-1.8299,-1.8321,-1.8533,-1.8613,-1.8657,-1.8833,-1.8928,-1.8921,-1.8928,-1.8694,-1.8313,-1.8174,-1.813,-1.8116,-1.8006,-1.7955,-1.7906,-1.7955,-1.7947,-1.7955,-1.7947,-1.7941,-1.802,-1.7974,-1.8141,-1.8481,-1.8604,-1.8735,-1.8781,-1.8781,-1.8781,-1.8781,-1.8781,-1.8781,-1.8789,-1.8781,-1.8692,-1.847,-1.8446,-1.8446,-1.8446,-1.8446,-1.8446,-1.8454,-1.8528,-1.8645,-1.8669,-1.8978,-1.9328,-1.9686,-1.9734,-1.9789,-1.9917,-2.0083,-2.0257,-2.0384,-2.0615,-2.0766,-2.0842,-2.0925,-2.0925,-2.0925,-2.0925,-2.0925,-2.0925,-2.0925,-2.0925,-2.0925,-2.0925,-2.0925,-2.0925,-2.0925,-2.0925,-2.0925,-2.0925,-2.0925,-2.0925,-2.0925,-2.0925,-2.0925,-2.0925,-2.0925,-2.0925,-2.0925,-2.0925,-2.0925,-2.0917,-2.0794,-2.0647,-2.0551,-2.0551,-2.0567,-2.067,-2.0694,-2.079,-2.0782,-2.0861,-2.0861,-2.0718,-2.0694,-2.0647,-2.067,-2.079,-2.0813,-2.0925,-2.0925,-2.0917,-2.0925,-2.0925,-1.794,-1.816,-1.8379,-1.846,-1.8467,-1.8569,-1.8621,-1.8642,-1.8847,-1.895,-1.8994,-1.9184,-1.9272,-1.9272,-1.9272,-1.9052,-1.8628,-1.8518,-1.846,-1.8445,-1.835,-1.8299,-1.8299,-1.8299,-1.8299,-1.8299,-1.8397,-1.8476,-1.8621,-1.8569,-1.8706,-1.895,-1.9067,-1.9098,-1.9018,-1.9002,-1.8955,-1.8813,-1.8781,-1.8829,-1.8978,-1.9002,-1.9058,-1.9145,-1.9161,-1.905,-1.8805,-1.8781,-1.8781,-1.8789,-1.8939,-1.905,-1.9169,-1.9391,-1.9685,-2.0036,-2.0035,-2.014,-2.021,-2.0432,-2.0559,-2.0575,-2.0774,-2.0925,-2.0925,-2.0925,-2.0925,-2.0925,-2.0925,-2.0925,-2.0925,-2.0925,-2.0925,-2.0925,-2.0925,-2.0925,-2.0925,-2.0925,-2.0925,-2.0925,-2.0925,-2.0925,-2.0925,-2.0925,-2.0925,-2.0925,-2.0925,-2.0925,-2.0925,-2.0925,-2.0925,-2.0925,-2.0925,-2.0917,-2.0821,-2.0782,-2.0782,-2.0805,-2.0805,-2.0885,-2.0925,-2.0925,-2.0925,-2.0925,-2.0925,-2.0925,-2.0925,-2.0925,-2.0925,-2.0925,-2.0925,-2.0925,-2.0925,-2.0925,-2.0925,-1.7838,-1.7984,-1.8518,-1.8789,-1.8833,-1.9067,-1.9242,-1.9206,-1.9235,-1.922,-1.922,-1.9272,-1.9272,-1.9272,-1.9272,-1.925,-1.9155,-1.8906,-1.8789,-1.8774,-1.8511,-1.8386,-1.8394,-1.8408,-1.8458,-1.8443,-1.8617,-1.8954,-1.938,-1.9359,-1.953,-1.9772,-1.9765,-1.9654,-1.9423,-1.936,-1.9209,-1.9002,-1.8947,-1.9066,-1.9328,-1.9368,-1.9542,-1.9805,-1.9829,-1.9503,-1.8868,-1.8845,-1.8923,-1.8892,-1.9201,-1.9526,-1.9773,-1.9909,-2.0019,-2.0329,-2.0392,-2.0559,-2.0821,-2.0861,-2.0861,-2.0869,-2.0858,-2.0925,-2.0925,-2.0925,-2.0925,-2.0925,-2.0925,-2.0925,-2.0925,-2.0956,-2.0956,-2.0925,-2.0925,-2.0925,-2.0925,-2.0925,-2.0925,-2.0925,-2.0925,-2.0925,-2.0925,-2.0925,-2.0925,-2.0925,-2.0925,-2.0925,-2.0925,-2.0925,-2.0925,-2.0925,-2.0925,-2.0925,-2.0925,-2.0917,-2.0917,-2.0909,-2.0901,-2.0925,-2.0925,-2.0925,-2.0925,-2.0925,-2.0925,-2.0925,-2.0925,-2.0925,-2.0925,-2.0925,-2.0925,-2.0925,-2.0925,-2.0925,-2.0925,-1.8277,-1.8533,-1.8942,-1.9125,-1.914,-1.9287,-1.9272,-1.9272,-1.9272,-1.9272,-1.9272,-1.9272,-1.9272,-1.9272,-1.9272,-1.9272,-1.9264,-1.9162,-1.9177,-1.9096,-1.9008,-1.895,-1.895,-1.8964,-1.9074,-1.9227,-1.9076,-1.9337,-1.9698,-1.9659,-1.9624,-1.9868,-1.9925,-1.9861,-1.9765,-1.975,-1.963,-1.9558,-1.9542,-1.9606,-1.975,-1.9757,-1.9813,-1.9893,-1.9909,-1.9789,-1.9558,-1.9542,-1.9542,-1.9526,-1.9646,-1.9917,-2.0146,-2.0226,-2.04,-2.0702,-2.0758,-2.0782,-2.0893,-2.0925,-2.0925,-2.0925,-2.0933,-2.0925,-2.0925,-2.0948,-2.0948,-2.0941,-2.0925,-2.0925,-2.0956,-2.1103,-2.1135,-2.0956,-2.0925,-2.0956,-2.098,-2.0956,-2.0925,-2.0925,-2.0925,-2.0925,-2.0925,-2.0925,-2.0925,-2.0925,-2.0925,-2.0925,-2.0925,-2.0925,-2.0925,-2.0925,-2.0925,-2.0925,-2.0925,-2.0925,-2.0925,-2.0925,-2.0925,-2.0925,-2.0925,-2.0925,-2.0925,-2.0925,-2.0925,-2.0925,-2.0925,-2.0925,-2.0925,-2.0925,-2.0925,-2.0925,-2.0925,-2.0925,-2.0925,-1.8496,-1.8818,-1.914,-1.9272,-1.9272,-1.9272,-1.9272,-1.9272,-1.9272,-1.9272,-1.9272,-1.9272,-1.9272,-1.9272,-1.9272,-1.9272,-1.9272,-1.9272,-1.9272,-1.9272,-1.9272,-1.9272,-1.9324,-1.9428,-1.9635,-1.9908,-1.9778,-1.9933,-2.0331,-2.0134,-2.0116,-2.0257,-2.0257,-2.0186,-2.0124,-2.0059,-2.006,-1.9941,-1.9901,-1.998,-2.0084,-2.0059,-2.0122,-2.0234,-2.0257,-2.0257,-2.0257,-2.0257,-2.013,-1.9948,-1.9979,-2.0226,-2.0543,-2.0599,-2.0694,-2.0853,-2.0917,-2.0917,-2.0925,-2.0925,-2.0996,-2.1084,-2.1064,-2.1195,-2.1266,-2.1306,-2.1306,-2.1306,-2.133,-2.1298,-2.1354,-2.1489,-2.152,-2.1346,-2.133,-2.1306,-2.1306,-2.1306,-2.1314,-2.1322,-2.1219,-2.1087,-2.1064,-2.0921,-2.0933,-2.0925,-2.0925,-2.0925,-2.0925,-2.0925,-2.0925,-2.0925,-2.0925,-2.0925,-2.0925,-2.0925,-2.0925,-2.0925,-2.0925,-2.0925,-2.0925,-2.0925,-2.0925,-2.0925,-2.0925,-2.0925,-2.0925,-2.0925,-2.0925,-2.0925,-2.0925,-2.0925,-2.0925,-2.0925,-2.0925,-1.8503,-1.8847,-1.9147,-1.9272,-1.9272,-1.9272,-1.9272,-1.9272,-1.9272,-1.9272,-1.9272,-1.9272,-1.9272,-1.9272,-1.9272,-1.9272,-1.9272,-1.9324,-1.9324,-1.9324,-1.9376,-1.9428,-1.9376,-1.9576,-1.9939,-2.0359,-2.0439,-2.0585,-2.0802,-2.0778,-2.0925,-2.0829,-2.0805,-2.075,-2.048,-2.0416,-2.0281,-2.0116,-2.0036,-2.0146,-2.0408,-2.0416,-2.0543,-2.0837,-2.0845,-2.0837,-2.0813,-2.0798,-2.0559,-2.0083,-2.0281,-2.0559,-2.0837,-2.0925,-2.0901,-2.0925,-2.0925,-2.0964,-2.0956,-2.1012,-2.1139,-2.1381,-2.1436,-2.16,-2.1806,-2.1868,-2.1876,-2.1884,-2.1908,-2.1939,-2.1932,-2.2019,-2.1973,-2.2067,-2.1955,-2.1908,-2.1979,-2.1947,-2.1884,-2.1876,-2.1663,-2.142,-2.1412,-2.1174,-2.1091,-2.0996,-2.1004,-2.1012,-2.0925,-2.0925,-2.0925,-2.0925,-2.0925,-2.0925,-2.0925,-2.0925,-2.0925,-2.0925,-2.0925,-2.0925,-2.0925,-2.0925,-2.0925,-2.0925,-2.0925,-2.0925,-2.0925,-2.0925,-2.0925,-2.0925,-2.0925,-2.0925,-2.0925,-2.0925,-2.0925,-1.8635,-1.914,-1.9235,-1.9272,-1.9272,-1.9272,-1.9272,-1.9272,-1.9272,-1.9272,-1.9272,-1.9272,-1.9272,-1.9272,-1.9272,-1.9272,-1.9331,-1.9532,-1.948,-1.9383,-1.9724,-1.9724,-1.9628,-1.968,-1.999,-2.0462,-2.0522,-2.0617,-2.0873,-2.0925,-2.0925,-2.0925,-2.0917,-2.0885,-2.0782,-2.0766,-2.0742,-2.0662,-2.0631,-2.0647,-2.0734,-2.0766,-2.0821,-2.0901,-2.0925,-2.0925,-2.0925,-2.0925,-2.0869,-2.0686,-2.0718,-2.0821,-2.0858,-2.0933,-2.0956,-2.0956,-2.0956,-2.1008,-2.1206,-2.1262,-2.1473,-2.1775,-2.183,-2.1862,-2.1987,-2.2011,-2.2011,-2.2011,-2.2011,-2.2035,-2.2067,-2.2258,-2.2426,-2.2625,-2.2315,-2.2075,-2.2059,-2.2011,-2.2011,-2.1995,-2.1939,-2.1838,-2.1798,-2.1703,-2.1552,-2.1317,-2.1238,-2.1242,-2.1131,-2.0988,-2.0961,-2.0948,-2.0933,-2.0925,-2.0925,-2.0925,-2.0925,-2.0925,-2.0925,-2.0925,-2.0925,-2.0925,-2.0925,-2.0925,-2.0925,-2.0925,-2.0925,-2.0925,-2.0925,-2.0925,-2.0925,-2.0925,-2.0925,-2.0925,-2.0925,-1.8686,-1.9272,-1.9272,-1.9272,-1.9272,-1.9272,-1.9272,-1.9272,-1.9272,-1.9272,-1.9272,-1.9272,-1.9272,-1.9272,-1.9272,-1.9383,-1.948,-1.9635,-1.968,-1.9732,-1.9931,-2.0034,-2.0042,-2.005,-2.0248,-2.0609,-2.0668,-2.0771,-2.0873,-2.0925,-2.0925,-2.0925,-2.0925,-2.0925,-2.0909,-2.0925,-2.0925,-2.0909,-2.0925,-2.0925,-2.0925,-2.0925,-2.0917,-2.0925,-2.0925,-2.0925,-2.0917,-2.1318,-2.1428,-2.1011,-2.0917,-2.0925,-2.0941,-2.1076,-2.1087,-2.1095,-2.1266,-2.1465,-2.16,-2.1663,-2.183,-2.21,-2.2234,-2.233,-2.2378,-2.2402,-2.2402,-2.2426,-2.2402,-2.2402,-2.2426,-2.2593,-2.2791,-2.2895,-2.2641,-2.2402,-2.2402,-2.2426,-2.2457,-2.2425,-2.2275,-2.2172,-2.2172,-2.2123,-2.1939,-2.1719,-2.1663,-2.1568,-2.1449,-2.1266,-2.1087,-2.1139,-2.1036,-2.1004,-2.1012,-2.1012,-2.1004,-2.0996,-2.0925,-2.0925,-2.0925,-2.0925,-2.0925,-2.0925,-2.0925,-2.0925,-2.0925,-2.0925,-2.0925,-2.0925,-2.0925,-2.0925,-2.0925,-2.0925,-2.0925,-1.8664,-1.928,-1.9264,-1.9272,-1.9272,-1.9272,-1.9272,-1.9272,-1.9272,-1.9272,-1.9272,-1.9272,-1.9272,-1.9272,-1.9376,-1.948,-1.968,-1.9835,-1.9983,-2.0086,-2.0241,-2.0248,-2.0462,-2.0418,-2.0565,-2.0814,-2.0925,-2.0873,-2.0925,-2.0925,-2.0925,-2.0925,-2.0925,-2.0925,-2.0925,-2.0925,-2.0925,-2.0925,-2.0925,-2.107,-2.1224,-2.1267,-2.1275,-2.1224,-2.0976,-2.0925,-2.1189,-2.1775,-2.2062,-2.0988,-2.1,-2.1102,-2.1107,-2.1254,-2.1396,-2.1468,-2.1719,-2.1947,-2.2059,-2.2021,-2.2218,-2.2466,-2.2537,-2.2664,-2.2855,-2.2895,-2.2895,-2.2879,-2.3006,-2.2919,-2.2919,-2.299,-2.2982,-2.3006,-2.2974,-2.2998,-2.3014,-2.3014,-2.3014,-2.3006,-2.2712,-2.2577,-2.2458,-2.2291,-2.2131,-2.2053,-2.1997,-2.1902,-2.1767,-2.16,-2.1513,-2.1497,-2.133,-2.1115,-2.1115,-2.1115,-2.1099,-2.1032,-2.0964,-2.0925,-2.0925,-2.0925,-2.0925,-2.0925,-2.0925,-2.0925,-2.0925,-2.0925,-2.0925,-2.0925,-2.0925,-2.0925,-2.0925,-2.0925,-2.0925,-1.8533,-1.8913,-1.9221,-1.9272,-1.9272,-1.9272,-1.9272,-1.9272,-1.9272,-1.9272,-1.9272,-1.9272,-1.9331,-1.9331,-1.9532,-1.9628,-1.9783,-2.0145,-2.0462,-2.066,-2.0506,-2.0565,-2.0719,-2.0617,-2.0668,-2.0873,-2.0925,-2.0925,-2.0925,-2.0925,-2.0925,-2.0925,-2.0925,-2.0925,-2.0925,-2.0925,-2.0925,-2.0925,-2.0925,-2.1326,-2.1869,-2.2021,-2.2038,-2.2004,-2.1401,-2.0941,-2.1186,-2.2289,-2.2431,-2.1726,-2.188,-2.2171,-2.1515,-2.1388,-2.1563,-2.1822,-2.1934,-2.2162,-2.2307,-2.2394,-2.2513,-2.2815,-2.2855,-2.2934,-2.2982,-2.3014,-2.3014,-2.3014,-2.3014,-2.3014,-2.3014,-2.3014,-2.3014,-2.3014,-2.3014,-2.3014,-2.3014,-2.3014,-2.3014,-2.299,-2.2942,-2.2895,-2.2887,-2.2815,-2.2617,-2.2442,-2.237,-2.229,-2.21,-2.1949,-2.1878,-2.1846,-2.1671,-2.1489,-2.1473,-2.1457,-2.1401,-2.1354,-2.1219,-2.1036,-2.1036,-2.0988,-2.1012,-2.098,-2.0925,-2.0925,-2.0925,-2.0925,-2.0925,-2.0925,-2.0925,-2.0925,-2.0925,-2.0925,-2.0925,-1.8357,-1.8796,-1.8979,-1.9133,-1.9264,-1.9272,-1.9272,-1.9272,-1.9272,-1.9272,-1.9272,-1.9272,-1.9376,-1.948,-1.9635,-1.9783,-2.0101,-2.0514,-2.0771,-2.0873,-2.0771,-2.0763,-2.0814,-2.0763,-2.0771,-2.0925,-2.0925,-2.0925,-2.0925,-2.0925,-2.0925,-2.0925,-2.0925,-2.0925,-2.0925,-2.0925,-2.0925,-2.0925,-2.0925,-2.1224,-2.1674,-2.2274,-2.2587,-2.269,-2.2178,-2.1773,-2.1582,-2.3272,-2.3418,-2.3132,-2.3719,-2.3581,-2.2051,-2.1838,-2.2029,-2.2172,-2.2394,-2.2506,-2.2696,-2.2744,-2.2807,-2.2998,-2.3014,-2.3014,-2.3014,-2.3014,-2.3014,-2.3014,-2.3014,-2.3014,-2.3014,-2.3014,-2.3014,-2.3014,-2.3014,-2.3014,-2.3014,-2.3014,-2.3014,-2.3014,-2.3006,-2.2998,-2.3014,-2.3014,-2.2982,-2.2712,-2.2712,-2.2633,-2.2569,-2.2418,-2.2259,-2.2164,-2.2013,-2.1955,-2.1939,-2.19,-2.1775,-2.1719,-2.1624,-2.1425,-2.1238,-2.1159,-2.1079,-2.1036,-2.0925,-2.0925,-2.0925,-2.0925,-2.0925,-2.0925,-2.0925,-2.0925,-2.0925,-2.0925,-2.0925,-1.8138,-1.865,-1.8745,-1.895,-1.9243,-1.925,-1.9272,-1.9272,-1.9272,-1.9272,-1.9324,-1.9331,-1.9472,-1.968,-1.9835,-2.0094,-2.0514,-2.0719,-2.0873,-2.0873,-2.0873,-2.0865,-2.0865,-2.0873,-2.0873,-2.0925,-2.0925,-2.0925,-2.0925,-2.0925,-2.0925,-2.0925,-2.0925,-2.0925,-2.0925,-2.0925,-2.0925,-2.0925,-2.1173,-2.1514,-2.192,-2.2728,-2.3388,-2.3713,-2.3539,-2.3211,-2.3178,-2.4219,-2.4868,-2.3981,-2.5601,-2.4852,-2.3191,-2.2564,-2.2648,-2.2664,-2.2791,-2.2903,-2.2927,-2.2974,-2.299,-2.3014,-2.3014,-2.3014,-2.3014,-2.3014,-2.3014,-2.3014,-2.3014,-2.3014,-2.3014,-2.3014,-2.3014,-2.3014,-2.3014,-2.3014,-2.3014,-2.3014,-2.3014,-2.3014,-2.3014,-2.3014,-2.3014,-2.3014,-2.3014,-2.3014,-2.3014,-2.2998,-2.2911,-2.2823,-2.2633,-2.2561,-2.2442,-2.2386,-2.2378,-2.2218,-2.2108,-2.2045,-2.2035,-2.1775,-2.1576,-2.1528,-2.1409,-2.1044,-2.0925,-2.0933,-2.0933,-2.0925,-2.0925,-2.0925,-2.0925,-2.0925,-2.0925,-2.0925,-2.0948,-1.7874,-1.8021,-1.8562,-1.8825,-1.8913,-1.9155,-1.9279,-1.9272,-1.9324,-1.9331,-1.9331,-1.9524,-1.968,-1.9843,-2.0205,-2.0514,-2.0771,-2.0873,-2.0925,-2.0925,-2.0925,-2.0925,-2.0925,-2.0925,-2.0925,-2.0925,-2.0925,-2.0925,-2.0925,-2.0925,-2.0925,-2.0925,-2.0925,-2.0925,-2.0925,-2.0925,-2.107,-2.1267,-2.1818,-2.256,-2.3302,-2.4319,-2.5157,-2.5503,-2.5223,-2.495,-2.4929,-2.5383,-2.5334,-2.4334,-2.4846,-2.4365,-2.3654,-2.3787,-2.3681,-2.3055,-2.295,-2.3014,-2.3014,-2.3014,-2.3014,-2.3014,-2.3014,-2.3014,-2.3014,-2.3014,-2.3014,-2.3014,-2.3014,-2.3014,-2.3014,-2.3014,-2.3014,-2.3014,-2.3014,-2.3014,-2.3014,-2.3014,-2.3014,-2.3014,-2.3014,-2.3014,-2.3014,-2.3014,-2.3014,-2.3014,-2.3014,-2.3014,-2.2974,-2.2958,-2.2911,-2.2895,-2.2911,-2.2887,-2.2887,-2.2593,-2.241,-2.2355,-2.2259,-2.2077,-2.1926,-2.1894,-2.1703,-2.1354,-2.1076,-2.1004,-2.098,-2.0964,-2.0925,-2.0925,-2.0925,-2.0941,-2.1028,-2.1107,-2.1099,-1.7662,-1.786,-1.8335,-1.8635,-1.8833,-1.9133,-1.9383,-1.9532,-1.9532,-1.9576,-1.9724,-1.9828,-1.9983,-2.0153,-2.0367,-2.0676,-2.0822,-2.0925,-2.0925,-2.0925,-2.0925,-2.0925,-2.0925,-2.0925,-2.0925,-2.0925,-2.0925,-2.0925,-2.0925,-2.0925,-2.0925,-2.0925,-2.0925,-2.0925,-2.107,-2.1522,-2.1674,-2.1979,-2.2769,-2.3619,-2.4242,-2.5379,-2.6338,-2.6732,-2.6756,-2.6437,-2.6197,-2.6805,-2.6849,-2.6619,-2.71,-2.6698,-2.6109,-2.5656,-2.5249,-2.3575,-2.307,-2.3014,-2.3014,-2.3014,-2.3014,-2.3014,-2.3014,-2.3014,-2.3014,-2.3014,-2.3014,-2.3014,-2.3014,-2.3014,-2.3014,-2.3014,-2.3014,-2.3014,-2.3014,-2.3014,-2.3014,-2.3014,-2.3014,-2.3014,-2.3014,-2.3014,-2.3014,-2.3014,-2.3014,-2.3014,-2.3014,-2.3014,-2.3014,-2.3014,-2.3014,-2.3014,-2.3006,-2.3006,-2.3006,-2.2855,-2.2672,-2.2625,-2.2561,-2.2378,-2.2275,-2.2243,-2.2067,-2.1732,-2.1441,-2.1266,-2.1079,-2.1087,-2.1036,-2.098,-2.1115,-2.1227,-2.1266,-2.129,-2.1322,-1.7479,-1.7743,-1.8072,-1.8394,-1.8716,-1.9038,-1.9369,-1.9672,-1.9732,-1.9835,-2.0086,-2.0138,-2.03,-2.0462,-2.0573,-2.0719,-2.0925,-2.0925,-2.0925,-2.0925,-2.0925,-2.0925,-2.0925,-2.0925,-2.0925,-2.0925,-2.1318,-2.1078,-2.0925,-2.0925,-2.0925,-2.1019,-2.1019,-2.1224,-2.1479,-2.2316,-2.2686,-2.3267,-2.3977,-2.4573,-2.5256,-2.6277,-2.7239,-2.7912,-2.8009,-2.7828,-2.7554,-2.7718,-2.8004,-2.8067,-2.8445,-2.8625,-2.7946,-2.7839,-2.6535,-2.4261,-2.356,-2.3408,-2.3352,-2.3014,-2.3014,-2.3014,-2.3014,-2.3014,-2.3014,-2.3014,-2.3014,-2.3014,-2.3014,-2.3014,-2.3014,-2.3014,-2.3014,-2.3014,-2.3014,-2.3014,-2.3014,-2.3014,-2.3014,-2.3014,-2.3014,-2.3014,-2.3014,-2.3014,-2.3014,-2.3014,-2.3014,-2.3014,-2.3014,-2.3014,-2.3014,-2.3014,-2.3014,-2.3014,-2.3014,-2.3014,-2.2895,-2.2863,-2.2831,-2.2728,-2.2649,-2.2593,-2.2339,-2.2132,-2.1918,-2.1743,-2.1491,-2.1333,-2.1385,-2.1417,-2.1473,-2.152,-2.1576,-2.164,-2.174,-1.7301,-1.7366,-1.7735,-1.8064,-1.8386,-1.8766,-1.9221,-1.9702,-1.9768,-1.9828,-2.0189,-2.0351,-2.047,-2.0573,-2.0771,-2.0865,-2.0865,-2.0925,-2.0925,-2.0925,-2.0925,-2.0925,-2.0925,-2.0925,-2.1019,-2.1173,-2.1869,-2.1674,-2.1471,-2.1267,-2.107,-2.1267,-2.1971,-2.2325,-2.2417,-2.3482,-2.4081,-2.4656,-2.5593,-2.6685,-2.7753,-2.8421,-2.8809,-2.9075,-2.9341,-2.9409,-2.9049,-2.8784,-2.8392,-2.8286,-2.7463,-2.7032,-2.6698,-2.6698,-2.6599,-2.5891,-2.525,-2.462,-2.4454,-2.3792,-2.3344,-2.34,-2.3127,-2.3014,-2.3014,-2.3014,-2.3014,-2.3014,-2.3014,-2.3014,-2.3014,-2.3014,-2.3014,-2.3014,-2.3014,-2.3014,-2.3014,-2.3014,-2.3014,-2.3014,-2.3014,-2.3014,-2.3014,-2.3014,-2.3014,-2.3014,-2.3014,-2.3014,-2.3014,-2.3014,-2.3014,-2.3014,-2.3014,-2.3014,-2.3014,-2.3014,-2.3014,-2.3014,-2.3006,-2.2982,-2.2903,-2.2815,-2.2887,-2.2672,-2.2442,-2.222,-2.2045,-2.1918,-2.1908,-2.1806,-2.1806,-2.1846,-2.1955,-2.2027,-2.2147,-1.7286,-1.7362,-1.7827,-1.8097,-1.8338,-1.897,-1.9479,-1.9834,-2.0069,-2.03,-2.0557,-2.0668,-2.0719,-2.0771,-2.0865,-2.0925,-2.0925,-2.0925,-2.0925,-2.0925,-2.0925,-2.0925,-2.0925,-2.0968,-2.1121,-2.1827,-2.2274,-2.2761,-2.2509,-2.2702,-2.2693,-2.2702,-2.3103,-2.3402,-2.3573,-2.4734,-2.537,-2.5989,-2.6923,-2.8035,-2.8776,-2.9208,-2.9435,-2.9673,-2.9891,-2.9973,-2.9837,-2.9606,-2.9217,-2.9164,-2.8615,-2.8509,-2.8509,-2.8509,-2.8518,-2.8402,-2.7365,-2.6509,-2.5744,-2.4659,-2.4437,-2.4373,-2.3888,-2.3014,-2.3014,-2.3014,-2.3014,-2.3014,-2.3014,-2.3014,-2.307,-2.3014,-2.3014,-2.3014,-2.3014,-2.3014,-2.3014,-2.3014,-2.3014,-2.3014,-2.3014,-2.3014,-2.3014,-2.3014,-2.3014,-2.3014,-2.3014,-2.3014,-2.3014,-2.3014,-2.3014,-2.3014,-2.3014,-2.3014,-2.3014,-2.3014,-2.3014,-2.3014,-2.3014,-2.3006,-2.3006,-2.2998,-2.3014,-2.3014,-2.2807,-2.2633,-2.2506,-2.2267,-2.2091,-2.2115,-2.217,-2.2196,-2.2283,-2.2506,-2.2601,-1.7426,-1.7542,-1.7943,-1.814,-1.8348,-1.9049,-1.9602,-1.9988,-2.0214,-2.0582,-2.0858,-2.0873,-2.0873,-2.0925,-2.0865,-2.0925,-2.0925,-2.0925,-2.0925,-2.0925,-2.0925,-2.0925,-2.0925,-2.0968,-2.1471,-2.2526,-2.287,-2.3452,-2.4295,-2.4639,-2.463,-2.4187,-2.4285,-2.4575,-2.5022,-2.5984,-2.6844,-2.7352,-2.8299,-2.9054,-2.9425,-2.9487,-2.9694,-2.988,-2.9994,-2.9994,-2.9994,-2.9942,-2.9942,-2.9879,-2.9827,-2.9669,-2.9722,-2.9617,-2.9669,-2.9501,-2.8794,-2.8242,-2.7267,-2.6345,-2.5899,-2.5571,-2.4918,-2.3624,-2.3512,-2.3287,-2.3296,-2.3512,-2.3127,-2.3239,-2.3352,-2.3296,-2.3014,-2.3014,-2.3014,-2.3014,-2.3014,-2.3014,-2.3014,-2.3014,-2.3014,-2.3014,-2.3014,-2.3014,-2.3014,-2.3014,-2.3014,-2.3014,-2.3014,-2.3014,-2.3014,-2.3014,-2.3014,-2.3014,-2.3014,-2.3014,-2.3014,-2.3014,-2.3014,-2.3014,-2.3014,-2.3014,-2.3014,-2.3014,-2.3014,-2.2942,-2.2752,-2.2474,-2.229,-2.2402,-2.2545,-2.2585,-2.2696,-2.2903,-2.2982,-1.7815,-1.8048,-1.7845,-1.808,-1.8583,-1.8628,-1.9228,-1.9995,-2.0023,-2.0401,-2.085,-2.0925,-2.0925,-2.0925,-2.0925,-2.0925,-2.0925,-2.0925,-2.0925,-2.0925,-2.0925,-2.0925,-2.0925,-2.107,-2.1514,-2.2619,-2.3361,-2.4393,-2.5538,-2.6274,-2.5577,-2.4492,-2.5362,-2.5829,-2.6349,-2.7181,-2.8125,-2.8706,-2.9446,-2.9725,-2.9849,-2.988,-2.9932,-2.9963,-2.9994,-2.9994,-2.9994,-2.9994,-2.9994,-2.9994,-2.9994,-2.9994,-2.9994,-2.9994,-2.9994,-2.9889,-2.9774,-2.9396,-2.8847,-2.7527,-2.6599,-2.6118,-2.558,-2.4834,-2.4659,-2.3616,-2.368,-2.439,-2.3888,-2.3728,-2.3896,-2.3792,-2.3127,-2.3014,-2.3014,-2.3014,-2.3014,-2.3014,-2.3014,-2.3014,-2.3014,-2.3014,-2.3014,-2.3014,-2.3014,-2.3014,-2.3014,-2.3014,-2.3014,-2.3014,-2.3014,-2.3014,-2.3014,-2.3014,-2.3014,-2.3014,-2.3014,-2.3014,-2.3014,-2.3014,-2.3014,-2.3014,-2.3014,-2.3014,-2.3014,-2.3014,-2.3006,-2.2768,-2.2672,-2.2863,-2.295,-2.2863,-2.2839,-2.2958,-2.3006,-1.8094,-1.8334,-1.8241,-1.8318,-1.8551,-1.8941,-1.9389,-1.9911,-2.0156,-2.0498,-2.0925,-2.0925,-2.0925,-2.0925,-2.0925,-2.0925,-2.0925,-2.0925,-2.0925,-2.0925,-2.0925,-2.0925,-2.0925,-2.1173,-2.1768,-2.3153,-2.3989,-2.5129,-2.661,-2.7013,-2.6918,-2.6468,-2.6641,-2.7016,-2.7584,-2.8174,-2.9053,-2.9518,-2.987,-2.9994,-2.9994,-2.9994,-2.9994,-2.9994,-2.9994,-2.9994,-2.9994,-2.9994,-2.9994,-2.9994,-2.9994,-2.9994,-2.9994,-2.9994,-2.9994,-2.9994,-2.9994,-2.9994,-2.9827,-2.8455,-2.7302,-2.6707,-2.6662,-2.6554,-2.5954,-2.5296,-2.5296,-2.5351,-2.4816,-2.4548,-2.4509,-2.3792,-2.3014,-2.3014,-2.3014,-2.3014,-2.3014,-2.3014,-2.3014,-2.3014,-2.3014,-2.3014,-2.3014,-2.3014,-2.3014,-2.3014,-2.3014,-2.3014,-2.3014,-2.3014,-2.3014,-2.3014,-2.3014,-2.3014,-2.3014,-2.3014,-2.3014,-2.3014,-2.3014,-2.3014,-2.3014,-2.3014,-2.3014,-2.3014,-2.3014,-2.3014,-2.3014,-2.3014,-2.3014,-2.3006,-2.3006,-2.299,-2.2998,-2.3014,-2.3014,-1.8381,-1.8566,-1.8612,-1.862,-1.8651,-1.9012,-1.9455,-1.9789,-2.0083,-2.0512,-2.0909,-2.0925,-2.0925,-2.0925,-2.0925,-2.0925,-2.0925,-2.0925,-2.0925,-2.0925,-2.0925,-2.0925,-2.0925,-2.1216,-2.1962,-2.3601,-2.3899,-2.4688,-2.7109,-2.6965,-2.702,-2.7331,-2.7883,-2.8002,-2.8249,-2.9021,-2.9673,-2.9911,-2.9994,-2.9994,-2.9994,-2.9994,-2.9994,-2.9994,-2.9994,-2.9994,-2.9994,-2.9994,-2.9994,-2.9994,-2.9994,-2.9994,-2.9994,-2.9994,-2.9994,-2.9994,-2.9994,-2.9994,-2.9774,-2.928,-2.8402,-2.8072,-2.7741,-2.7634,-2.7194,-2.6752,-2.6318,-2.6861,-2.6009,-2.5368,-2.5487,-2.477,-2.384,-2.384,-2.3127,-2.3014,-2.3014,-2.3014,-2.3014,-2.3014,-2.3014,-2.3014,-2.3014,-2.3014,-2.3014,-2.3014,-2.3014,-2.3014,-2.3014,-2.3014,-2.3014,-2.3014,-2.3014,-2.3014,-2.3014,-2.3014,-2.3014,-2.3014,-2.3014,-2.3014,-2.3014,-2.3014,-2.3014,-2.3014,-2.3014,-2.3014,-2.3014,-2.3014,-2.3014,-2.3014,-2.3014,-2.3014,-2.3014,-2.3014,-2.3014,-1.8612,-1.8781,-1.8781,-1.8781,-1.8781,-1.8789,-1.9074,-1.9519,-1.9869,-2.0321,-2.0885,-2.0925,-2.0925,-2.0925,-2.0925,-2.0925,-2.0925,-2.0925,-2.0925,-2.0925,-2.0925,-2.0925,-2.0925,-2.1173,-2.1869,-2.3302,-2.3511,-2.4353,-2.6965,-2.638,-2.6619,-2.76,-2.8138,-2.8649,-2.87,-2.9508,-2.9953,-2.9994,-2.9994,-2.9994,-2.9994,-2.9994,-2.9994,-2.9994,-2.9994,-2.9994,-2.9994,-2.9994,-2.9994,-2.9994,-2.9994,-2.9994,-2.9994,-2.9994,-2.9994,-2.9994,-2.9994,-2.9994,-2.9942,-2.9942,-2.9669,-2.9333,-2.889,-2.8392,-2.8009,-2.7527,-2.7248,-2.8019,-2.714,-2.7032,-2.6771,-2.6073,-2.4991,-2.4223,-2.3568,-2.3014,-2.3014,-2.3014,-2.3014,-2.3014,-2.3014,-2.3014,-2.3014,-2.3014,-2.3014,-2.3014,-2.3014,-2.3014,-2.3014,-2.3014,-2.3014,-2.3014,-2.3014,-2.3014,-2.3014,-2.3014,-2.3014,-2.3014,-2.3014,-2.3014,-2.3014,-2.3014,-2.3014,-2.3014,-2.3014,-2.3014,-2.3014,-2.3014,-2.3014,-2.3014,-2.3014,-2.3014,-2.3014,-2.3014,-2.3014,-1.8743,-1.8781,-1.8781,-1.8781,-1.8781,-1.8781,-1.9034,-1.9439,-1.9955,-2.048,-2.0845,-2.0925,-2.0925,-2.0925,-2.0925,-2.0925,-2.0925,-2.0925,-2.0925,-2.0925,-2.0925,-2.0925,-2.0925,-2.107,-2.1717,-2.2568,-2.2778,-2.3261,-2.508,-2.5441,-2.6094,-2.6973,-2.8408,-2.9167,-2.9497,-2.9911,-2.9994,-2.9994,-2.9994,-2.9994,-2.9994,-2.9994,-2.9994,-2.9994,-2.9994,-2.9994,-2.9994,-2.9994,-2.9994,-2.9994,-2.9994,-2.9994,-2.9994,-2.9994,-2.9994,-2.9994,-2.9994,-2.9994,-2.9994,-2.9994,-2.9994,-2.9827,-2.9647,-2.9321,-2.928,-2.9122,-2.9175,-2.9003,-2.8242,-2.8062,-2.7688,-2.5981,-2.4898,-2.4501,-2.384,-2.3239,-2.3014,-2.3014,-2.3014,-2.3014,-2.3014,-2.3014,-2.3014,-2.3014,-2.3014,-2.3014,-2.3014,-2.3014,-2.3014,-2.3014,-2.3014,-2.3014,-2.3014,-2.3014,-2.3014,-2.3014,-2.3014,-2.3014,-2.3014,-2.3014,-2.3014,-2.3014,-2.3014,-2.3014,-2.3014,-2.3014,-2.3014,-2.3014,-2.3014,-2.3014,-2.3014,-2.3014,-2.3014,-2.3014,-2.3014,-1.8781,-1.8781,-1.8781,-1.8781,-1.8781,-1.8781,-1.9034,-1.9431,-1.9971,-2.0408,-2.0702,-2.0853,-2.0925,-2.0925,-2.0925,-2.0925,-2.0925,-2.0925,-2.0925,-2.0925,-2.0925,-2.0925,-2.0925,-2.0968,-2.1573,-2.2224,-2.2619,-2.3261,-2.4943,-2.5431,-2.634,-2.7502,-2.8553,-2.9384,-2.9808,-2.9973,-2.9994,-2.9994,-2.9994,-2.9994,-2.9994,-2.9994,-2.9994,-2.9994,-2.9994,-2.9994,-2.9994,-2.9994,-2.9994,-2.9994,-2.9994,-2.9994,-2.9994,-2.9994,-2.9994,-2.9994,-2.9994,-2.9994,-2.9994,-2.9994,-2.9994,-2.9942,-3.0118,-3.0232,-3.0284,-3.0237,-3.0362,-3.0095,-2.9256,-2.9158,-2.8716,-2.6774,-2.5375,-2.5047,-2.424,-2.3586,-2.3165,-2.3181,-2.3038,-2.303,-2.3014,-2.3014,-2.3014,-2.3014,-2.3014,-2.3014,-2.3014,-2.3014,-2.3014,-2.3014,-2.3014,-2.3014,-2.3014,-2.3014,-2.3014,-2.3014,-2.3014,-2.3014,-2.3014,-2.3014,-2.3014,-2.3014,-2.3014,-2.3014,-2.3014,-2.3014,-2.3014,-2.3014,-2.3014,-2.3014,-2.3014,-2.3014,-2.3014,-2.3014,-2.3014,-1.8781,-1.8781,-1.8781,-1.8781,-1.8781,-1.8781,-1.9042,-1.9391,-1.9789,-2.0083,-2.0424,-2.079,-2.0917,-2.0925,-2.0925,-2.0925,-2.0925,-2.0925,-2.0925,-2.0925,-2.0925,-2.0925,-2.0925,-2.0976,-2.1428,-2.203,-2.2577,-2.3261,-2.5304,-2.5771,-2.6744,-2.8073,-2.8879,-2.9456,-2.9766,-2.9953,-2.9973,-2.9994,-2.9994,-2.9994,-2.9994,-2.9994,-2.9994,-2.9994,-2.9994,-2.9994,-2.9994,-2.9994,-2.9994,-2.9994,-2.9994,-2.9994,-2.9994,-2.9994,-2.9994,-2.9994,-2.9994,-2.9994,-2.9994,-2.9994,-3.0087,-3.018,-3.0501,-3.0636,-3.0729,-3.0874,-3.1019,-3.0853,-3.0202,-3.0488,-3.0329,-2.8295,-2.6276,-2.5551,-2.4622,-2.4023,-2.3508,-2.3267,-2.3125,-2.3046,-2.3022,-2.3014,-2.3014,-2.3014,-2.3014,-2.3014,-2.3014,-2.3014,-2.3014,-2.3014,-2.3014,-2.3014,-2.3014,-2.3014,-2.3014,-2.3014,-2.3014,-2.3014,-2.3014,-2.3014,-2.3014,-2.3014,-2.3014,-2.3014,-2.3014,-2.3014,-2.3014,-2.3014,-2.3014,-2.3014,-2.3014,-2.3014,-2.3014,-2.3014,-2.3014,-1.8781,-1.8781,-1.8781,-1.8781,-1.8781,-1.8781,-1.9042,-1.9391,-1.9773,-2.0059,-2.0416,-2.0766,-2.0893,-2.0925,-2.0925,-2.0925,-2.0925,-2.0925,-2.0925,-2.0925,-2.0925,-2.0925,-2.0917,-2.0968,-2.1173,-2.1623,-2.2224,-2.317,-2.389,-2.4973,-2.6733,-2.7955,-2.8826,-2.9301,-2.958,-2.9829,-2.9942,-2.9994,-2.9994,-2.9994,-2.9994,-2.9994,-2.9994,-2.9994,-2.9994,-2.9994,-2.9994,-2.9994,-2.9994,-2.9994,-2.9994,-2.9994,-2.9994,-2.9994,-2.9994,-2.9994,-2.9994,-2.9994,-2.9994,-2.9994,-3.0118,-3.045,-3.0874,-3.0884,-3.0946,-3.1143,-3.1454,-3.1316,-3.0939,-3.0924,-3.0234,-2.8492,-2.6933,-2.5936,-2.5053,-2.4222,-2.3729,-2.3441,-2.3235,-2.3038,-2.3014,-2.3014,-2.3014,-2.3014,-2.3014,-2.3014,-2.3014,-2.3014,-2.3014,-2.3014,-2.3014,-2.3014,-2.3014,-2.3014,-2.3014,-2.3014,-2.3014,-2.3014,-2.3014,-2.3014,-2.3014,-2.3014,-2.3014,-2.3014,-2.3014,-2.3014,-2.3014,-2.3014,-2.3014,-2.3014,-2.3014,-2.3014,-2.3014,-2.3014,-2.3014,-1.8654,-1.8773,-1.8781,-1.8781,-1.8781,-1.8781,-1.8962,-1.9201,-1.9519,-1.9917,-2.021,-2.0543,-2.079,-2.0917,-2.0925,-2.0925,-2.0925,-2.0925,-2.0925,-2.0925,-2.0925,-2.0925,-2.0917,-2.1267,-2.1623,-2.1971,-2.287,-2.4115,-2.4229,-2.5457,-2.725,-2.7909,-2.8711,-2.9063,-2.9384,-2.9746,-2.9973,-2.9994,-2.9994,-2.9994,-2.9994,-2.9994,-2.9994,-2.9994,-2.9994,-2.9994,-2.9994,-2.9994,-2.9994,-2.9994,-2.9994,-2.9994,-2.9994,-2.9994,-2.9994,-2.9994,-2.9994,-2.9994,-2.9994,-2.9994,-3.0263,-3.0646,-3.1112,-3.1298,-3.1505,-3.1754,-3.193,-3.1865,-3.1355,-3.0787,-2.966,-2.8542,-2.745,-2.6345,-2.5317,-2.43,-2.3951,-2.3647,-2.3411,-2.3101,-2.3014,-2.3014,-2.3014,-2.3014,-2.3014,-2.3014,-2.3014,-2.3014,-2.3014,-2.3014,-2.3014,-2.3014,-2.3014,-2.3014,-2.3014,-2.3014,-2.3014,-2.3014,-2.3014,-2.3014,-2.3014,-2.3014,-2.3014,-2.3014,-2.3014,-2.3014,-2.3014,-2.3014,-2.3014,-2.3014,-2.3014,-2.3014,-2.3014,-2.3014,-2.3014,-1.8494,-1.8734,-1.8812,-1.8781,-1.8781,-1.8781,-1.8835,-1.8859,-1.9193,-1.9582,-1.9949,-2.0249,-2.0623,-2.0869,-2.0925,-2.0925,-2.0925,-2.0925,-2.0925,-2.0925,-2.0925,-2.0925,-2.1224,-2.1869,-2.2072,-2.307,-2.4214,-2.5197,-2.5877,-2.6673,-2.7359,-2.7893,-2.8421,-2.8825,-2.9166,-2.9735,-2.9984,-2.9994,-2.9994,-2.9994,-2.9994,-2.9994,-2.9994,-2.9994,-2.9994,-2.9994,-2.9994,-2.9994,-2.9994,-2.9994,-2.9994,-2.9994,-2.9994,-2.9994,-2.9994,-2.9994,-2.9994,-2.9994,-2.9994,-2.9994,-3.0263,-3.0657,-3.1102,-3.1485,-3.1795,-3.2178,-3.2364,-3.2293,-3.1834,-3.0891,-2.9756,-2.8698,-2.7588,-2.638,-2.5277,-2.4635,-2.4293,-2.3912,-2.3354,-2.3141,-2.3014,-2.3014,-2.3014,-2.3014,-2.3014,-2.3014,-2.3014,-2.3014,-2.3014,-2.3014,-2.3014,-2.3014,-2.3014,-2.3014,-2.3014,-2.3014,-2.3014,-2.3014,-2.3014,-2.3014,-2.3014,-2.3014,-2.3014,-2.3014,-2.3014,-2.3014,-2.3014,-2.3014,-2.3014,-2.3014,-2.3014,-2.3014,-2.3014,-2.3014,-2.3014,-1.8351,-1.8462,-1.8724,-1.8781,-1.8781,-1.8781,-1.8781,-1.8789,-1.8915,-1.9312,-1.9901,-2.0226,-2.0575,-2.0845,-2.0909,-2.0925,-2.0925,-2.0925,-2.0925,-2.0925,-2.0925,-2.0925,-2.1121,-2.1979,-2.2426,-2.317,-2.4452,-2.6177,-2.6726,-2.7139,-2.7372,-2.7521,-2.8121,-2.8669,-2.8897,-2.9528,-2.9922,-2.9984,-2.9994,-2.9994,-2.9994,-2.9994,-2.9994,-2.9994,-2.9994,-2.9994,-2.9994,-2.9994,-2.9994,-2.9994,-2.9994,-2.9994,-2.9994,-2.9994,-2.9994,-2.9994,-2.9994,-2.9994,-2.9994,-3.0025,-3.0243,-3.0646,-3.1091,-3.1557,-3.2002,-3.2468,-3.2649,-3.2534,-3.2008,-3.0946,-2.9816,-2.8742,-2.7607,-2.6374,-2.5261,-2.4939,-2.4611,-2.4047,-2.3451,-2.3236,-2.3077,-2.3014,-2.3014,-2.3014,-2.3014,-2.3014,-2.3014,-2.3014,-2.3014,-2.3014,-2.3014,-2.3014,-2.3014,-2.3014,-2.3014,-2.3014,-2.3014,-2.3014,-2.3014,-2.3014,-2.3014,-2.3014,-2.3014,-2.3014,-2.3014,-2.3014,-2.3014,-2.3014,-2.3014,-2.3014,-2.3014,-2.3014,-2.3014,-2.3014,-2.3014,-1.816,-1.8335,-1.8676,-1.8781,-1.8781,-1.8781,-1.8781,-1.8781,-1.8781,-1.9137,-1.9646,-2.006,-2.0361,-2.071,-2.0837,-2.0925,-2.0925,-2.0925,-2.0925,-2.0925,-2.0925,-2.0925,-2.1326,-2.203,-2.282,-2.356,-2.5333,-2.6822,-2.7262,-2.732,-2.7351,-2.7423,-2.7986,-2.8431,-2.8649,-2.9321,-2.9818,-2.9984,-2.9984,-2.9994,-2.9994,-2.9994,-2.9994,-2.9994,-2.9994,-2.9994,-2.9994,-2.9994,-2.9994,-2.9994,-2.9994,-2.9994,-2.9994,-2.9994,-2.9994,-2.9994,-2.9994,-2.9994,-2.9994,-3.0056,-3.0212,-3.0615,-3.0853,-3.1236,-3.1919,-3.2297,-3.2483,-3.239,-3.17,-3.0645,-2.9335,-2.8206,-2.6952,-2.5737,-2.5216,-2.4974,-2.4611,-2.4166,-2.3705,-2.3346,-2.322,-2.3014,-2.3014,-2.3014,-2.3014,-2.3014,-2.3014,-2.3014,-2.3014,-2.3014,-2.3014,-2.3014,-2.3014,-2.3014,-2.3014,-2.3014,-2.3014,-2.3014,-2.3014,-2.3014,-2.3014,-2.3014,-2.3014,-2.3014,-2.3014,-2.3014,-2.3014,-2.3014,-2.3014,-2.3014,-2.3014,-2.3014,-2.3014,-2.3014,-2.3014,-1.7982,-1.8319,-1.8676,-1.8781,-1.8781,-1.8781,-1.8781,-1.8781,-1.8781,-1.8994,-1.9312,-1.9702,-2.0011,-2.0408,-2.075,-2.0853,-2.0925,-2.0925,-2.0925,-2.0925,-2.0925,-2.0925,-2.1369,-2.2173,-2.3402,-2.4786,-2.637,-2.6918,-2.732,-2.732,-2.734,-2.7403,-2.7696,-2.8082,-2.8566,-2.9052,-2.9508,-2.9766,-2.988,-2.9984,-2.9994,-2.9994,-2.9994,-2.9994,-2.9994,-2.9994,-2.9994,-2.9994,-2.9994,-2.9994,-2.9994,-2.9994,-2.9994,-2.9994,-2.9994,-2.9994,-2.9994,-2.9994,-2.9994,-3.0005,-3.0232,-3.047,-3.0594,-3.0998,-3.1681,-3.2002,-3.2199,-3.2029,-3.1387,-3.0636,-2.9325,-2.8325,-2.7073,-2.6059,-2.5774,-2.5335,-2.4972,-2.455,-2.4079,-2.3669,-2.33,-2.307,-2.3014,-2.3014,-2.3014,-2.3014,-2.3014,-2.3014,-2.3014,-2.3014,-2.3014,-2.3014,-2.3014,-2.3014,-2.3014,-2.3014,-2.3014,-2.3014,-2.3014,-2.3014,-2.3014,-2.3014,-2.3014,-2.3014,-2.3014,-2.3014,-2.3014,-2.3014,-2.3014,-2.3014,-2.3014,-2.3014,-2.3014,-2.3014,-2.3014,-1.7739,-1.8327,-1.8631,-1.8781,-1.8781,-1.8781,-1.8781,-1.8781,-1.8781,-1.8875,-1.9034,-1.9391,-1.9829,-2.04,-2.0758,-2.0909,-2.0925,-2.0925,-2.0925,-2.0925,-2.0925,-2.0925,-2.142,-2.271,-2.4786,-2.6071,-2.687,-2.7167,-2.732,-2.732,-2.732,-2.7351,-2.7676,-2.7937,-2.8152,-2.8711,-2.9321,-2.957,-2.9849,-2.9994,-2.9994,-2.9994,-2.9994,-2.9994,-2.9994,-2.9994,-2.9994,-2.9994,-2.9994,-2.9994,-2.9994,-2.9994,-2.9994,-2.9994,-2.9994,-2.9994,-2.9994,-2.9994,-2.9994,-2.9994,-3.0191,-3.0201,-3.0367,-3.0667,-3.1164,-3.1402,-3.1692,-3.2116,-3.1613,-3.1359,-3.0403,-2.9914,-2.892,-2.8146,-2.764,-2.6816,-2.6253,-2.5511,-2.4779,-2.4039,-2.3276,-2.3109,-2.3014,-2.3014,-2.3014,-2.3014,-2.3014,-2.3014,-2.3014,-2.3014,-2.3014,-2.3014,-2.3014,-2.3014,-2.3014,-2.3014,-2.3014,-2.3014,-2.3014,-2.3014,-2.3014,-2.3014,-2.3014,-2.3014,-2.3014,-2.3014,-2.3014,-2.3014,-2.3014,-2.3014,-2.3014,-2.3014,-2.3014,-2.3014,-2.3014]},{"header":{"parameterUnit":"m.s-1","parameterCategory":1,"la1":31.0,"la2":29.5877,"lo1":-88.7671,"lo2":-86.6584,"dy":0.0162,"dx":0.0185,"nx":115,"ny":88,"refTime":"2025-11-05T12:00:00:Z","depth":0,"parameterNumber":3,"parameterNumberName":"V-component_of_WINDS"},"data":[0.0,0.0,0.0,0.0,0.0,0.0,0.0,0.0,0.0,0.0,0.0,0.0,0.0,0.0,0.0,0.0,0.0,0.0,0.0,0.0,0.0,0.0,0.0,0.0,0.0,0.0,0.0,0.0,0.0,0.0,0.0,0.0,0.0,0.0,0.0,0.0,0.0,0.0,0.0,0.0,0.0,0.0,0.0,0.0,0.0,0.0,0.0,0.0,0.0,0.0,0.0,0.0,0.0,0.0,0.0,0.0,0.0,0.0,0.0,0.0,0.0,0.0,0.0,0.0,0.0,0.0,0.0,0.0,0.0,0.0,0.0,0.0,0.0,0.0,0.0,0.0,0.0,0.0,0.0,0.0,0.0,0.0,0.0,0.0,0.0,0.0,0.0,0.0,0.0,0.0,0.0,0.0,0.0,0.0,0.0,0.0,0.0,0.0,0.0,0.0,0.0,0.0,0.0,0.0,0.0,0.0,0.0,0.0,0.0,0.0,0.0,0.0,0.0,0.0,0.0,0.0,0.0,0.0,0.0,0.0,0.0,0.0,0.0,0.0,0.0,0.0,0.0,0.0,0.0,0.0,0.0,0.0,0.0,0.0,0.0,0.0,0.0,0.0,0.0,0.0,0.0,0.0,0.0,0.0,0.0,0.0,0.0,0.0,0.0,0.0,0.0,0.0,0.0,0.0,0.0,0.0,0.0,0.0,0.0,0.0,0.0,0.0,0.0,0.0,0.0,0.0,0.0,0.0,0.0,0.0,0.0,0.0,0.0,0.0,0.0,0.0,0.0,0.0,0.0,0.0,0.0,0.0,0.0,0.0,0.0,0.0,0.0,0.0,0.0,0.0,0.0,0.0,0.0,0.0,0.0,0.0,0.0,0.0,0.0,0.0,0.0,0.0,0.0,0.0,0.0,0.0,0.0,0.0,0.0,0.0,0.0,0.0,0.0,0.0,0.0,0.0,0.0,0.0,0.0,0.0,0.0,0.0,0.0,0.0,0.0,0.0,0.0,0.0,0.0,0.0,0.0,0.0,0.0,0.0,0.0,0.0,0.0,0.0,0.0,0.0,0.0,0.0,0.0,0.0,0.0,0.0,0.0,0.0,0.0,0.0,0.0,0.0,0.0,0.0,0.0,0.0,0.0,0.0,0.0,0.0,0.0,0.0,0.0,0.0,0.0,0.0,0.0,0.0,0.0,0.0,0.0,0.0,0.0,0.0,0.0,0.0,0.0,0.0,0.0,0.0,0.0,0.0,0.0,0.0,0.0,0.0,0.0,0.0,0.0,0.0,0.0,0.0,0.0,0.0,0.0,0.0,0.0,0.0,0.0,0.0,0.0,0.0,0.0,0.0,0.0,0.0,0.0,0.0,0.0,0.0,0.0,0.0,0.0,0.0,0.0,0.0,0.0,0.0,0.0,0.0,0.0,0.0,0.0,0.0,0.0,0.0,0.0,0.0,0.0,0.0,0.0,0.0,0.0,0.0,0.0,0.0,0.0,0.0,0.0,0.0,0.0,0.0,0.0,0.0,0.0,0.0,0.0,0.0,0.0,0.0,0.0,0.0,0.0,0.0,0.0,0.0,0.0,0.0,0.0,0.0,0.0,0.0,0.0,0.0,0.0,0.0,0.0,0.0,0.0,0.0,0.0,0.0,0.0,0.0,0.0,0.0,0.0,0.0,0.0,0.0,0.0,0.0,0.0,0.0,0.0,0.0,0.0,0.0,0.0,0.0,0.0,0.0,0.0,0.0,0.0,0.0,0.0,0.0,0.0,0.0,0.0,0.0,0.0,0.0,0.0,0.0,0.0,0.0,0.0,0.0,0.0,0.0,0.0,0.0,0.0,0.0,0.0,0.0,0.0,0.0,0.0,0.0,0.0,0.0,0.0,0.0,0.0,0.0,0.0,0.0,0.0,0.0,0.0,0.0,0.0,0.0,0.0,0.0,0.0,0.0,0.0,0.0,0.0,0.0,0.0,0.0,0.0,0.0,0.0,0.0,0.0,0.0,0.0,0.0,0.0,0.0,0.0,0.0,0.0,0.0,0.0,0.0,0.0,0.0,0.0,0.0,0.0,0.0,0.0,0.0,0.0,0.0,0.0,0.0,0.0,0.0,0.0,0.0,0.0,0.0,0.0,0.0,0.0,0.0,0.0,0.0,0.0,0.0,0.0,0.0,0.0,0.0,0.0,0.0,0.0,0.0,0.0,0.0,0.0,0.0,0.0,0.0,0.0,0.0,0.0,0.0,0.0,0.0,0.0,0.0,0.0,0.0,0.0,0.0,0.0,0.0,0.0,0.0,0.0,0.0,0.0,0.0,0.0,0.0,0.0,0.0,0.0,0.0,0.0,0.0,0.0,0.0,0.0,0.0,0.0,0.0,0.0,0.0,0.0,0.0,0.0,0.0,0.0,0.0,0.0,0.0,0.0,0.0,0.0,0.0,0.0,0.0,0.0,0.0,0.0,0.0,0.0,0.0,0.0,0.0,0.0,0.0,0.0,0.0,0.0,0.0,0.0,0.0,0.0,0.0,0.0,0.0,0.0,0.0,0.0,0.0,0.0,0.0,0.0,0.0,0.0,0.0,0.0,0.0,0.0,0.0,0.0,0.0,0.0,0.0,0.0,0.0,0.0,0.0,0.0,0.0,0.0,0.0,0.0,0.0,0.0,0.0,0.0,0.0,0.0,0.0,0.0,0.0,0.0,0.0,0.0,0.0,0.0,0.0,0.0,0.0,0.0,0.0,0.0,0.0,0.0,0.0,0.0,0.0,0.0,0.0,0.0,0.0,0.0,0.0,0.0,0.0,0.0,0.0,0.0,0.0,0.0,0.0,0.0,0.0,0.0,0.0,0.0,0.0,0.0,0.0,0.0,0.0,0.0,0.0,0.0,0.0,0.0,0.0,0.0,0.0,0.0,0.0,0.0,0.0,0.0,0.0,0.0,0.0,0.0,0.0,0.0,0.0,0.0,0.0,0.0,0.0,0.0,0.0,0.0,0.0,0.0,0.0,0.0,0.0,0.0,0.0,0.0,0.0,0.0,0.0,0.0,0.0,0.0,0.0,0.0,0.0,0.0,0.0,0.0,0.0,0.0,0.0,0.0,0.0,0.0,0.0,0.0,0.0,0.0,0.0,0.0,0.0,0.0,0.0,0.0,0.0,0.0,0.0,0.0,0.0,0.0,0.0,0.0,0.0,0.0,0.0,0.0,0.0,0.0,0.0,0.0,0.0,0.0,0.0,0.0,0.0,0.0,0.0,0.0,0.0,0.0,0.0,0.0,0.0,0.0,0.0,0.0,0.0,0.0,0.0,0.0,0.0,0.0,0.0,0.0,0.0,0.0,0.0,0.0,0.0,0.0,0.0,0.0,0.0,0.0,0.0,0.0,0.0,0.0,0.0,0.0,0.0,0.0,0.0,0.0,0.0,0.0,0.0,0.0,0.0,0.0,0.0,0.0,0.0,0.0,0.0,0.0,0.0,0.0,0.0,0.0,0.0,0.0,0.0,0.0,0.0,0.0,0.0,0.0,0.0,0.0,0.0,0.0,0.0,0.0,0.0,0.0,0.0,0.0,0.0,0.0,0.0,0.0,0.0,0.0,0.0,0.0,0.0,0.0,0.0,0.0,0.0,0.0,0.0,0.0,0.0,0.0,0.0,0.0,0.0,0.0,0.0,0.0,0.0,0.0,0.0,0.0,0.0,0.0,0.0,0.0,0.0,0.0,0.0,0.0,0.0,0.0,0.0,0.0,0.0,0.0,0.0,0.0,0.0,0.0,0.0,0.0,0.0,0.0,0.0,0.0,0.0,0.0,0.0,0.0,0.0,0.0,0.0,0.0,0.0,0.0,0.0,0.0,0.0,0.0,0.0,0.0,0.0,0.0,0.0,0.0,0.0,0.0,0.0,0.0,0.0,0.0,0.0,0.0,0.0,0.0,0.0,0.0,0.0,0.0,0.0,0.0,0.0,0.0,0.0,0.0,0.0,0.0,0.0,0.0,0.0,0.0,0.0,0.0,0.0,0.0,0.0,0.0,0.0,0.0,0.0,0.0,0.0,0.0,0.0,0.0,0.0,0.0,0.0,0.0,0.0,0.0,0.0,0.0,0.0,0.0,0.0,0.0,0.0,0.0,0.0,0.0,0.0,0.0,0.0,0.0,0.0,0.0,0.0,0.0,0.0,0.0,0.0,0.0,0.0,0.0,0.0,0.0,0.0,0.0,0.0,0.0,0.0,0.0,0.0,0.0,0.0,0.0,0.0,0.0,0.0,0.0,0.0,0.0,0.0,-1.3093,0.0,0.0,0.0,0.0,0.0,0.0,0.0,0.0,0.0,0.0,0.0,0.0,0.0,0.0,0.0,0.0,0.0,0.0,0.0,0.0,0.0,0.0,0.0,0.0,0.0,0.0,0.0,0.0,0.0,0.0,0.0,0.0,0.0,0.0,0.0,0.0,0.0,0.0,0.0,0.0,0.0,0.0,0.0,0.0,0.0,0.0,0.0,0.0,0.0,0.0,0.0,0.0,0.0,0.0,0.0,0.0,0.0,0.0,0.0,0.0,0.0,0.0,0.0,0.0,0.0,0.0,0.0,0.0,0.0,0.0,0.0,0.0,0.0,0.0,0.0,0.0,0.0,0.0,0.0,0.0,0.0,0.0,0.0,0.0,0.0,0.0,0.0,0.0,0.0,0.0,0.0,0.0,0.0,0.0,0.0,0.0,0.0,0.0,0.0,0.0,0.0,0.0,0.0,0.0,0.0,0.0,0.0,0.0,0.0,0.0,-1.3606,-1.3589,-1.3275,-1.3093,-1.3109,0.0,0.0,0.0,0.0,0.0,0.0,0.0,0.0,0.0,0.0,0.0,0.0,0.0,0.0,0.0,0.0,0.0,0.0,0.0,0.0,0.0,0.0,0.0,0.0,0.0,0.0,0.0,0.0,0.0,0.0,0.0,0.0,0.0,0.0,0.0,0.0,0.0,0.0,0.0,0.0,0.0,0.0,0.0,0.0,0.0,0.0,0.0,0.0,0.0,0.0,0.0,0.0,0.0,0.0,0.0,0.0,0.0,0.0,0.0,0.0,0.0,0.0,0.0,0.0,0.0,0.0,0.0,0.0,0.0,0.0,0.0,0.0,0.0,0.0,0.0,0.0,0.0,0.0,0.0,0.0,0.0,0.0,0.0,0.0,0.0,0.0,0.0,0.0,0.0,0.0,0.0,0.0,0.0,0.0,0.0,0.0,0.0,0.0,0.0,0.0,0.0,0.0,0.0,0.0,0.0,0.0,0.0,0.0,0.0,0.0,0.0,0.0,-1.3599,-1.3599,-1.3615,0.0,0.0,0.0,0.0,0.0,0.0,0.0,0.0,0.0,0.0,0.0,0.0,0.0,0.0,0.0,0.0,0.0,0.0,0.0,0.0,0.0,0.0,0.0,0.0,0.0,0.0,0.0,0.0,0.0,0.0,0.0,0.0,0.0,0.0,0.0,0.0,0.0,0.0,0.0,0.0,0.0,0.0,0.0,0.0,0.0,0.0,0.0,0.0,0.0,0.0,0.0,0.0,0.0,0.0,0.0,0.0,0.0,0.0,0.0,0.0,0.0,0.0,0.0,0.0,0.0,0.0,0.0,0.0,0.0,0.0,0.0,0.0,0.0,0.0,0.0,0.0,0.0,0.0,0.0,0.0,0.0,0.0,0.0,0.0,0.0,0.0,0.0,0.0,0.0,0.0,0.0,0.0,0.0,0.0,0.0,0.0,0.0,0.0,0.0,0.0,0.0,0.0,0.0,0.0,0.0,0.0,0.0,0.0,0.0,0.0,-1.3731,-1.5043,-1.5093,0.0,-1.5126,0.0,0.0,0.0,0.0,0.0,0.0,0.0,0.0,0.0,0.0,0.0,0.0,0.0,0.0,0.0,0.0,0.0,0.0,0.0,0.0,0.0,0.0,0.0,0.0,0.0,0.0,0.0,0.0,0.0,0.0,0.0,0.0,0.0,0.0,0.0,0.0,0.0,0.0,0.0,0.0,0.0,0.0,0.0,0.0,0.0,0.0,0.0,0.0,0.0,0.0,0.0,0.0,0.0,0.0,0.0,0.0,0.0,0.0,0.0,0.0,0.0,0.0,0.0,0.0,0.0,0.0,0.0,0.0,0.0,0.0,0.0,0.0,0.0,0.0,0.0,0.0,0.0,0.0,0.0,0.0,0.0,0.0,0.0,0.0,0.0,0.0,0.0,0.0,0.0,0.0,0.0,0.0,0.0,0.0,0.0,0.0,0.0,0.0,0.0,0.0,0.0,0.0,0.0,0.0,0.0,0.0,0.0,0.0,0.0,0.0,-1.4695,-1.5286,-1.5286,-1.5286,0.0,0.0,0.0,0.0,0.0,0.0,0.0,0.0,0.0,0.0,0.0,0.0,0.0,0.0,0.0,0.0,0.0,0.0,0.0,0.0,0.0,0.0,0.0,0.0,0.0,0.0,0.0,0.0,0.0,0.0,0.0,0.0,0.0,0.0,0.0,0.0,0.0,0.0,0.0,0.0,0.0,0.0,0.0,0.0,0.0,0.0,0.0,0.0,0.0,0.0,0.0,0.0,0.0,0.0,0.0,0.0,0.0,0.0,0.0,0.0,0.0,0.0,0.0,0.0,0.0,0.0,0.0,0.0,0.0,0.0,0.0,0.0,0.0,0.0,0.0,0.0,0.0,0.0,0.0,0.0,0.0,0.0,0.0,0.0,0.0,0.0,0.0,0.0,0.0,0.0,0.0,0.0,0.0,0.0,0.0,0.0,0.0,0.0,0.0,0.0,0.0,0.0,0.0,0.0,0.0,0.0,0.0,0.0,0.0,0.0,-1.4977,-1.5502,-1.5873,-1.5906,-1.5624,-1.5027,0.0,0.0,0.0,0.0,0.0,0.0,0.0,0.0,0.0,0.0,0.0,0.0,0.0,0.0,0.0,0.0,0.0,0.0,0.0,0.0,0.0,0.0,0.0,0.0,0.0,0.0,0.0,0.0,0.0,0.0,0.0,0.0,0.0,0.0,0.0,0.0,0.0,0.0,0.0,0.0,0.0,0.0,0.0,0.0,0.0,0.0,0.0,0.0,0.0,0.0,0.0,0.0,0.0,0.0,0.0,0.0,0.0,0.0,0.0,0.0,0.0,0.0,0.0,0.0,0.0,0.0,0.0,0.0,0.0,0.0,0.0,0.0,0.0,0.0,0.0,0.0,0.0,0.0,0.0,0.0,0.0,0.0,0.0,0.0,0.0,0.0,0.0,0.0,0.0,0.0,0.0,0.0,0.0,0.0,0.0,0.0,0.0,0.0,0.0,0.0,0.0,0.0,0.0,0.0,0.0,0.0,0.0,0.0,-1.7055,-1.5956,-1.5989,-1.7354,-1.7403,-1.6398,0.0,0.0,0.0,0.0,0.0,0.0,0.0,0.0,0.0,0.0,0.0,0.0,0.0,0.0,0.0,0.0,0.0,0.0,0.0,0.0,0.0,0.0,0.0,0.0,0.0,0.0,0.0,0.0,0.0,0.0,0.0,0.0,0.0,0.0,0.0,0.0,0.0,0.0,0.0,0.0,0.0,0.0,0.0,0.0,0.0,0.0,0.0,0.0,0.0,0.0,0.0,0.0,0.0,0.0,0.0,0.0,0.0,0.0,0.0,0.0,0.0,0.0,0.0,0.0,0.0,0.0,0.0,0.0,0.0,0.0,0.0,0.0,0.0,0.0,0.0,0.0,0.0,0.0,0.0,0.0,0.0,0.0,0.0,0.0,0.0,0.0,0.0,0.0,0.0,0.0,0.0,0.0,0.0,0.0,0.0,0.0,0.0,0.0,0.0,0.0,0.0,0.0,0.0,0.0,0.0,0.0,0.0,0.0,0.0,-1.4642,-1.5093,-1.6442,-1.8638,-1.6613,-1.5437,0.0,0.0,0.0,0.0,0.0,0.0,0.0,0.0,0.0,0.0,0.0,0.0,0.0,0.0,0.0,0.0,0.0,0.0,0.0,0.0,0.0,0.0,0.0,0.0,0.0,0.0,0.0,0.0,0.0,0.0,0.0,0.0,0.0,0.0,0.0,0.0,0.0,0.0,0.0,0.0,0.0,0.0,0.0,0.0,0.0,0.0,0.0,0.0,0.0,0.0,0.0,0.0,0.0,0.0,0.0,0.0,0.0,0.0,0.0,0.0,0.0,0.0,0.0,0.0,0.0,0.0,0.0,0.0,0.0,0.0,0.0,0.0,0.0,0.0,0.0,0.0,0.0,0.0,0.0,0.0,0.0,0.0,0.0,0.0,0.0,0.0,0.0,0.0,0.0,0.0,0.0,0.0,0.0,0.0,0.0,0.0,0.0,0.0,0.0,0.0,0.0,0.0,0.0,0.0,0.0,0.0,0.0,0.0,0.0,-1.451,0.0,-1.7408,-1.8733,-1.6337,-1.4834,0.0,0.0,0.0,0.0,0.0,0.0,0.0,0.0,0.0,0.0,0.0,0.0,0.0,0.0,0.0,0.0,0.0,0.0,0.0,0.0,0.0,0.0,0.0,0.0,0.0,0.0,0.0,0.0,0.0,0.0,0.0,0.0,0.0,0.0,0.0,0.0,0.0,0.0,0.0,0.0,0.0,0.0,0.0,0.0,0.0,0.0,0.0,0.0,0.0,0.0,0.0,0.0,0.0,0.0,0.0,0.0,0.0,0.0,0.0,0.0,0.0,0.0,0.0,0.0,0.0,0.0,0.0,0.0,0.0,0.0,0.0,0.0,0.0,0.0,0.0,0.0,0.0,0.0,0.0,0.0,0.0,0.0,0.0,0.0,0.0,0.0,0.0,0.0,0.0,0.0,0.0,0.0,0.0,0.0,0.0,0.0,0.0,0.0,0.0,0.0,0.0,0.0,0.0,0.0,0.0,0.0,0.0,0.0,-1.4533,-1.7321,-1.8717,-1.8833,-1.7586,-1.6752,-1.4679,0.0,0.0,0.0,0.0,0.0,0.0,0.0,0.0,0.0,0.0,0.0,0.0,0.0,0.0,0.0,0.0,0.0,0.0,0.0,0.0,0.0,0.0,0.0,0.0,0.0,0.0,0.0,0.0,0.0,0.0,0.0,0.0,0.0,0.0,0.0,0.0,0.0,0.0,0.0,0.0,0.0,0.0,0.0,0.0,0.0,0.0,0.0,0.0,0.0,0.0,0.0,0.0,0.0,0.0,0.0,0.0,0.0,0.0,0.0,0.0,0.0,0.0,0.0,0.0,0.0,0.0,0.0,0.0,0.0,0.0,0.0,0.0,0.0,0.0,0.0,0.0,0.0,0.0,0.0,0.0,0.0,0.0,0.0,0.0,0.0,0.0,0.0,0.0,0.0,0.0,0.0,0.0,0.0,0.0,0.0,0.0,0.0,0.0,0.0,0.0,0.0,0.0,0.0,0.0,0.0,0.0,0.0,0.0,0.0,-1.6005,-1.7403,-1.865,-1.9542,-1.6563,-1.5056,0.0,0.0,0.0,0.0,0.0,0.0,0.0,0.0,0.0,0.0,0.0,0.0,0.0,0.0,0.0,0.0,0.0,0.0,0.0,0.0,0.0,0.0,0.0,0.0,0.0,0.0,0.0,0.0,0.0,0.0,0.0,0.0,0.0,0.0,0.0,0.0,0.0,0.0,0.0,0.0,0.0,0.0,0.0,0.0,0.0,0.0,0.0,0.0,0.0,0.0,0.0,0.0,0.0,0.0,0.0,0.0,0.0,0.0,0.0,0.0,0.0,0.0,0.0,0.0,0.0,0.0,0.0,0.0,0.0,0.0,0.0,0.0,0.0,0.0,0.0,0.0,0.0,0.0,0.0,0.0,0.0,0.0,0.0,0.0,0.0,0.0,0.0,0.0,0.0,0.0,0.0,0.0,0.0,0.0,0.0,0.0,0.0,0.0,0.0,0.0,0.0,0.0,0.0,0.0,0.0,0.0,0.0,0.0,0.0,-1.778,-1.8895,-1.989,-2.0685,-1.7524,-1.5934,-1.6177,0.0,0.0,0.0,0.0,0.0,0.0,0.0,0.0,0.0,0.0,0.0,0.0,0.0,0.0,0.0,0.0,0.0,0.0,0.0,0.0,0.0,0.0,0.0,0.0,0.0,0.0,0.0,0.0,0.0,0.0,0.0,0.0,0.0,0.0,0.0,0.0,0.0,0.0,0.0,0.0,0.0,0.0,0.0,0.0,0.0,0.0,0.0,0.0,0.0,0.0,0.0,0.0,0.0,0.0,0.0,0.0,0.0,0.0,0.0,0.0,0.0,0.0,0.0,0.0,0.0,0.0,0.0,0.0,0.0,0.0,0.0,0.0,0.0,0.0,0.0,0.0,0.0,0.0,0.0,0.0,0.0,0.0,0.0,0.0,0.0,0.0,0.0,0.0,0.0,0.0,0.0,0.0,0.0,0.0,0.0,0.0,0.0,0.0,0.0,0.0,0.0,0.0,0.0,0.0,0.0,0.0,0.0,0.0,-2.1961,-2.2725,-2.2475,-2.11,-1.9528,-1.7351,0.0,0.0,0.0,0.0,0.0,0.0,0.0,0.0,0.0,0.0,0.0,0.0,0.0,0.0,0.0,0.0,0.0,0.0,0.0,0.0,0.0,0.0,0.0,0.0,0.0,0.0,0.0,0.0,0.0,0.0,0.0,0.0,0.0,0.0,0.0,0.0,0.0,0.0,0.0,0.0,0.0,0.0,0.0,0.0,0.0,0.0,0.0,0.0,0.0,0.0,0.0,0.0,0.0,0.0,0.0,0.0,0.0,0.0,0.0,0.0,0.0,0.0,0.0,0.0,0.0,0.0,0.0,0.0,0.0,0.0,0.0,0.0,0.0,0.0,0.0,0.0,0.0,0.0,0.0,0.0,0.0,0.0,0.0,0.0,0.0,0.0,0.0,0.0,0.0,0.0,0.0,0.0,0.0,0.0,0.0,0.0,0.0,0.0,0.0,0.0,0.0,0.0,0.0,0.0,0.0,0.0,0.0,0.0,0.0,-2.4149,-2.5492,-2.5707,-2.4762,-2.2278,-2.0061,0.0,0.0,0.0,0.0,0.0,0.0,0.0,0.0,0.0,0.0,0.0,0.0,0.0,0.0,0.0,0.0,0.0,0.0,0.0,0.0,0.0,0.0,0.0,0.0,0.0,0.0,0.0,0.0,0.0,0.0,0.0,0.0,0.0,0.0,0.0,0.0,0.0,0.0,0.0,0.0,0.0,0.0,0.0,0.0,0.0,0.0,0.0,0.0,0.0,0.0,0.0,0.0,0.0,0.0,0.0,0.0,0.0,0.0,0.0,0.0,0.0,0.0,0.0,0.0,0.0,0.0,0.0,0.0,0.0,0.0,0.0,0.0,0.0,0.0,0.0,0.0,0.0,0.0,0.0,0.0,0.0,0.0,0.0,0.0,0.0,0.0,0.0,0.0,0.0,0.0,0.0,0.0,0.0,0.0,0.0,0.0,0.0,0.0,0.0,0.0,0.0,0.0,0.0,0.0,0.0,0.0,0.0,0.0,-2.3542,-2.5989,-2.7598,-2.8165,-2.7578,-2.5027,-2.2362,0.0,0.0,0.0,0.0,0.0,0.0,0.0,0.0,0.0,0.0,0.0,0.0,0.0,0.0,0.0,0.0,0.0,0.0,0.0,0.0,0.0,0.0,0.0,0.0,0.0,0.0,0.0,0.0,0.0,0.0,0.0,0.0,0.0,0.0,0.0,0.0,0.0,0.0,0.0,0.0,0.0,0.0,0.0,0.0,0.0,0.0,0.0,0.0,0.0,0.0,0.0,0.0,0.0,0.0,0.0,0.0,0.0,0.0,0.0,0.0,0.0,0.0,0.0,0.0,0.0,0.0,0.0,0.0,0.0,0.0,0.0,0.0,0.0,0.0,0.0,0.0,0.0,0.0,0.0,0.0,0.0,0.0,0.0,0.0,0.0,0.0,0.0,0.0,0.0,0.0,0.0,0.0,0.0,0.0,0.0,0.0,0.0,0.0,0.0,0.0,0.0,0.0,0.0,0.0,0.0,0.0,0.0,0.0,-2.5546,-2.7383,-2.9139,-2.9842,-2.935,-2.7377,-2.4298,0.0,0.0,0.0,0.0,0.0,0.0,0.0,0.0,0.0,0.0,0.0,0.0,0.0,0.0,0.0,0.0,0.0,0.0,0.0,0.0,0.0,0.0,0.0,0.0,0.0,0.0,0.0,0.0,0.0,0.0,0.0,0.0,0.0,0.0,0.0,0.0,0.0,0.0,0.0,0.0,0.0,0.0,0.0,0.0,0.0,0.0,0.0,0.0,0.0,0.0,0.0,0.0,0.0,0.0,0.0,0.0,0.0,0.0,0.0,0.0,0.0,0.0,0.0,0.0,0.0,0.0,0.0,0.0,0.0,0.0,0.0,0.0,0.0,0.0,0.0,0.0,0.0,0.0,0.0,0.0,0.0,0.0,0.0,0.0,0.0,0.0,0.0,0.0,0.0,0.0,0.0,0.0,0.0,0.0,0.0,0.0,0.0,0.0,0.0,0.0,0.0,0.0,0.0,0.0,0.0,0.0,0.0,0.0,-2.601,-2.8111,-2.9613,-3.0078,-2.9397,-2.7876,-2.5524,0.0,0.0,0.0,0.0,0.0,0.0,0.0,0.0,0.0,0.0,0.0,0.0,0.0,0.0,0.0,0.0,0.0,0.0,0.0,0.0,0.0,0.0,0.0,0.0,0.0,0.0,0.0,0.0,0.0,0.0,0.0,0.0,0.0,0.0,0.0,0.0,0.0,0.0,0.0,0.0,0.0,0.0,0.0,0.0,0.0,0.0,0.0,0.0,-1.3803,0.0,0.0,0.0,0.0,0.0,0.0,0.0,0.0,0.0,0.0,0.0,0.0,0.0,0.0,0.0,0.0,0.0,0.0,0.0,0.0,0.0,0.0,0.0,0.0,0.0,0.0,0.0,0.0,0.0,0.0,0.0,0.0,0.0,0.0,0.0,0.0,0.0,0.0,0.0,0.0,0.0,0.0,0.0,0.0,0.0,0.0,0.0,0.0,0.0,0.0,0.0,0.0,0.0,0.0,0.0,0.0,0.0,0.0,0.0,-2.7674,-2.9116,-3.0588,-3.0978,-3.0202,-2.8795,-2.6415,0.0,0.0,0.0,0.0,0.0,0.0,0.0,0.0,0.0,0.0,0.0,0.0,0.0,0.0,0.0,0.0,0.0,0.0,0.0,0.0,0.0,0.0,0.0,0.0,0.0,0.0,0.0,0.0,0.0,0.0,0.0,0.0,0.0,0.0,0.0,0.0,0.0,0.0,0.0,0.0,0.0,0.0,0.0,0.0,0.0,0.0,0.0,0.0,0.0,0.0,0.0,0.0,0.0,0.0,0.0,0.0,0.0,0.0,0.0,0.0,0.0,0.0,0.0,0.0,0.0,0.0,0.0,0.0,0.0,0.0,0.0,0.0,0.0,0.0,0.0,0.0,0.0,0.0,0.0,0.0,0.0,0.0,0.0,0.0,0.0,0.0,0.0,0.0,0.0,0.0,0.0,0.0,0.0,0.0,0.0,0.0,0.0,0.0,0.0,0.0,0.0,0.0,0.0,0.0,0.0,0.0,0.0,-2.6825,-2.9135,-3.026,-3.153,-3.1895,-3.1186,-2.9688,-2.713,-2.3361,0.0,0.0,0.0,0.0,0.0,0.0,0.0,0.0,0.0,0.0,0.0,0.0,0.0,0.0,0.0,0.0,0.0,0.0,0.0,0.0,0.0,0.0,0.0,0.0,0.0,0.0,0.0,0.0,0.0,0.0,0.0,0.0,0.0,0.0,0.0,0.0,0.0,0.0,-1.265,-1.5184,0.0,0.0,0.0,0.0,0.0,0.0,0.0,0.0,-1.6094,0.0,0.0,0.0,0.0,0.0,0.0,0.0,0.0,0.0,0.0,0.0,0.0,0.0,0.0,0.0,0.0,0.0,0.0,0.0,0.0,0.0,0.0,0.0,0.0,0.0,0.0,0.0,0.0,0.0,0.0,0.0,0.0,0.0,0.0,0.0,0.0,0.0,0.0,0.0,0.0,0.0,0.0,0.0,0.0,0.0,0.0,0.0,0.0,0.0,0.0,0.0,0.0,0.0,0.0,0.0,0.0,-2.6676,-2.6666,-2.8141,-3.1329,-3.168,-3.1732,-3.1568,-2.9854,-2.7539,-2.466,0.0,0.0,0.0,0.0,0.0,0.0,0.0,0.0,0.0,0.0,0.0,0.0,0.0,0.0,0.0,0.0,0.0,0.0,0.0,0.0,0.0,0.0,0.0,0.0,0.0,0.0,0.0,0.0,0.0,0.0,0.0,0.0,0.0,0.0,0.0,0.0,0.0,0.0,0.0,-1.8663,-1.9734,0.0,0.0,0.0,0.0,0.0,0.0,0.0,0.0,-1.4981,0.0,0.0,0.0,0.0,0.0,0.0,0.0,0.0,0.0,0.0,0.0,0.0,0.0,0.0,0.0,0.0,0.0,0.0,0.0,0.0,0.0,0.0,0.0,0.0,0.0,0.0,0.0,0.0,0.0,0.0,0.0,0.0,0.0,0.0,0.0,0.0,0.0,0.0,0.0,0.0,0.0,0.0,0.0,0.0,0.0,0.0,0.0,0.0,0.0,0.0,0.0,0.0,0.0,0.0,0.0,-2.6463,-2.7818,-2.9567,-3.1916,-3.2214,-3.2231,-3.1986,-2.9574,-2.726,0.0,0.0,0.0,0.0,0.0,0.0,0.0,0.0,0.0,0.0,0.0,0.0,0.0,0.0,0.0,0.0,0.0,0.0,0.0,0.0,0.0,0.0,0.0,0.0,0.0,0.0,0.0,0.0,0.0,0.0,0.0,0.0,0.0,0.0,0.0,0.0,0.0,0.0,0.0,0.0,-1.9833,-2.084,-2.1618,0.0,0.0,0.0,0.0,0.0,0.0,-1.7798,-1.6514,0.0,0.0,0.0,0.0,0.0,0.0,0.0,0.0,0.0,0.0,0.0,0.0,0.0,0.0,0.0,0.0,0.0,0.0,0.0,0.0,0.0,0.0,0.0,0.0,0.0,0.0,0.0,0.0,0.0,0.0,0.0,0.0,0.0,0.0,0.0,0.0,0.0,0.0,0.0,0.0,0.0,0.0,0.0,0.0,0.0,0.0,0.0,0.0,0.0,0.0,0.0,0.0,0.0,0.0,0.0,-2.5852,-2.8643,-3.0851,-3.2348,-3.2721,-3.2666,-3.2139,-2.9451,-2.7055,0.0,0.0,0.0,0.0,0.0,0.0,0.0,0.0,0.0,0.0,0.0,0.0,0.0,0.0,0.0,0.0,0.0,0.0,0.0,0.0,0.0,0.0,0.0,0.0,0.0,0.0,0.0,0.0,0.0,0.0,0.0,0.0,0.0,0.0,0.0,0.0,0.0,0.0,0.0,0.0,0.0,-2.2,-2.2475,-2.1857,0.0,0.0,0.0,0.0,-2.0805,-2.0402,0.0,0.0,0.0,0.0,0.0,0.0,0.0,0.0,0.0,0.0,0.0,0.0,0.0,0.0,0.0,0.0,0.0,0.0,0.0,0.0,0.0,0.0,0.0,0.0,0.0,0.0,0.0,0.0,0.0,0.0,0.0,0.0,0.0,0.0,0.0,0.0,0.0,0.0,0.0,0.0,0.0,0.0,0.0,0.0,0.0,0.0,0.0,0.0,0.0,0.0,0.0,0.0,0.0,0.0,0.0,0.0,-2.5762,-2.7712,-3.0019,-3.2674,-3.2884,-3.2529,-3.1769,-2.9819,-2.7497,0.0,0.0,0.0,0.0,0.0,0.0,0.0,0.0,0.0,0.0,0.0,0.0,0.0,0.0,0.0,0.0,0.0,0.0,0.0,0.0,0.0,0.0,0.0,0.0,0.0,0.0,0.0,0.0,0.0,0.0,0.0,0.0,0.0,0.0,0.0,0.0,0.0,0.0,0.0,0.0,0.0,-2.4052,-2.3452,-2.2678,-2.2635,0.0,0.0,-2.241,-2.3927,-2.407,0.0,0.0,0.0,0.0,0.0,0.0,0.0,0.0,0.0,0.0,0.0,0.0,0.0,0.0,0.0,0.0,0.0,0.0,0.0,0.0,0.0,0.0,0.0,0.0,0.0,0.0,0.0,0.0,0.0,0.0,0.0,0.0,0.0,0.0,0.0,0.0,0.0,0.0,0.0,0.0,0.0,0.0,0.0,0.0,0.0,0.0,0.0,0.0,0.0,0.0,0.0,0.0,0.0,0.0,0.0,-2.2193,-2.5876,-2.834,-3.0674,-3.2793,-3.29,-3.2525,-3.1689,-2.9183,-2.6575,0.0,0.0,0.0,0.0,0.0,0.0,0.0,0.0,0.0,0.0,0.0,0.0,0.0,0.0,0.0,0.0,0.0,0.0,0.0,0.0,0.0,0.0,0.0,0.0,0.0,0.0,0.0,0.0,0.0,0.0,0.0,0.0,0.0,0.0,0.0,0.0,0.0,0.0,0.0,0.0,0.0,0.0,-2.4801,-2.489,0.0,0.0,0.0,-2.5354,-2.6501,0.0,0.0,0.0,0.0,0.0,0.0,0.0,0.0,0.0,0.0,0.0,0.0,0.0,0.0,0.0,0.0,0.0,0.0,0.0,0.0,0.0,0.0,0.0,0.0,0.0,0.0,0.0,0.0,0.0,0.0,0.0,0.0,0.0,0.0,0.0,0.0,0.0,0.0,0.0,0.0,0.0,0.0,0.0,0.0,0.0,0.0,0.0,0.0,0.0,0.0,0.0,0.0,0.0,0.0,0.0,0.0,0.0,-2.5972,-2.9015,-3.1293,-3.2829,-3.29,-3.2418,-3.1385,-2.8744,0.0,0.0,0.0,0.0,0.0,0.0,0.0,0.0,0.0,0.0,0.0,0.0,0.0,0.0,0.0,0.0,0.0,0.0,0.0,0.0,0.0,0.0,0.0,0.0,0.0,0.0,0.0,-0.9951,0.0,0.0,0.0,0.0,0.0,0.0,0.0,0.0,0.0,0.0,0.0,0.0,0.0,0.0,-2.5461,-2.6032,-2.696,-2.7741,0.0,0.0,-2.8156,-2.8962,-2.8245,-2.6514,0.0,0.0,0.0,0.0,0.0,0.0,0.0,0.0,0.0,0.0,0.0,0.0,0.0,0.0,0.0,0.0,0.0,0.0,0.0,0.0,0.0,0.0,0.0,0.0,0.0,0.0,0.0,0.0,0.0,0.0,0.0,0.0,0.0,0.0,0.0,0.0,0.0,0.0,0.0,0.0,0.0,0.0,0.0,0.0,0.0,0.0,0.0,0.0,0.0,0.0,0.0,0.0,0.0,0.0,-2.2897,-2.599,-2.9088,-3.1392,-3.2829,-3.29,-3.2168,-3.0603,-2.898,-2.6662,0.0,0.0,0.0,0.0,0.0,0.0,0.0,0.0,0.0,0.0,0.0,0.0,0.0,0.0,0.0,0.0,0.0,0.0,0.0,0.0,0.0,0.0,0.0,0.0,0.0,0.0,0.0,0.0,0.0,0.0,0.0,0.0,0.0,0.0,0.0,0.0,0.0,0.0,0.0,0.0,0.0,-2.6853,-2.692,-2.8245,-2.9762,0.0,-3.0743,-3.0547,-3.1332,-3.1972,-3.0651,-2.539,0.0,0.0,0.0,0.0,0.0,0.0,0.0,0.0,0.0,0.0,0.0,0.0,0.0,0.0,0.0,0.0,0.0,0.0,0.0,0.0,0.0,0.0,0.0,0.0,0.0,0.0,0.0,0.0,0.0,0.0,0.0,0.0,0.0,0.0,0.0,0.0,0.0,0.0,0.0,0.0,0.0,0.0,0.0,0.0,0.0,0.0,0.0,0.0,0.0,0.0,0.0,0.0,0.0,-2.3135,-2.6708,-2.9261,-3.1326,-3.2811,-3.29,-3.2364,-3.1242,-2.9744,-2.7464,0.0,0.0,0.0,0.0,0.0,0.0,0.0,0.0,0.0,0.0,0.0,0.0,0.0,0.0,0.0,0.0,0.0,0.0,0.0,0.0,0.0,0.0,0.0,0.0,0.0,0.0,0.0,0.0,-1.4156,-1.4542,-1.4392,0.0,0.0,0.0,0.0,0.0,0.0,0.0,0.0,0.0,0.0,-2.8816,-2.9744,-3.1278,0.0,0.0,-3.2581,-3.2652,-3.2472,-3.1474,-2.9705,-2.6603,-2.4248,0.0,0.0,0.0,0.0,0.0,0.0,0.0,0.0,0.0,0.0,0.0,0.0,0.0,0.0,0.0,0.0,0.0,0.0,0.0,0.0,0.0,0.0,0.0,0.0,0.0,0.0,0.0,0.0,0.0,0.0,0.0,0.0,0.0,0.0,0.0,0.0,0.0,0.0,0.0,0.0,0.0,0.0,0.0,0.0,0.0,0.0,0.0,0.0,0.0,0.0,0.0,0.0,-2.3479,-2.7169,-2.959,-3.1543,-3.2864,-3.29,-3.2525,-3.1689,-3.0208,-2.8017,0.0,0.0,0.0,0.0,0.0,0.0,0.0,0.0,0.0,0.0,0.0,0.0,0.0,0.0,0.0,0.0,0.0,0.0,0.0,0.0,0.0,0.0,0.0,0.0,0.0,0.0,0.0,0.0,-1.5755,-1.5691,-1.4677,0.0,0.0,0.0,0.0,0.0,0.0,0.0,0.0,0.0,0.0,-3.0832,-3.1918,-3.3223,-3.3885,-3.3346,-3.3312,-3.3277,-3.2953,-3.151,-2.9654,-2.7371,0.0,0.0,0.0,0.0,0.0,0.0,0.0,0.0,0.0,0.0,0.0,0.0,0.0,0.0,0.0,0.0,0.0,0.0,0.0,0.0,0.0,0.0,0.0,0.0,0.0,0.0,0.0,-1.547,0.0,0.0,-1.433,0.0,0.0,0.0,0.0,0.0,0.0,0.0,0.0,0.0,0.0,0.0,0.0,0.0,0.0,0.0,0.0,0.0,0.0,0.0,0.0,0.0,0.0,-2.3988,-2.7187,-3.0141,-3.2061,-3.2864,-3.29,-3.2525,-3.1706,-3.0208,-2.8281,-2.5806,0.0,0.0,0.0,0.0,0.0,0.0,0.0,0.0,0.0,0.0,0.0,0.0,0.0,0.0,0.0,0.0,0.0,0.0,0.0,0.0,0.0,0.0,0.0,0.0,0.0,0.0,-1.5156,-1.5334,-1.4756,0.0,0.0,0.0,0.0,0.0,0.0,0.0,0.0,0.0,-2.6795,-3.0365,-3.2829,-3.29,-3.3598,-3.4152,-3.4097,-3.283,-3.2081,-3.2846,-3.2829,-3.1508,0.0,0.0,0.0,0.0,0.0,0.0,0.0,0.0,0.0,0.0,0.0,0.0,0.0,0.0,0.0,0.0,0.0,0.0,0.0,0.0,0.0,0.0,0.0,0.0,0.0,0.0,0.0,-1.9984,-1.9422,0.0,0.0,0.0,0.0,0.0,0.0,0.0,0.0,0.0,0.0,0.0,-2.6681,-2.8274,0.0,0.0,0.0,0.0,0.0,0.0,0.0,0.0,0.0,0.0,0.0,0.0,-2.4771,-2.7936,-3.0441,-3.2081,-3.2864,-3.29,-3.2775,-3.2507,-3.1474,-2.9315,-2.5908,0.0,0.0,0.0,0.0,0.0,0.0,0.0,0.0,0.0,0.0,0.0,0.0,0.0,0.0,0.0,0.0,0.0,0.0,0.0,0.0,0.0,0.0,0.0,0.0,0.0,-1.5332,0.0,0.0,0.0,0.0,0.0,0.0,0.0,0.0,0.0,0.0,-2.4587,-2.7192,-2.9779,-3.2188,-3.3865,-3.4365,-3.5114,-3.5632,0.0,0.0,0.0,0.0,0.0,0.0,0.0,0.0,0.0,0.0,0.0,0.0,0.0,-3.1457,-3.0903,-2.4647,-2.3059,-2.2774,-2.3071,0.0,0.0,0.0,0.0,0.0,0.0,0.0,0.0,0.0,0.0,0.0,0.0,0.0,0.0,-2.393,-2.3839,-2.2528,0.0,0.0,0.0,0.0,0.0,0.0,0.0,0.0,-2.8069,-2.9939,-3.0754,-3.2306,-3.2071,-3.0283,-2.9468,-2.6258,0.0,0.0,0.0,0.0,0.0,0.0,0.0,0.0,-2.5883,-2.8735,-3.0981,-3.2382,-3.2864,-3.29,-3.29,-3.2864,-3.1849,-2.9833,-2.6733,-2.4164,-2.2211,0.0,0.0,0.0,0.0,0.0,0.0,0.0,0.0,0.0,0.0,0.0,0.0,0.0,0.0,0.0,0.0,0.0,0.0,0.0,0.0,0.0,0.0,0.0,-1.6496,0.0,0.0,0.0,0.0,0.0,0.0,0.0,0.0,0.0,-2.5075,-2.7656,-3.0422,-3.3009,-3.4472,-3.5489,-3.5971,0.0,0.0,0.0,0.0,0.0,0.0,0.0,-3.2723,-3.3223,-3.2509,-3.1903,-3.2063,-3.3812,-3.4865,-3.3883,0.0,0.0,-2.9405,-2.7946,-2.7714,-2.8263,-2.8727,-2.9119,-2.9405,-3.0297,-3.1102,0.0,0.0,0.0,0.0,-2.4212,0.0,0.0,0.0,-2.6982,-2.7459,0.0,-2.6349,0.0,0.0,0.0,0.0,-2.2138,-2.6464,0.0,0.0,-3.3487,-3.5369,-3.4663,-3.4718,-3.4353,-3.3628,-3.4244,-3.2578,-2.8582,-2.26,0.0,0.0,0.0,0.0,0.0,0.0,-2.7287,-2.954,-3.1803,-3.2952,-3.2916,-3.29,-3.29,-3.2864,-3.1385,-2.9854,-2.8356,-2.6751,-2.4879,-2.2643,-2.103,0.0,0.0,0.0,0.0,0.0,0.0,0.0,0.0,0.0,0.0,0.0,0.0,0.0,0.0,0.0,0.0,0.0,0.0,0.0,0.0,-1.6835,0.0,0.0,0.0,0.0,0.0,0.0,0.0,0.0,0.0,-2.7839,-2.6501,-3.0799,-3.4722,-3.6185,0.0,0.0,0.0,0.0,-3.6453,-3.6506,-3.581,-3.5578,-3.6328,-3.6345,-3.5792,-3.4454,0.0,0.0,-3.3543,-3.4418,-3.5043,-3.3507,-3.4722,-3.5935,-3.7363,-3.5882,-3.4865,-3.4901,-3.3776,-3.3311,-3.3972,-3.4044,-3.4347,-3.3031,0.0,0.0,0.0,0.0,-3.0278,-3.2035,-3.5041,-3.4259,-3.352,-3.2799,-3.1564,0.0,0.0,0.0,0.0,0.0,0.0,-3.0912,-3.2144,-3.4661,-3.5983,-3.6361,-3.7486,-3.7594,-3.6816,-3.6472,-3.5421,-3.3614,-3.017,-2.6149,-2.1776,0.0,0.0,0.0,0.0,-2.98,-3.0539,-3.2732,-3.3631,-3.3057,-3.2995,-3.2965,-3.2882,-3.1903,-3.1135,-3.0689,-2.9208,-2.7531,-2.5754,-2.371,0.0,0.0,0.0,0.0,0.0,0.0,0.0,0.0,0.0,0.0,0.0,0.0,0.0,0.0,0.0,0.0,0.0,0.0,0.0,-1.7666,-1.7785,-1.7974,0.0,0.0,0.0,0.0,0.0,0.0,0.0,0.0,0.0,-3.2511,-3.4365,-3.6114,0.0,0.0,-3.8255,-3.7684,-3.7416,-3.7452,-3.8023,-3.7434,0.0,-3.7202,-3.6292,-3.5792,-3.647,-3.7452,-3.8041,-3.7933,-3.8754,-3.9254,-3.8754,-3.9594,-4.0433,-4.0592,-3.7773,-3.5632,-3.5864,-3.5667,-3.5667,-3.6399,-3.6577,-3.6809,-3.8156,-3.5783,-3.3773,-3.3647,-3.4769,-3.4658,-3.6127,-3.8644,-3.8154,-3.7739,-3.7324,-3.6272,-3.4262,-3.1636,-3.0681,0.0,0.0,0.0,-3.3897,-3.4893,-3.6146,-3.7015,-3.7538,-3.8464,-3.868,-3.8191,-3.7701,-3.7249,-3.6743,-3.5276,-3.2162,-2.7568,0.0,-2.7742,-2.7132,-3.0229,-3.182,-3.1822,-3.344,-3.3894,-3.3091,-3.2995,-3.2932,-3.2882,-3.2402,-3.2186,-3.2168,-3.0975,-2.974,-2.8514,-2.6555,-2.4008,0.0,0.0,0.0,0.0,0.0,0.0,0.0,0.0,0.0,0.0,0.0,-1.4381,-1.1605,0.0,0.0,0.0,-1.6338,-1.826,-1.9639,-2.0489,0.0,0.0,0.0,0.0,0.0,0.0,0.0,-3.1645,-3.3775,-3.5311,-3.6042,-3.6845,-3.7541,-3.8005,-3.8219,-3.8255,-3.8094,0.0,-3.788,-3.8683,-3.8397,-3.8165,-3.8433,-3.7452,-3.697,-3.7898,-3.8719,-3.9342,-3.9805,-4.0342,-4.0628,-4.0681,-4.102,-4.1341,-4.1341,-3.895,-3.7434,-3.8487,-3.8469,-3.8451,-3.8897,-3.8754,-3.8665,-4.1795,-4.1488,-3.7867,-3.6761,-3.743,-3.8154,-3.8952,-3.9659,-3.9677,-4.0419,-4.1578,-4.0202,-3.9115,-3.8154,-3.5983,0.0,-3.495,-3.6488,-3.7122,-3.714,-3.7937,-3.8263,-3.8209,-3.8281,-3.8299,-3.8299,-3.8299,-3.8299,-3.8281,-3.8209,-3.7087,-3.4969,-3.2759,-3.1862,-3.2227,-3.3094,-3.3511,-3.3309,-3.4031,-3.3968,-3.3013,-3.2932,-3.29,-3.29,-3.29,-3.29,-3.2864,-3.2186,-3.1484,-3.0772,-2.9249,-2.7036,-2.4109,0.0,0.0,0.0,0.0,0.0,0.0,0.0,0.0,0.0,0.0,0.0,0.0,0.0,0.0,-1.8214,-2.0141,0.0,-2.1654,-2.4272,0.0,0.0,0.0,-2.7839,-2.8748,-3.0779,-3.2688,-3.4259,0.0,0.0,-3.7791,-3.8522,-3.895,-3.8897,-3.8237,-3.8041,-3.8701,-3.8183,-3.7951,-3.8719,-3.8771,-3.9021,-3.9467,-3.9092,-3.8753,-3.8879,-3.9468,-3.9896,-4.0002,-4.0055,-4.0019,-4.0216,-4.0109,-4.0162,-4.0109,-4.0109,-4.0556,-4.1841,-4.1448,-4.0877,-4.0753,-4.0235,-3.977,-4.2611,-4.2538,-4.1596,-4.0981,-4.0583,-4.08,-4.1325,-4.2068,-4.2068,-4.1922,-4.1687,-4.1325,-4.0419,-3.9079,-3.85,-3.792,-3.7395,-3.8355,-3.8499,-3.7991,-3.8752,-3.8788,-3.8245,-3.8825,-3.9097,-3.9115,-3.9115,-3.9115,-3.9079,-3.8499,-3.8227,-3.8228,-3.7667,-3.5933,-3.3202,-3.5085,-3.5467,-3.4215,-3.4972,-3.4587,-3.3049,-3.2997,-3.2948,-3.29,-3.29,-3.29,-3.2882,-3.2721,-3.2239,-3.1469,-2.9969,-2.8268,-2.6297,-2.2869,0.0,0.0,0.0,0.0,0.0,0.0,0.0,0.0,0.0,-2.0199,-1.5469,0.0,-2.2424,0.0,-2.2861,-2.4611,-2.6405,-2.6696,0.0,0.0,-3.1026,-3.1633,-3.4151,-3.4936,-3.5899,-3.7505,-3.9022,-4.0057,-4.0253,-4.0431,-4.0342,-3.9716,-3.9468,-3.9236,-3.8897,-3.8665,-3.8594,-3.8772,-3.8825,-3.8842,-3.9074,-3.9395,-3.9645,-3.9645,-3.9825,-4.0091,-4.0717,-4.0824,-4.1002,-4.1591,-4.1734,-4.1716,-4.168,-4.1716,-4.1805,-4.2109,-4.1163,-4.0199,-4.0162,-4.0037,-3.9895,-4.2919,-4.2919,-4.2919,-4.2629,-4.223,-4.223,-4.2484,-4.2919,-4.2919,-4.2647,-4.223,-4.223,-4.1778,-4.0981,-4.0944,-4.0528,-3.9804,-4.022,-3.9804,-3.8771,-3.9205,-3.8971,-3.8227,-3.8662,-3.8862,-3.8879,-3.8861,-3.906,-3.9351,-3.8952,-3.897,-3.9387,-3.9387,-3.8085,-3.5666,-3.7198,-3.7433,-3.6172,-3.5423,-3.4409,-3.3066,-3.3321,-3.3307,-3.2918,-3.3257,-3.3098,-3.24,-3.2382,-3.1877,-3.0778,-2.9569,-2.8367,-2.7118,-2.4366,-2.2418,0.0,0.0,0.0,0.0,0.0,0.0,0.0,0.0,0.0,0.0,0.0,-2.5309,-2.5493,-2.7236,-2.9187,-3.1198,-3.1579,-3.2795,-3.5382,-3.5186,-3.5685,-3.7737,-3.7969,-3.8451,-3.9682,-4.0271,-4.0556,-4.0574,-4.0554,-4.0431,-3.9948,-3.9877,-3.9752,-3.9397,-3.9307,-3.9307,-3.927,-3.9288,-3.9288,-3.9288,-3.9912,-4.0431,-4.0467,-4.0735,-4.1127,-4.1556,-4.1627,-4.177,-4.2218,-4.2308,-4.2308,-4.2308,-4.2308,-4.2308,-4.218,-4.1609,-4.1038,-4.0967,-4.0967,-4.0967,-4.2919,-4.2919,-4.2919,-4.2919,-4.2919,-4.2919,-4.2919,-4.2919,-4.2919,-4.2919,-4.2919,-4.2919,-4.2828,-4.2737,-4.2737,-4.2303,-4.1578,-4.156,-4.0818,-3.955,-3.955,-3.917,-3.8499,-3.8391,-3.8354,-3.8354,-3.8245,-3.8554,-3.9241,-3.926,-3.9278,-3.9387,-3.9387,-3.9079,-3.8553,-3.9097,-3.8934,-3.7977,-3.5661,-3.4024,-3.3192,-3.3879,-3.3882,-3.313,-3.365,-3.3241,-3.1796,-3.1706,-3.1142,-2.9932,-2.9155,-2.8416,-2.7656,-2.6091,-2.4807,0.0,-2.3289,0.0,0.0,0.0,0.0,0.0,0.0,0.0,0.0,-2.7441,-2.8657,-2.9908,-3.2041,-3.3937,-3.5347,-3.6863,-3.7845,-3.8041,-3.8576,-3.9217,-3.9948,-4.0075,-4.0324,-4.102,-4.0574,-4.0198,-4.0287,-4.0217,-4.0198,-4.0307,-4.0342,-4.036,-4.0235,-4.0019,-3.9823,-3.9877,-4.0002,-4.011,-4.0307,-4.0824,-4.127,-4.1324,-4.1716,-4.229,-4.2254,-4.2272,-4.229,-4.2308,-4.2308,-4.2308,-4.2308,-4.2308,-4.2308,-4.2308,-4.2218,-4.2162,-4.2162,-4.2165,-4.2308,-4.2919,-4.2919,-4.2919,-4.2919,-4.2919,-4.2919,-4.2919,-4.2919,-4.2919,-4.2919,-4.2919,-4.2919,-4.2538,-4.194,-4.1922,-4.1469,-4.0727,-4.0727,-4.0564,-4.0293,-4.0293,-4.022,-4.0039,-3.9441,-3.917,-3.9133,-3.85,-3.8281,-3.8444,-3.8444,-3.877,-3.9387,-3.9387,-3.9623,-4.0039,0.0,0.0,0.0,-3.5866,-3.4846,-3.403,-3.4749,-3.4785,-3.3978,-3.3396,0.0,-3.176,-3.1706,-3.1579,-3.1324,-3.1148,0.0,0.0,0.0,0.0,0.0,0.0,0.0,0.0,0.0,0.0,0.0,-3.1306,-3.0326,-2.8969,-3.1757,-3.3544,-3.3294,-3.4756,-3.6114,-3.7059,-3.8005,-3.9075,-4.0253,-4.0003,-4.0003,-4.077,-4.0877,-4.0949,-4.1074,-4.152,-4.1823,-4.177,-4.1841,-4.1823,-4.1754,-4.1823,-4.1841,-4.1787,-4.0735,-3.9948,-3.993,-4.0503,-4.1109,-4.1734,-4.193,-4.2004,-4.2109,-4.2144,-4.2308,-4.2308,-4.2308,-4.2308,-4.2308,-4.2308,-4.2308,-4.2308,-4.2308,-4.2308,-4.2308,-4.2308,-4.2308,-4.2308,-4.2308,-4.2308,-4.2919,-4.2919,-4.2919,-4.2919,0.0,-4.2919,-4.2919,-4.2919,-4.2919,-4.2919,-4.2919,-4.2919,-4.2665,-4.2303,-4.2285,-4.2067,-4.1687,-4.1687,-4.1488,-4.1089,-4.1107,-4.089,-4.0474,-4.013,-3.9948,-3.993,-3.9532,-3.9134,-3.8807,-3.879,-3.879,-3.8825,-3.879,-3.8989,-3.9351,-3.8902,-3.8021,-3.6729,-3.6248,-3.5444,-3.4269,-3.5289,-3.5325,-3.4215,-3.4077,0.0,0.0,0.0,0.0,0.0,0.0,0.0,0.0,0.0,0.0,-3.0404,-3.0865,-3.1094,-3.1163,-3.2574,-3.3648,-3.4129,-3.5185,-3.4811,-3.2436,-3.4793,-3.656,-3.697,-3.8058,-3.904,-3.9826,-3.9932,-4.0414,-4.1484,-4.0985,-4.0806,-4.1538,-4.1698,-4.1698,-4.1698,-4.2037,-4.2308,-4.2308,-4.2308,-4.2308,-4.2308,-4.2308,-4.2308,-4.2234,-4.1627,-4.1092,-4.1092,-4.1395,-4.1805,-4.22,-4.2308,-4.2308,-4.2308,-4.2308,-4.2308,-4.2308,-4.2308,-4.2308,-4.2308,-4.2308,-4.2308,-4.2308,-4.2308,-4.2308,-4.2308,-4.2308,-4.2308,-4.2308,-4.2308,-4.2308,-4.2919,-4.2919,-4.2919,-4.2919,-4.2919,-4.2919,-4.2919,-4.2919,-4.2919,0.0,0.0,-4.2919,-4.2919,-4.2919,-4.2919,-4.2919,-4.2919,-4.2919,-4.2538,-4.1904,-4.1904,-4.156,-4.0944,-4.0782,-4.0709,-4.0691,-4.0564,-4.0184,-3.9604,-3.9586,-3.9188,-3.8499,-3.8408,-3.8319,-3.8175,-3.7986,-3.7558,-3.6912,-3.6825,-3.6057,-3.4632,-3.5899,-3.5953,-3.456,-3.4954,-3.4543,-3.3168,-3.2474,-3.1561,-3.0406,-3.0441,-3.0713,-3.1193,-3.1354,-3.2485,-3.4775,-3.5258,-3.54,-3.5418,-3.6435,-3.6542,-3.54,-3.7737,-3.8362,-3.6381,-3.7452,-3.8736,-4.0021,-4.0717,-4.1359,-4.2022,-4.1645,-4.1573,-4.2216,-4.1698,-4.1591,-4.22,-4.2308,-4.2254,-4.2308,-4.2269,-4.2308,-4.2308,-4.2308,-4.2308,-4.2308,-4.2308,-4.2308,-4.2308,-4.2236,-4.2144,-4.2165,-4.2144,-4.2272,-4.2308,-4.2308,-4.2308,-4.2308,-4.2308,-4.2308,-4.2308,-4.2308,-4.2308,-4.2308,-4.2308,-4.2308,-4.2308,-4.2308,-4.2308,-4.2308,-4.2308,-4.2308,-4.2308,-4.2308,-4.2308,-4.2919,-4.2919,-4.2919,-4.2919,-4.2919,-4.2919,-4.2919,-4.2919,-4.2919,-4.2919,-4.2919,-4.2919,-4.2919,-4.2919,-4.2919,-4.2919,-4.2919,-4.2919,-4.2828,-4.2719,-4.2737,-4.2684,-4.252,-4.185,-4.1542,-4.1469,-4.0818,-4.0456,-4.0365,-4.0347,-3.9967,-3.9315,-3.9224,-3.8828,-3.8108,-3.7951,-3.7792,-3.7578,-3.7542,-3.713,-3.6289,-3.7077,-3.713,-3.6271,-3.5559,-3.4829,-3.3972,-3.3812,-3.3669,-3.3489,-3.4044,-3.4169,-3.3651,-3.4169,-3.4472,-3.433,-3.5507,-3.6238,-3.6292,-3.8201,-3.9629,-4.0075,-4.0538,-4.061,-4.0324,-4.0485,-4.0699,-4.0931,-4.1056,-4.1127,-4.1288,-4.1805,-4.22,-4.2323,-4.2218,-4.22,-4.2376,-4.2397,-4.2415,-4.2412,-4.2308,-4.2341,-4.245,-4.2415,-4.243,-4.2361,-4.2537,-4.2379,-4.245,-4.2308,-4.2308,-4.2308,-4.2308,-4.2308,-4.2308,-4.2308,-4.2308,-4.2308,-4.2308,-4.2308,-4.2308,-4.2308,-4.2308,-4.2308,-4.2308,-4.2308,-4.2308,-4.2308,-4.2308,-4.2308,-4.2308,-4.2308,-4.2308,-4.2308,-4.2308,-4.2919,-4.2919,-4.2919,-4.2919,-4.2919,-4.2919,-4.2919,-4.2919,-4.2919,-4.2919,-4.2919,-4.2919,-4.2919,-4.2919,-4.2919,-4.2919,-4.2919,-4.2919,-4.2919,-4.2919,-4.2919,-4.2919,-4.2883,-4.252,-4.2357,-4.2321,-4.1977,-4.1596,-4.118,-4.1162,-4.0745,-4.0057,-3.9968,-3.9499,-3.8653,-3.8492,-3.8169,-3.7649,-3.7649,-3.7274,-3.6523,-3.7238,-3.7274,-3.6523,-3.606,-3.5703,-3.5364,-3.4936,-3.4687,-3.4704,-3.5025,-3.524,-3.5364,-3.606,-3.672,-3.7219,-3.8308,-3.895,-3.895,-3.9539,-4.0253,-4.102,-4.1109,-4.1306,-4.1716,-4.1341,-4.127,-4.168,-4.1752,-4.193,-4.2358,-4.2733,-4.3108,-4.35,-4.3554,-4.3554,-4.3554,-4.3554,-4.3554,-4.3554,-4.3536,-4.3554,-4.3554,-4.3554,-4.3554,-4.3536,-4.3536,-4.3518,-4.3518,-4.3518,-4.3215,-4.2501,-4.2308,-4.2308,-4.2308,-4.2308,-4.2308,-4.2308,-4.2308,-4.2308,-4.2308,-4.2325,-4.2325,-4.2308,-4.2308,-4.2308,-4.2325,-4.2308,-4.2308,-4.2308,-4.2308,-4.2308,-4.2308,-4.2308,-4.2308,-4.2919,-4.2919,-4.2919,-4.2919,-4.2919,-4.2919,-4.2919,-4.2919,-4.2919,-4.2919,-4.2919,-4.2919,-4.2919,-4.2919,-4.2919,-4.2919,-4.2919,-4.2919,-4.2919,-4.2919,-4.2919,-4.2919,-4.2919,-4.2919,-4.2919,-4.2919,-4.2919,-4.2574,-4.2012,-4.1958,-4.156,-4.08,-4.0528,-4.004,-3.9354,-3.9227,-3.8831,-3.8166,-3.8112,-3.7666,-3.672,-3.7291,-3.7273,-3.6738,-3.6684,-3.6667,-3.6631,-3.6078,-3.5739,-3.5757,-3.5917,-3.631,-3.6934,-3.7684,-3.8647,-3.9805,-4.0485,-4.0931,-4.1056,-4.0538,-4.061,-4.1556,-4.1645,-4.1984,-4.2644,-4.2269,-4.2055,-4.2501,-4.2733,-4.3108,-4.3568,-4.3729,-4.3979,-4.4514,-4.4585,-4.4496,-4.4567,-4.4585,-4.4585,-4.4585,-4.4585,-4.4549,-4.4585,-4.4585,-4.4514,-4.4496,-4.4585,-4.4585,-4.4585,-4.4585,-4.4053,-4.3233,-4.268,-4.2483,-4.2379,-4.2308,-4.2308,-4.2308,-4.2504,-4.2608,-4.2662,-4.2697,-4.284,-4.2912,-4.2715,-4.2662,-4.259,-4.2608,-4.2626,-4.2662,-4.2822,-4.2912,-4.2947,-4.2947,-4.2644,-4.2919,-4.2919,-4.2937,-4.2919,-4.2919,-4.2919,-4.2919,-4.2919,-4.2919,-4.2919,-4.2955,-4.2919,-4.2955,-4.2919,-4.2919,-4.2919,-4.2919,-4.2919,-4.2919,-4.2919,-4.2919,-4.2919,-4.2919,-4.2919,-4.2919,-4.2919,-4.2919,-4.2828,-4.2719,-4.2737,-4.2338,-4.1504,-4.0762,-4.0309,-4.0033,-3.9995,-3.9866,-3.9682,-3.9681,-3.8968,-3.7595,-3.7559,-3.7559,-3.7506,-3.7506,-3.7488,-3.7541,-3.7416,-3.7381,-3.7434,-3.8041,-3.8468,-3.8629,-3.9289,-3.9734,-3.9912,-4.0039,-4.0305,-4.102,-4.1038,-4.1663,-4.309,-4.3233,-4.3515,-4.4228,-4.4264,-4.4,-4.3697,-4.4018,-4.43,-4.4478,-4.4496,-4.4585,-4.4781,-4.4763,-4.4585,-4.4692,-4.4585,-4.4585,-4.4585,-4.4781,-4.4603,-4.4781,-4.4781,-4.471,-4.4835,-4.4888,-4.487,-4.4852,-4.4835,-4.4767,-4.4339,-4.3875,-4.3161,-4.2644,-4.2305,-4.2501,-4.2504,-4.2947,-4.3304,-4.3465,-4.3857,-4.4357,-4.3893,-4.375,-4.3411,-4.3393,-4.3372,-4.3411,-4.3426,-4.3786,-4.4282,-4.4353,-4.4228,-4.3786,-4.3336,-4.2955,-4.3407,-4.3336,-4.2955,-4.2919,-4.2919,-4.2955,-4.3389,-4.3607,-4.3661,-4.4095,-4.3788,-4.2937,-4.2919,-4.2919,-4.2919,-4.2919,-4.2919,-4.2919,-4.2919,-4.2919,-4.2919,-4.2919,-4.2919,-4.2919,-4.2919,-4.2919,-4.2882,-4.2862,-4.2661,-4.2314,-4.1857,-4.1381,-4.0856,-4.0724,-4.0415,-3.9895,-3.9877,-3.9593,-3.9058,-3.8968,-3.895,-3.895,-3.8968,-3.895,-3.8968,-3.895,-3.8968,-3.8986,-3.9307,-3.9449,-3.9449,-4.0182,-4.061,-4.0646,-4.1074,-4.1448,-4.179,-4.2234,-4.2804,-4.3461,-4.3907,-4.4282,-4.4585,-4.5013,-4.5195,-4.4946,-4.4692,-4.4763,-4.5209,-4.532,-4.5517,-4.5909,-4.6016,-4.5998,-4.6016,-4.5998,-4.6034,-4.6016,-4.6034,-4.5998,-4.6016,-4.6016,-4.6016,-4.6016,-4.5998,-4.5945,-4.5998,-4.6016,-4.582,-4.541,-4.5035,-4.4553,-4.3822,-4.3661,-4.3643,-4.3697,-4.3907,-4.4139,-4.4193,-4.4317,-4.4567,-4.4621,-4.4353,-4.4157,-4.4143,-4.4139,-4.4157,-4.4264,-4.4264,-4.4585,-4.4585,-4.4585,-4.4232,-4.3463,-4.3064,-4.3769,-4.3751,-4.3281,-4.3481,-4.3552,-4.3607,-4.4168,-4.4421,-4.4494,-4.5055,-4.4657,-4.3661,-4.3552,-4.3552,-4.3516,-4.3336,-4.3226,-4.3191,-4.3028,-4.2919,-4.2919,-4.2919,-4.2919,-4.2919,-4.2919,-4.29,-4.2862,-4.2841,-4.2764,-4.2704,-4.2566,-4.2197,-4.164,-4.1453,-4.1145,-4.0646,-4.0556,-4.0574,-4.0574,-4.0574,-4.036,-3.9948,-3.9877,-3.9877,-3.9877,-3.9877,-3.9877,-3.9877,-4.011,-4.0235,-4.0233,-4.1002,-4.152,-4.177,-4.2287,-4.2715,-4.2912,-4.3483,-4.3872,-4.4161,-4.466,-4.5053,-4.5298,-4.5802,-4.6105,-4.607,-4.5588,-4.5588,-4.5998,-4.6123,-4.6409,-4.6926,-4.6998,-4.6998,-4.6944,-4.6998,-4.6944,-4.6998,-4.6837,-4.6998,-4.698,-4.6926,-4.6873,-4.6873,-4.6926,-4.6998,-4.6998,-4.6926,-4.673,-4.623,-4.6123,-4.5677,-4.4835,-4.446,-4.4585,-4.4674,-4.4674,-4.4924,-4.4981,-4.5049,-4.5285,-4.5695,-4.5249,-4.4963,-4.4946,-4.4946,-4.5071,-4.5195,-4.5249,-4.5249,-4.5481,-4.5302,-4.5302,-4.2937,-4.3064,-4.3769,-4.4114,-4.4095,-4.4802,-4.5146,-4.5037,-4.52,-4.5254,-4.5254,-4.5363,-4.5291,-4.5182,-4.52,-4.5164,-4.5055,-4.4349,-4.4023,-4.3969,-4.3335,-4.2955,-4.2919,-4.2919,-4.2973,-4.3118,-4.3155,-4.3007,-4.2875,-4.2821,-4.2686,-4.2524,-4.2503,-4.2407,-4.2221,-4.2183,-4.2198,-4.2019,-4.2002,-4.2109,-4.2129,-4.2129,-4.1377,-4.0199,-3.993,-4.0019,-3.9966,-3.9912,-3.993,-3.9912,-4.0663,-4.1056,-4.1109,-4.1787,-4.2573,-4.3251,-4.3429,-4.3729,-4.4282,-4.4478,-4.4817,-4.5499,-4.5677,-4.6034,-4.6569,-4.6748,-4.6819,-4.6908,-4.6748,-4.6783,-4.6837,-4.6783,-4.6855,-4.6962,-4.6998,-4.6998,-4.6998,-4.6998,-4.6998,-4.6998,-4.6998,-4.6998,-4.6998,-4.6998,-4.6998,-4.6998,-4.6998,-4.6998,-4.6998,-4.6998,-4.6926,-4.689,-4.6748,-4.6391,-4.4995,-4.4959,-4.487,-4.4977,-4.5534,-4.5749,-4.6016,-4.6284,-4.6551,-4.6623,-4.6105,-4.5802,-4.5784,-4.5891,-4.6105,-4.6266,-4.6462,-4.6534,-4.6284,-4.6694,-4.6623,-4.3988,-4.444,-4.4747,-4.4856,-4.4892,-4.5182,-4.5291,-4.5345,-4.587,-4.6069,-4.6178,-4.6613,-4.6848,-4.683,-4.6848,-4.6269,-4.5327,-4.4983,-4.4874,-4.4838,-4.4566,-4.444,-4.4459,-4.444,-4.4421,-4.444,-4.4421,-4.4129,-4.3505,-4.2996,-4.2607,-4.2503,-4.2407,-4.2328,-4.2308,-4.2308,-4.2308,-4.2308,-4.2308,-4.2308,-4.2325,-4.2308,-4.1984,-4.1484,-4.1431,-4.1431,-4.1431,-4.1431,-4.1431,-4.1448,-4.1736,-4.1877,-4.193,-4.2626,-4.3411,-4.4086,-4.4193,-4.4317,-4.4603,-4.5106,-4.5499,-4.5784,-4.6302,-4.6641,-4.6949,-4.6998,-4.6998,-4.6998,-4.6998,-4.6998,-4.6998,-4.6998,-4.6998,-4.6998,-4.6998,-4.6998,-4.6998,-4.6998,-4.6998,-4.6998,-4.6998,-4.6998,-4.6998,-4.6998,-4.6998,-4.6998,-4.6998,-4.6998,-4.6998,-4.6998,-4.6998,-4.6998,-4.698,-4.6842,-4.6373,-4.6159,-4.6159,-4.6195,-4.6427,-4.648,-4.6694,-4.6676,-4.6855,-4.6855,-4.6534,-4.648,-4.6373,-4.6427,-4.6694,-4.6748,-4.6998,-4.6998,-4.698,-4.6998,-4.6998,-4.4403,-4.4947,-4.549,-4.5689,-4.5707,-4.5961,-4.6087,-4.6142,-4.6649,-4.6902,-4.7011,-4.7482,-4.7699,-4.7699,-4.7699,-4.7156,-4.6106,-4.5834,-4.5689,-4.5653,-4.5417,-4.5291,-4.5291,-4.5291,-4.5291,-4.5291,-4.5251,-4.4881,-4.427,-4.3614,-4.3279,-4.3194,-4.3078,-4.2894,-4.2715,-4.268,-4.2573,-4.2379,-4.2308,-4.2415,-4.2626,-4.268,-4.2804,-4.3001,-4.3036,-4.2787,-4.2361,-4.2308,-4.2308,-4.2325,-4.2537,-4.2787,-4.3054,-4.3554,-4.4214,-4.487,-4.4999,-4.5102,-4.5392,-4.5891,-4.6177,-4.6212,-4.6659,-4.6998,-4.6998,-4.6998,-4.6998,-4.6998,-4.6998,-4.6998,-4.6998,-4.6998,-4.6998,-4.6998,-4.6998,-4.6998,-4.6998,-4.6998,-4.6998,-4.6998,-4.6998,-4.6998,-4.6998,-4.6998,-4.6998,-4.6998,-4.6998,-4.6998,-4.6998,-4.6998,-4.6998,-4.6998,-4.6998,-4.698,-4.6766,-4.6676,-4.6676,-4.673,-4.673,-4.6908,-4.6998,-4.6998,-4.6998,-4.6998,-4.6998,-4.6998,-4.6998,-4.6998,-4.6998,-4.6998,-4.6998,-4.6998,-4.6998,-4.6998,-4.6998,-4.415,-4.4512,-4.5834,-4.6504,-4.6613,-4.7192,-4.7627,-4.7536,-4.7609,-4.7572,-4.7572,-4.7699,-4.7699,-4.7699,-4.7699,-4.7645,-4.7409,-4.6794,-4.6504,-4.6468,-4.5816,-4.5508,-4.5526,-4.5562,-4.5542,-4.5506,-4.5224,-4.5063,-4.4839,-4.4656,-4.4518,-4.4539,-4.4392,-4.4014,-4.3497,-4.3483,-4.3144,-4.268,-4.2555,-4.2822,-4.3411,-4.35,-4.3765,-4.4353,-4.4407,-4.3804,-4.2504,-4.245,-4.2501,-4.2557,-4.3126,-4.3857,-4.441,-4.4585,-4.4963,-4.5659,-4.5802,-4.6177,-4.6766,-4.6855,-4.6855,-4.6873,-4.6985,-4.6998,-4.6998,-4.6998,-4.6998,-4.6998,-4.6998,-4.6998,-4.6998,-4.7069,-4.7069,-4.6998,-4.6998,-4.6998,-4.6998,-4.6998,-4.6998,-4.6998,-4.6998,-4.6998,-4.6998,-4.6998,-4.6998,-4.6998,-4.6998,-4.6998,-4.6998,-4.6998,-4.6998,-4.6998,-4.6998,-4.6998,-4.6998,-4.698,-4.698,-4.6962,-4.6944,-4.6998,-4.6998,-4.6998,-4.6998,-4.6998,-4.6998,-4.6998,-4.6998,-4.6998,-4.6998,-4.6998,-4.6998,-4.6998,-4.6998,-4.6998,-4.6998,-4.5236,-4.587,-4.6884,-4.7337,-4.7373,-4.7588,-4.7699,-4.7699,-4.7699,-4.7699,-4.7699,-4.7699,-4.7699,-4.7699,-4.7699,-4.7699,-4.7681,-4.7428,-4.7316,-4.7265,-4.7047,-4.6902,-4.6902,-4.6939,-4.6915,-4.6705,-4.6197,-4.5834,-4.5574,-4.5079,-4.4732,-4.4624,-4.4621,-4.4478,-4.4264,-4.4228,-4.4089,-4.3929,-4.3893,-4.4036,-4.4228,-4.4246,-4.4371,-4.4549,-4.4585,-4.4317,-4.3929,-4.3893,-4.3893,-4.3857,-4.4125,-4.4603,-4.5249,-4.5427,-4.582,-4.6498,-4.6623,-4.6676,-4.6926,-4.6998,-4.6998,-4.6998,-4.7015,-4.6998,-4.6998,-4.7051,-4.7051,-4.7033,-4.6998,-4.6998,-4.7069,-4.7538,-4.7609,-4.7069,-4.6998,-4.7069,-4.7122,-4.7069,-4.6998,-4.6998,-4.6998,-4.6998,-4.6998,-4.6998,-4.6998,-4.6998,-4.6998,-4.6998,-4.6998,-4.6998,-4.6998,-4.6998,-4.6998,-4.6998,-4.6998,-4.6998,-4.6998,-4.6998,-4.6998,-4.6998,-4.6998,-4.6998,-4.6998,-4.6998,-4.6998,-4.6998,-4.6998,-4.6998,-4.6998,-4.6998,-4.6998,-4.6998,-4.6998,-4.6998,-4.6998,-4.578,-4.6576,-4.7373,-4.7699,-4.7699,-4.7699,-4.7699,-4.7699,-4.7699,-4.7699,-4.7699,-4.7699,-4.7699,-4.7699,-4.7699,-4.7699,-4.7699,-4.7699,-4.7699,-4.7699,-4.7699,-4.7699,-4.7678,-4.7636,-4.7551,-4.7331,-4.6877,-4.6535,-4.6342,-4.5895,-4.5583,-4.5499,-4.5499,-4.5338,-4.5066,-4.5053,-4.4924,-4.4656,-4.4567,-4.4745,-4.4977,-4.5053,-4.5195,-4.5445,-4.5499,-4.5499,-4.5499,-4.5499,-4.5213,-4.4803,-4.4874,-4.5427,-4.6141,-4.6266,-4.648,-4.6837,-4.698,-4.698,-4.6998,-4.6998,-4.7158,-4.7354,-4.7449,-4.7604,-4.7765,-4.7854,-4.7854,-4.7854,-4.7907,-4.7836,-4.7961,-4.8264,-4.8336,-4.7943,-4.7907,-4.7854,-4.7854,-4.7854,-4.7872,-4.789,-4.7658,-4.7502,-4.7449,-4.7127,-4.7015,-4.6998,-4.6998,-4.6998,-4.6998,-4.6998,-4.6998,-4.6998,-4.6998,-4.6998,-4.6998,-4.6998,-4.6998,-4.6998,-4.6998,-4.6998,-4.6998,-4.6998,-4.6998,-4.6998,-4.6998,-4.6998,-4.6998,-4.6998,-4.6998,-4.6998,-4.6998,-4.6998,-4.6998,-4.6998,-4.6998,-4.5798,-4.6649,-4.7391,-4.7699,-4.7699,-4.7699,-4.7699,-4.7699,-4.7699,-4.7699,-4.7699,-4.7699,-4.7699,-4.7699,-4.7699,-4.7699,-4.7699,-4.7678,-4.7678,-4.7678,-4.7657,-4.7636,-4.7657,-4.7554,-4.7403,-4.7245,-4.7147,-4.7062,-4.686,-4.6806,-4.6998,-4.6783,-4.673,-4.6605,-4.5998,-4.5856,-4.5552,-4.5049,-4.487,-4.5249,-4.5838,-4.5856,-4.6141,-4.6801,-4.6819,-4.6801,-4.6748,-4.6712,-4.6177,-4.5106,-4.5552,-4.6177,-4.6801,-4.6998,-4.6944,-4.6998,-4.6998,-4.7087,-4.7069,-4.7194,-4.7479,-4.8163,-4.8288,-4.8514,-4.8978,-4.8972,-4.899,-4.9008,-4.9061,-4.9133,-4.9115,-4.9311,-4.9353,-4.9418,-4.9168,-4.9061,-4.9222,-4.915,-4.9008,-4.899,-4.8657,-4.8252,-4.8234,-4.7699,-4.7372,-4.7158,-4.7176,-4.7194,-4.6998,-4.6998,-4.6998,-4.6998,-4.6998,-4.6998,-4.6998,-4.6998,-4.6998,-4.6998,-4.6998,-4.6998,-4.6998,-4.6998,-4.6998,-4.6998,-4.6998,-4.6998,-4.6998,-4.6998,-4.6998,-4.6998,-4.6998,-4.6998,-4.6998,-4.6998,-4.6998,-4.6124,-4.7373,-4.7609,-4.7699,-4.7699,-4.7699,-4.7699,-4.7699,-4.7699,-4.7699,-4.7699,-4.7699,-4.7699,-4.7699,-4.7699,-4.7699,-4.7696,-4.7593,-4.7615,-4.7675,-4.7472,-4.7472,-4.7533,-4.7511,-4.7381,-4.7201,-4.7196,-4.7133,-4.702,-4.6998,-4.6998,-4.6998,-4.698,-4.6908,-4.6676,-4.6641,-4.6587,-4.6409,-4.6337,-4.6373,-4.6569,-4.6641,-4.6766,-4.6944,-4.6998,-4.6998,-4.6998,-4.6998,-4.6873,-4.6462,-4.6534,-4.6766,-4.6985,-4.7015,-4.7069,-4.7069,-4.7069,-4.7324,-4.777,-4.7895,-4.8229,-4.8907,-4.9032,-4.9103,-4.924,-4.9293,-4.9293,-4.9293,-4.9293,-4.9347,-4.9418,-4.9846,-5.037,-5.0816,-5.012,-4.9436,-4.94,-4.9293,-4.9293,-4.9257,-4.9133,-4.9049,-4.896,-4.8746,-4.8407,-4.802,-4.7841,-4.7711,-4.7461,-4.714,-4.7217,-4.7051,-4.7015,-4.6998,-4.6998,-4.6998,-4.6998,-4.6998,-4.6998,-4.6998,-4.6998,-4.6998,-4.6998,-4.6998,-4.6998,-4.6998,-4.6998,-4.6998,-4.6998,-4.6998,-4.6998,-4.6998,-4.6998,-4.6998,-4.6998,-4.625,-4.7699,-4.7699,-4.7699,-4.7699,-4.7699,-4.7699,-4.7699,-4.7699,-4.7699,-4.7699,-4.7699,-4.7699,-4.7699,-4.7699,-4.7675,-4.7615,-4.7551,-4.7511,-4.749,-4.7385,-4.7341,-4.7359,-4.7377,-4.7272,-4.7116,-4.7111,-4.7066,-4.702,-4.6998,-4.6998,-4.6998,-4.6998,-4.6998,-4.6962,-4.6998,-4.6998,-4.6962,-4.6998,-4.6998,-4.6998,-4.6998,-4.698,-4.6998,-4.6998,-4.6998,-4.698,-4.6778,-4.6749,-4.6916,-4.698,-4.6998,-4.7033,-4.7337,-4.7502,-4.752,-4.7765,-4.8211,-4.8514,-4.8657,-4.9032,-4.9638,-4.9792,-5.0006,-5.0263,-5.0316,-5.0316,-5.037,-5.0316,-5.0316,-5.037,-5.0744,-5.1191,-5.1422,-5.0852,-5.0316,-5.0316,-5.037,-5.0292,-5.022,-5.0031,-4.9799,-4.9799,-4.9543,-4.9133,-4.8782,-4.8657,-4.8443,-4.8175,-4.7765,-4.7502,-4.7479,-4.7247,-4.7176,-4.7194,-4.7194,-4.7176,-4.7158,-4.6998,-4.6998,-4.6998,-4.6998,-4.6998,-4.6998,-4.6998,-4.6998,-4.6998,-4.6998,-4.6998,-4.6998,-4.6998,-4.6998,-4.6998,-4.6998,-4.6998,-4.6196,-4.7569,-4.7681,-4.7699,-4.7699,-4.7699,-4.7699,-4.7699,-4.7699,-4.7699,-4.7699,-4.7699,-4.7699,-4.7699,-4.7657,-4.7615,-4.7511,-4.7446,-4.7363,-4.732,-4.7254,-4.7272,-4.7201,-4.7241,-4.7156,-4.7025,-4.6998,-4.702,-4.6998,-4.6998,-4.6998,-4.6998,-4.6998,-4.6998,-4.6998,-4.6998,-4.6998,-4.6998,-4.6998,-4.6911,-4.6842,-4.6801,-4.6819,-4.6842,-4.6975,-4.6998,-4.69,-4.6696,-4.6647,-4.714,-4.7028,-4.6982,-4.713,-4.7877,-4.8199,-4.8359,-4.8782,-4.915,-4.94,-4.946,-4.9757,-5.0459,-5.062,-5.0905,-5.1333,-5.1422,-5.1422,-5.1387,-5.1672,-5.1476,-5.1476,-5.1637,-5.1619,-5.1672,-5.1601,-5.1654,-5.169,-5.169,-5.169,-5.1672,-5.1012,-5.0709,-5.0441,-5.0066,-4.9561,-4.9531,-4.9406,-4.9192,-4.8889,-4.8514,-4.8318,-4.8282,-4.7907,-4.7426,-4.7426,-4.7426,-4.739,-4.7377,-4.7087,-4.6998,-4.6998,-4.6998,-4.6998,-4.6998,-4.6998,-4.6998,-4.6998,-4.6998,-4.6998,-4.6998,-4.6998,-4.6998,-4.6998,-4.6998,-4.6998,-4.587,-4.6812,-4.7425,-4.7699,-4.7699,-4.7699,-4.7699,-4.7699,-4.7699,-4.7699,-4.7699,-4.7699,-4.7696,-4.7696,-4.7593,-4.7533,-4.7468,-4.7316,-4.7201,-4.7093,-4.716,-4.7156,-4.7088,-4.7133,-4.7111,-4.702,-4.6998,-4.6998,-4.6998,-4.6998,-4.6998,-4.6998,-4.6998,-4.6998,-4.6998,-4.6998,-4.6998,-4.6998,-4.6998,-4.6795,-4.6501,-4.6429,-4.6464,-4.6524,-4.6825,-4.7033,-4.703,-4.6994,-4.7294,-4.7536,-4.7056,-4.6877,-4.7761,-4.8181,-4.8573,-4.9014,-4.9264,-4.9632,-5.0102,-5.0298,-5.0566,-5.1244,-5.1333,-5.1512,-5.1619,-5.169,-5.169,-5.169,-5.169,-5.169,-5.169,-5.169,-5.169,-5.169,-5.169,-5.169,-5.169,-5.169,-5.169,-5.1637,-5.153,-5.1422,-5.1405,-5.1244,-5.0798,-5.0405,-5.0096,-4.9917,-4.9638,-4.9299,-4.9139,-4.9067,-4.8675,-4.8264,-4.8229,-4.8193,-4.8068,-4.7961,-4.7658,-4.7247,-4.7247,-4.714,-4.7194,-4.7122,-4.6998,-4.6998,-4.6998,-4.6998,-4.6998,-4.6998,-4.6998,-4.6998,-4.6998,-4.6998,-4.6998,-4.5436,-4.6522,-4.6975,-4.7355,-4.7681,-4.7699,-4.7699,-4.7699,-4.7699,-4.7699,-4.7699,-4.7699,-4.7657,-4.7615,-4.7551,-4.7468,-4.7356,-4.7178,-4.7066,-4.702,-4.7066,-4.7048,-4.7025,-4.7048,-4.7066,-4.6998,-4.6998,-4.6998,-4.6998,-4.6998,-4.6998,-4.6998,-4.6998,-4.6998,-4.6998,-4.6998,-4.6998,-4.6998,-4.6998,-4.6842,-4.6613,-4.6308,-4.6439,-4.665,-4.7024,-4.7364,-4.8051,-4.7583,-4.775,-4.7824,-4.7186,-4.7168,-4.8526,-4.9049,-4.9478,-4.9799,-5.0298,-5.0548,-5.0976,-5.1083,-5.1226,-5.1654,-5.169,-5.169,-5.169,-5.169,-5.169,-5.169,-5.169,-5.169,-5.169,-5.169,-5.169,-5.169,-5.169,-5.169,-5.169,-5.169,-5.169,-5.169,-5.1672,-5.1654,-5.169,-5.169,-5.1619,-5.1012,-5.1012,-5.0834,-5.0691,-5.0352,-4.9995,-4.9781,-4.9442,-4.9168,-4.9133,-4.9043,-4.8907,-4.8782,-4.8568,-4.8122,-4.7841,-4.7663,-4.7484,-4.7247,-4.6998,-4.6998,-4.6998,-4.6998,-4.6998,-4.6998,-4.6998,-4.6998,-4.6998,-4.6998,-4.6998,-4.4892,-4.616,-4.6395,-4.6902,-4.7479,-4.7645,-4.7699,-4.7699,-4.7699,-4.7699,-4.7678,-4.7696,-4.7597,-4.7511,-4.7446,-4.7338,-4.7178,-4.7088,-4.702,-4.702,-4.702,-4.7002,-4.7002,-4.702,-4.702,-4.6998,-4.6998,-4.6998,-4.6998,-4.6998,-4.6998,-4.6998,-4.6998,-4.6998,-4.6998,-4.6998,-4.6998,-4.6998,-4.6865,-4.6666,-4.6477,-4.6087,-4.615,-4.6664,-4.7211,-4.7721,-4.8322,-4.8181,-4.8026,-4.8496,-4.7771,-4.8253,-4.9311,-4.9944,-5.057,-5.0606,-5.1191,-5.144,-5.1494,-5.1601,-5.1637,-5.169,-5.169,-5.169,-5.169,-5.169,-5.169,-5.169,-5.169,-5.169,-5.169,-5.169,-5.169,-5.169,-5.169,-5.169,-5.169,-5.169,-5.169,-5.169,-5.169,-5.169,-5.169,-5.169,-5.169,-5.169,-5.169,-5.1654,-5.1458,-5.1262,-5.0834,-5.0673,-5.0405,-5.0281,-5.0263,-4.9757,-4.9656,-4.9513,-4.9347,-4.8907,-4.8461,-4.8354,-4.8086,-4.7265,-4.6998,-4.7015,-4.7015,-4.6998,-4.6998,-4.6998,-4.6998,-4.6998,-4.6998,-4.6998,-4.7051,-4.424,-4.4603,-4.5943,-4.6595,-4.6812,-4.7409,-4.7717,-4.7699,-4.7678,-4.7696,-4.7696,-4.7575,-4.7511,-4.7464,-4.7312,-4.7178,-4.7066,-4.702,-4.6998,-4.6998,-4.6998,-4.6998,-4.6998,-4.6998,-4.6998,-4.6998,-4.6998,-4.6998,-4.6998,-4.6998,-4.6998,-4.6998,-4.6998,-4.6998,-4.6998,-4.6998,-4.6911,-4.6801,-4.6525,-4.6126,-4.5734,-4.5379,-4.5501,-4.6246,-4.7066,-4.7674,-4.8016,-4.8374,-4.8796,-4.9345,-4.9833,-5.0374,-5.0582,-5.0152,-5.0354,-5.118,-5.1547,-5.169,-5.169,-5.169,-5.169,-5.169,-5.169,-5.169,-5.169,-5.169,-5.169,-5.169,-5.169,-5.169,-5.169,-5.169,-5.169,-5.169,-5.169,-5.169,-5.169,-5.169,-5.169,-5.169,-5.169,-5.169,-5.169,-5.169,-5.169,-5.169,-5.169,-5.169,-5.1601,-5.1565,-5.1458,-5.1422,-5.1458,-5.1405,-5.1405,-5.0744,-5.0334,-5.0209,-4.9995,-4.9585,-4.9246,-4.9174,-4.8746,-4.7961,-4.7337,-4.7176,-4.7122,-4.7087,-4.6998,-4.6998,-4.6998,-4.7033,-4.7229,-4.7408,-4.739,-4.3715,-4.4204,-4.5381,-4.6124,-4.6613,-4.7355,-4.7675,-4.7593,-4.7593,-4.7554,-4.7472,-4.7428,-4.7363,-4.7334,-4.7263,-4.7129,-4.7043,-4.6998,-4.6998,-4.6998,-4.6998,-4.6998,-4.6998,-4.6998,-4.6998,-4.6998,-4.6998,-4.6998,-4.6998,-4.6998,-4.6998,-4.6998,-4.6998,-4.6998,-4.6911,-4.6684,-4.6613,-4.6471,-4.6045,-4.5615,-4.5353,-4.5086,-4.5618,-4.6653,-4.7291,-4.794,-4.8627,-4.8607,-4.8939,-4.9153,-4.9269,-4.9688,-4.9889,-4.9948,-4.9958,-5.1286,-5.1665,-5.169,-5.169,-5.169,-5.169,-5.169,-5.169,-5.169,-5.169,-5.169,-5.169,-5.169,-5.169,-5.169,-5.169,-5.169,-5.169,-5.169,-5.169,-5.169,-5.169,-5.169,-5.169,-5.169,-5.169,-5.169,-5.169,-5.169,-5.169,-5.169,-5.169,-5.169,-5.169,-5.169,-5.169,-5.169,-5.1672,-5.1672,-5.1672,-5.1333,-5.0923,-5.0816,-5.0673,-5.0263,-5.0031,-4.9959,-4.9418,-4.8669,-4.8157,-4.7765,-4.7484,-4.7502,-4.7247,-4.7122,-4.7426,-4.7676,-4.7765,-4.7818,-4.789,-4.3262,-4.3914,-4.4729,-4.5526,-4.6323,-4.712,-4.7491,-4.7493,-4.749,-4.7446,-4.732,-4.7298,-4.7249,-4.7201,-4.7174,-4.7088,-4.6998,-4.6998,-4.6998,-4.6998,-4.6998,-4.6998,-4.6998,-4.6998,-4.6998,-4.6998,-4.6778,-4.6929,-4.6998,-4.6998,-4.6998,-4.6934,-4.6934,-4.6842,-4.6725,-4.6266,-4.613,-4.6036,-4.5693,-4.5375,-4.5446,-4.5744,-4.6359,-4.7504,-4.7787,-4.8321,-4.895,-4.8991,-4.8873,-4.886,-4.8776,-4.8717,-4.9019,-4.908,-4.9775,-5.1008,-5.1401,-5.1513,-5.1538,-5.169,-5.169,-5.169,-5.169,-5.169,-5.169,-5.169,-5.169,-5.169,-5.169,-5.169,-5.169,-5.169,-5.169,-5.169,-5.169,-5.169,-5.169,-5.169,-5.169,-5.169,-5.169,-5.169,-5.169,-5.169,-5.169,-5.169,-5.169,-5.169,-5.169,-5.169,-5.169,-5.169,-5.169,-5.169,-5.169,-5.169,-5.1422,-5.1351,-5.128,-5.1048,-5.0869,-5.0744,-5.0174,-4.971,-4.9228,-4.8835,-4.8413,-4.8056,-4.8032,-4.8104,-4.8229,-4.8336,-4.8461,-4.8603,-4.8687,-4.2955,-4.3118,-4.3896,-4.4711,-4.5508,-4.6302,-4.6982,-4.7417,-4.7432,-4.7428,-4.7276,-4.7227,-4.7219,-4.7174,-4.7066,-4.7002,-4.7002,-4.6998,-4.6998,-4.6998,-4.6998,-4.6998,-4.6998,-4.6998,-4.6934,-4.6865,-4.6501,-4.6613,-4.6708,-4.6801,-4.6911,-4.6801,-4.6453,-4.6284,-4.6217,-4.5839,-4.577,-4.6129,-4.5817,-4.5643,-4.5848,-4.6379,-4.6782,-4.7215,-4.7647,-4.811,-4.8465,-4.8623,-4.8807,-4.8869,-4.9291,-4.9529,-4.9688,-4.9688,-4.9763,-5.0135,-5.0505,-5.0901,-5.0982,-5.1315,-5.1521,-5.1495,-5.164,-5.169,-5.169,-5.169,-5.169,-5.169,-5.169,-5.169,-5.169,-5.169,-5.169,-5.169,-5.169,-5.169,-5.169,-5.169,-5.169,-5.169,-5.169,-5.169,-5.169,-5.169,-5.169,-5.169,-5.169,-5.169,-5.169,-5.169,-5.169,-5.169,-5.169,-5.169,-5.169,-5.169,-5.169,-5.169,-5.1672,-5.1619,-5.144,-5.1244,-5.1405,-5.0923,-5.0405,-4.9906,-4.9513,-4.9228,-4.9061,-4.8978,-4.8978,-4.9067,-4.9168,-4.9329,-4.9596,-4.2919,-4.2973,-4.3711,-4.4234,-4.4684,-4.5797,-4.6452,-4.6726,-4.7136,-4.7249,-4.7138,-4.7111,-4.7088,-4.7066,-4.7002,-4.6998,-4.6998,-4.6998,-4.6998,-4.6998,-4.6998,-4.6998,-4.6998,-4.6957,-4.6888,-4.6542,-4.6308,-4.6027,-4.6151,-4.6035,-4.6017,-4.6035,-4.5835,-4.5683,-4.577,-4.5554,-4.5651,-4.5818,-4.582,-4.5974,-4.6389,-4.6742,-4.7106,-4.7487,-4.7835,-4.7968,-4.8099,-4.8195,-4.8386,-4.8418,-4.87,-4.8762,-4.8762,-4.8762,-4.8779,-4.8824,-4.9368,-4.9855,-5.0254,-5.0839,-5.0946,-5.0955,-5.1228,-5.169,-5.169,-5.169,-5.169,-5.169,-5.169,-5.169,-5.1665,-5.169,-5.169,-5.169,-5.169,-5.169,-5.169,-5.169,-5.169,-5.169,-5.169,-5.169,-5.169,-5.169,-5.169,-5.169,-5.169,-5.169,-5.169,-5.169,-5.169,-5.169,-5.169,-5.169,-5.169,-5.169,-5.169,-5.169,-5.169,-5.1672,-5.1672,-5.1654,-5.169,-5.169,-5.1226,-5.0834,-5.0548,-5.0013,-4.9471,-4.9525,-4.965,-4.9852,-5.0049,-5.0548,-5.0762,-4.2862,-4.2878,-4.3453,-4.3794,-4.4025,-4.515,-4.5763,-4.6108,-4.6627,-4.6914,-4.6985,-4.702,-4.702,-4.6998,-4.7002,-4.6998,-4.6998,-4.6998,-4.6998,-4.6998,-4.6998,-4.6998,-4.6998,-4.6957,-4.6708,-4.6186,-4.5995,-4.5657,-4.5214,-4.5028,-4.501,-4.525,-4.5197,-4.5262,-4.5374,-4.5349,-4.5459,-4.6089,-4.6407,-4.6723,-4.709,-4.7189,-4.752,-4.7819,-4.8001,-4.8001,-4.8001,-4.8033,-4.8033,-4.8049,-4.8082,-4.8179,-4.8147,-4.8212,-4.8179,-4.826,-4.8639,-4.8917,-4.9445,-4.9942,-5.0153,-5.0321,-5.0669,-5.1393,-5.1444,-5.1546,-5.1564,-5.1444,-5.164,-5.1589,-5.1538,-5.1564,-5.169,-5.169,-5.169,-5.169,-5.169,-5.169,-5.169,-5.169,-5.169,-5.169,-5.169,-5.169,-5.169,-5.169,-5.169,-5.169,-5.169,-5.169,-5.169,-5.169,-5.169,-5.169,-5.169,-5.169,-5.169,-5.169,-5.169,-5.169,-5.169,-5.169,-5.169,-5.169,-5.169,-5.153,-5.1101,-5.0477,-4.9917,-5.0316,-5.0637,-5.0727,-5.0976,-5.144,-5.1619,-4.2745,-4.2647,-4.2817,-4.3248,-4.3778,-4.3886,-4.4755,-4.5849,-4.605,-4.6503,-4.6967,-4.6998,-4.6998,-4.6998,-4.6998,-4.6998,-4.6998,-4.6998,-4.6998,-4.6998,-4.6998,-4.6998,-4.6998,-4.6911,-4.6666,-4.6119,-4.5726,-4.5161,-4.4569,-4.4162,-4.4524,-4.5108,-4.4827,-4.5077,-4.5296,-4.5349,-4.5896,-4.6616,-4.7238,-4.757,-4.7769,-4.7819,-4.7901,-4.7951,-4.8001,-4.8001,-4.8001,-4.8001,-4.8001,-4.8001,-4.8001,-4.8001,-4.8001,-4.8001,-4.8001,-4.8066,-4.8115,-4.8324,-4.8608,-4.9278,-4.9763,-5.0039,-5.0338,-5.0776,-5.0839,-5.1375,-5.1367,-5.0991,-5.1228,-5.1323,-5.1245,-5.1315,-5.164,-5.169,-5.169,-5.169,-5.169,-5.169,-5.169,-5.169,-5.169,-5.169,-5.169,-5.169,-5.169,-5.169,-5.169,-5.169,-5.169,-5.169,-5.169,-5.169,-5.169,-5.169,-5.169,-5.169,-5.169,-5.169,-5.169,-5.169,-5.169,-5.169,-5.169,-5.169,-5.169,-5.169,-5.1672,-5.1137,-5.0923,-5.1351,-5.1547,-5.1351,-5.1298,-5.1565,-5.1672,-4.2627,-4.2546,-4.2586,-4.2765,-4.3048,-4.3432,-4.4196,-4.5118,-4.5672,-4.6311,-4.6998,-4.6998,-4.6998,-4.6998,-4.6998,-4.6998,-4.6998,-4.6998,-4.6998,-4.6998,-4.6998,-4.6998,-4.6998,-4.6865,-4.6548,-4.581,-4.5355,-4.4756,-4.396,-4.3759,-4.3818,-4.416,-4.4557,-4.4741,-4.5013,-4.5751,-4.6608,-4.7239,-4.7802,-4.8001,-4.8001,-4.8001,-4.8001,-4.8001,-4.8001,-4.8001,-4.8001,-4.8001,-4.8001,-4.8001,-4.8001,-4.8001,-4.8001,-4.8001,-4.8001,-4.8001,-4.8001,-4.8001,-4.8082,-4.8793,-4.9381,-4.9705,-4.9751,-4.9809,-5.0124,-5.046,-5.046,-5.0432,-5.0741,-5.0893,-5.0955,-5.1315,-5.169,-5.169,-5.169,-5.169,-5.169,-5.169,-5.169,-5.169,-5.169,-5.169,-5.169,-5.169,-5.169,-5.169,-5.169,-5.169,-5.169,-5.169,-5.169,-5.169,-5.169,-5.169,-5.169,-5.169,-5.169,-5.169,-5.169,-5.169,-5.169,-5.169,-5.169,-5.169,-5.169,-5.169,-5.169,-5.169,-5.169,-5.1672,-5.1672,-5.1637,-5.1654,-5.169,-5.169,-4.2526,-4.2445,-4.2425,-4.2443,-4.2514,-4.2953,-4.3568,-4.4317,-4.5106,-4.607,-4.6962,-4.6998,-4.6998,-4.6998,-4.6998,-4.6998,-4.6998,-4.6998,-4.6998,-4.6998,-4.6998,-4.6998,-4.6998,-4.6824,-4.6435,-4.558,-4.5425,-4.5001,-4.37,-4.3789,-4.3985,-4.4275,-4.4622,-4.5031,-4.5429,-4.6444,-4.7487,-4.7868,-4.8001,-4.8001,-4.8001,-4.8001,-4.8001,-4.8001,-4.8001,-4.8001,-4.8001,-4.8001,-4.8001,-4.8001,-4.8001,-4.8001,-4.8001,-4.8001,-4.8001,-4.8001,-4.8001,-4.8001,-4.8115,-4.8371,-4.8824,-4.8992,-4.9158,-4.9218,-4.944,-4.9658,-4.989,-4.96,-5.0096,-5.0467,-5.0429,-5.0785,-5.1271,-5.1271,-5.164,-5.169,-5.169,-5.169,-5.169,-5.169,-5.169,-5.169,-5.169,-5.169,-5.169,-5.169,-5.169,-5.169,-5.169,-5.169,-5.169,-5.169,-5.169,-5.169,-5.169,-5.169,-5.169,-5.169,-5.169,-5.169,-5.169,-5.169,-5.169,-5.169,-5.169,-5.169,-5.169,-5.169,-5.169,-5.169,-5.169,-5.169,-5.169,-5.169,-5.169,-4.2425,-4.2308,-4.2308,-4.2308,-4.2308,-4.2325,-4.284,-4.3711,-4.4496,-4.5641,-4.6908,-4.6998,-4.6998,-4.6998,-4.6998,-4.6998,-4.6998,-4.6998,-4.6998,-4.6998,-4.6998,-4.6998,-4.6998,-4.6865,-4.6501,-4.5734,-4.5649,-4.5205,-4.3789,-4.4121,-4.4411,-4.482,-4.536,-4.5847,-4.593,-4.7222,-4.7934,-4.8001,-4.8001,-4.8001,-4.8001,-4.8001,-4.8001,-4.8001,-4.8001,-4.8001,-4.8001,-4.8001,-4.8001,-4.8001,-4.8001,-4.8001,-4.8001,-4.8001,-4.8001,-4.8001,-4.8001,-4.8001,-4.8033,-4.8033,-4.8179,-4.8339,-4.856,-4.8807,-4.9006,-4.9278,-4.9411,-4.9023,-4.947,-4.9529,-4.9693,-5.0085,-5.0677,-5.107,-5.1418,-5.169,-5.169,-5.169,-5.169,-5.169,-5.169,-5.169,-5.169,-5.169,-5.169,-5.169,-5.169,-5.169,-5.169,-5.169,-5.169,-5.169,-5.169,-5.169,-5.169,-5.169,-5.169,-5.169,-5.169,-5.169,-5.169,-5.169,-5.169,-5.169,-5.169,-5.169,-5.169,-5.169,-5.169,-5.169,-5.169,-5.169,-5.169,-5.169,-5.169,-4.2346,-4.2308,-4.2308,-4.2308,-4.2308,-4.2308,-4.2751,-4.3661,-4.4821,-4.5998,-4.6819,-4.6998,-4.6998,-4.6998,-4.6998,-4.6998,-4.6998,-4.6998,-4.6998,-4.6998,-4.6998,-4.6998,-4.6998,-4.6911,-4.6572,-4.6144,-4.6062,-4.5776,-4.4783,-4.4625,-4.4857,-4.5337,-4.602,-4.679,-4.7206,-4.7868,-4.8001,-4.8001,-4.8001,-4.8001,-4.8001,-4.8001,-4.8001,-4.8001,-4.8001,-4.8001,-4.8001,-4.8001,-4.8001,-4.8001,-4.8001,-4.8001,-4.8001,-4.8001,-4.8001,-4.8001,-4.8001,-4.8001,-4.8001,-4.8001,-4.8001,-4.8082,-4.8262,-4.8438,-4.8371,-4.8467,-4.8435,-4.8629,-4.9165,-4.9223,-4.9188,-5.0176,-5.0766,-5.0937,-5.1271,-5.1589,-5.169,-5.169,-5.169,-5.169,-5.169,-5.169,-5.169,-5.169,-5.169,-5.169,-5.169,-5.169,-5.169,-5.169,-5.169,-5.169,-5.169,-5.169,-5.169,-5.169,-5.169,-5.169,-5.169,-5.169,-5.169,-5.169,-5.169,-5.169,-5.169,-5.169,-5.169,-5.169,-5.169,-5.169,-5.169,-5.169,-5.169,-5.169,-5.169,-4.2308,-4.2308,-4.2308,-4.2308,-4.2308,-4.2308,-4.2751,-4.3643,-4.4856,-4.5838,-4.6498,-4.6837,-4.6998,-4.6998,-4.6998,-4.6998,-4.6998,-4.6998,-4.6998,-4.6998,-4.6998,-4.6998,-4.6998,-4.6957,-4.6661,-4.6332,-4.6119,-4.5776,-4.4882,-4.4608,-4.494,-4.5658,-4.6481,-4.7138,-4.7703,-4.7968,-4.8001,-4.8001,-4.8001,-4.8001,-4.8001,-4.8001,-4.8001,-4.8001,-4.8001,-4.8001,-4.8001,-4.8001,-4.8001,-4.8001,-4.8001,-4.8001,-4.8001,-4.8001,-4.8001,-4.8001,-4.8001,-4.8001,-4.8001,-4.8001,-4.8001,-4.8033,-4.8199,-4.8382,-4.8465,-4.8862,-4.8945,-4.911,-4.9297,-4.9377,-4.9613,-5.0621,-5.1315,-5.1497,-5.1688,-5.2054,-5.2029,-5.2065,-5.1744,-5.1726,-5.169,-5.169,-5.169,-5.169,-5.169,-5.169,-5.169,-5.169,-5.169,-5.169,-5.169,-5.169,-5.169,-5.169,-5.169,-5.169,-5.169,-5.169,-5.169,-5.169,-5.169,-5.169,-5.169,-5.169,-5.169,-5.169,-5.169,-5.169,-5.169,-5.169,-5.169,-5.169,-5.169,-5.169,-5.169,-4.2308,-4.2308,-4.2308,-4.2308,-4.2308,-4.2308,-4.2769,-4.3554,-4.4317,-4.5106,-4.5873,-4.6694,-4.698,-4.6998,-4.6998,-4.6998,-4.6998,-4.6998,-4.6998,-4.6998,-4.6998,-4.6998,-4.6998,-4.6975,-4.6749,-4.6447,-4.6161,-4.5776,-4.4725,-4.475,-4.5177,-4.5699,-4.6441,-4.7139,-4.7636,-4.7934,-4.7968,-4.8001,-4.8001,-4.8001,-4.8001,-4.8001,-4.8001,-4.8001,-4.8001,-4.8001,-4.8001,-4.8001,-4.8001,-4.8001,-4.8001,-4.8001,-4.8001,-4.8001,-4.8001,-4.8001,-4.8001,-4.8001,-4.8001,-4.8001,-4.815,-4.8299,-4.8812,-4.9028,-4.9177,-4.9409,-4.9641,-4.9858,-5.0141,-5.0243,-5.0476,-5.1442,-5.2415,-5.2534,-5.2652,-5.2714,-5.2646,-5.2411,-5.194,-5.1762,-5.1708,-5.169,-5.169,-5.169,-5.169,-5.169,-5.169,-5.169,-5.169,-5.169,-5.169,-5.169,-5.169,-5.169,-5.169,-5.169,-5.169,-5.169,-5.169,-5.169,-5.169,-5.169,-5.169,-5.169,-5.169,-5.169,-5.169,-5.169,-5.169,-5.169,-5.169,-5.169,-5.169,-5.169,-5.169,-4.2308,-4.2308,-4.2308,-4.2308,-4.2308,-4.2308,-4.2769,-4.3554,-4.4282,-4.5053,-4.5856,-4.6641,-4.6926,-4.6998,-4.6998,-4.6998,-4.6998,-4.6998,-4.6998,-4.6998,-4.6998,-4.6998,-4.698,-4.6957,-4.6865,-4.6637,-4.6332,-4.5844,-4.565,-4.5402,-4.4934,-4.5175,-4.6243,-4.6891,-4.7338,-4.7736,-4.7918,-4.8001,-4.8001,-4.8001,-4.8001,-4.8001,-4.8001,-4.8001,-4.8001,-4.8001,-4.8001,-4.8001,-4.8001,-4.8001,-4.8001,-4.8001,-4.8001,-4.8001,-4.8001,-4.8001,-4.8001,-4.8001,-4.8001,-4.8001,-4.8199,-4.873,-4.9409,-4.9425,-4.9525,-4.9839,-5.0336,-5.0606,-5.086,-5.0961,-5.1327,-5.2203,-5.3002,-5.3324,-5.3421,-5.346,-5.3296,-5.2804,-5.234,-5.1744,-5.169,-5.169,-5.169,-5.169,-5.169,-5.169,-5.169,-5.169,-5.169,-5.169,-5.169,-5.169,-5.169,-5.169,-5.169,-5.169,-5.169,-5.169,-5.169,-5.169,-5.169,-5.169,-5.169,-5.169,-5.169,-5.169,-5.169,-5.169,-5.169,-5.169,-5.169,-5.169,-5.169,-5.169,-5.169,-4.2022,-4.229,-4.2308,-4.2308,-4.2308,-4.2308,-4.259,-4.3126,-4.3839,-4.4603,-4.5392,-4.6141,-4.6694,-4.698,-4.6998,-4.6998,-4.6998,-4.6998,-4.6998,-4.6998,-4.6998,-4.6998,-4.698,-4.6801,-4.6637,-4.6453,-4.5995,-4.5354,-4.5449,-4.5109,-4.4577,-4.4882,-4.5947,-4.651,-4.7023,-4.7603,-4.7968,-4.8001,-4.8001,-4.8001,-4.8001,-4.8001,-4.8001,-4.8001,-4.8001,-4.8001,-4.8001,-4.8001,-4.8001,-4.8001,-4.8001,-4.8001,-4.8001,-4.8001,-4.8001,-4.8001,-4.8001,-4.8001,-4.8001,-4.8001,-4.8431,-4.9044,-4.979,-5.0088,-5.0419,-5.0817,-5.1098,-5.1368,-5.1544,-5.1749,-5.2291,-5.2843,-5.344,-5.4015,-5.4138,-5.426,-5.3796,-5.3268,-5.2582,-5.1886,-5.169,-5.169,-5.169,-5.169,-5.169,-5.169,-5.169,-5.169,-5.169,-5.169,-5.169,-5.169,-5.169,-5.169,-5.169,-5.169,-5.169,-5.169,-5.169,-5.169,-5.169,-5.169,-5.169,-5.169,-5.169,-5.169,-5.169,-5.169,-5.169,-5.169,-5.169,-5.169,-5.169,-5.169,-5.169,-4.1538,-4.22,-4.2251,-4.2308,-4.2308,-4.2308,-4.2305,-4.2358,-4.3108,-4.3854,-4.4674,-4.5481,-4.632,-4.6873,-4.6998,-4.6998,-4.6998,-4.6998,-4.6998,-4.6998,-4.6998,-4.6998,-4.6842,-4.6501,-4.6405,-4.5895,-4.5302,-4.4763,-4.4373,-4.4173,-4.4212,-4.4638,-4.5483,-4.6129,-4.6676,-4.7587,-4.7984,-4.8001,-4.8001,-4.8001,-4.8001,-4.8001,-4.8001,-4.8001,-4.8001,-4.8001,-4.8001,-4.8001,-4.8001,-4.8001,-4.8001,-4.8001,-4.8001,-4.8001,-4.8001,-4.8001,-4.8001,-4.8001,-4.8001,-4.8001,-4.8431,-4.9061,-4.9773,-5.0386,-5.0883,-5.1496,-5.1794,-5.1931,-5.2076,-5.2573,-5.3134,-5.369,-5.4291,-5.4845,-5.5147,-5.5009,-5.4563,-5.3706,-5.2608,-5.1976,-5.169,-5.169,-5.169,-5.169,-5.169,-5.169,-5.169,-5.169,-5.169,-5.169,-5.169,-5.169,-5.169,-5.169,-5.169,-5.169,-5.169,-5.169,-5.169,-5.169,-5.169,-5.169,-5.169,-5.169,-5.169,-5.169,-5.169,-5.169,-5.169,-5.169,-5.169,-5.169,-5.169,-5.169,-5.169,-4.1217,-4.1466,-4.2055,-4.2308,-4.2308,-4.2308,-4.2308,-4.2325,-4.2483,-4.3375,-4.4567,-4.5427,-4.6212,-4.6819,-4.6962,-4.6998,-4.6998,-4.6998,-4.6998,-4.6998,-4.6998,-4.6998,-4.6888,-4.6471,-4.6235,-4.5844,-4.5152,-4.4219,-4.3935,-4.375,-4.3698,-4.4042,-4.5003,-4.5881,-4.6245,-4.7255,-4.7885,-4.7984,-4.8001,-4.8001,-4.8001,-4.8001,-4.8001,-4.8001,-4.8001,-4.8001,-4.8001,-4.8001,-4.8001,-4.8001,-4.8001,-4.8001,-4.8001,-4.8001,-4.8001,-4.8001,-4.8001,-4.8001,-4.8001,-4.805,-4.8398,-4.9044,-4.9756,-5.0502,-5.1214,-5.1959,-5.2376,-5.2447,-5.2747,-5.3332,-5.3927,-5.4485,-5.5069,-5.5605,-5.6077,-5.5686,-5.5277,-5.401,-5.2671,-5.219,-5.1833,-5.169,-5.169,-5.169,-5.169,-5.169,-5.169,-5.169,-5.169,-5.169,-5.169,-5.169,-5.169,-5.169,-5.169,-5.169,-5.169,-5.169,-5.169,-5.169,-5.169,-5.169,-5.169,-5.169,-5.169,-5.169,-5.169,-5.169,-5.169,-5.169,-5.169,-5.169,-5.169,-5.169,-5.169,-4.0788,-4.1181,-4.1948,-4.2308,-4.2308,-4.2308,-4.2308,-4.2308,-4.2308,-4.2983,-4.4125,-4.4924,-4.5731,-4.6516,-4.6801,-4.6998,-4.6998,-4.6998,-4.6998,-4.6998,-4.6998,-4.6998,-4.6795,-4.6447,-4.602,-4.5623,-4.4663,-4.3877,-4.3628,-4.3615,-4.3664,-4.378,-4.4787,-4.55,-4.5847,-4.6924,-4.7719,-4.7984,-4.7984,-4.8001,-4.8001,-4.8001,-4.8001,-4.8001,-4.8001,-4.8001,-4.8001,-4.8001,-4.8001,-4.8001,-4.8001,-4.8001,-4.8001,-4.8001,-4.8001,-4.8001,-4.8001,-4.8001,-4.8001,-4.81,-4.8349,-4.8995,-4.9375,-4.9988,-5.1082,-5.1812,-5.2111,-5.2215,-5.2888,-5.3483,-5.4168,-5.4765,-5.5414,-5.5989,-5.614,-5.5927,-5.5277,-5.4277,-5.3242,-5.259,-5.2154,-5.169,-5.169,-5.169,-5.169,-5.169,-5.169,-5.169,-5.169,-5.169,-5.169,-5.169,-5.169,-5.169,-5.169,-5.169,-5.169,-5.169,-5.169,-5.169,-5.169,-5.169,-5.169,-5.169,-5.169,-5.169,-5.169,-5.169,-5.169,-5.169,-5.169,-5.169,-5.169,-5.169,-5.169,-4.0269,-4.1145,-4.1948,-4.2308,-4.2308,-4.2308,-4.2308,-4.2308,-4.2308,-4.2662,-4.3375,-4.4121,-4.4946,-4.5838,-4.6605,-4.6837,-4.6998,-4.6998,-4.6998,-4.6998,-4.6998,-4.6998,-4.6754,-4.6357,-4.5683,-4.4947,-4.4105,-4.3818,-4.3615,-4.3615,-4.3648,-4.3747,-4.4324,-4.505,-4.5715,-4.6493,-4.7222,-4.7636,-4.7819,-4.7984,-4.8001,-4.8001,-4.8001,-4.8001,-4.8001,-4.8001,-4.8001,-4.8001,-4.8001,-4.8001,-4.8001,-4.8001,-4.8001,-4.8001,-4.8001,-4.8001,-4.8001,-4.8001,-4.8001,-4.8017,-4.8382,-4.8763,-4.8961,-4.9607,-5.0701,-5.1214,-5.1529,-5.2139,-5.2756,-5.3466,-5.4151,-5.4703,-5.5355,-5.5883,-5.5907,-5.5915,-5.5114,-5.434,-5.361,-5.2852,-5.2332,-5.1815,-5.169,-5.169,-5.169,-5.169,-5.169,-5.169,-5.169,-5.169,-5.169,-5.169,-5.169,-5.169,-5.169,-5.169,-5.169,-5.169,-5.169,-5.169,-5.169,-5.169,-5.169,-5.169,-5.169,-5.169,-5.169,-5.169,-5.169,-5.169,-5.169,-5.169,-5.169,-5.169,-5.169,-3.9843,-4.1163,-4.1968,-4.2308,-4.2308,-4.2308,-4.2308,-4.2308,-4.2308,-4.2394,-4.2751,-4.3426,-4.4407,-4.582,-4.6623,-4.6962,-4.6998,-4.6998,-4.6998,-4.6998,-4.6998,-4.6998,-4.6731,-4.6052,-4.4947,-4.4259,-4.3848,-4.3687,-4.3615,-4.3615,-4.3615,-4.3664,-4.4291,-4.4818,-4.5052,-4.5947,-4.6924,-4.7322,-4.7769,-4.8001,-4.8001,-4.8001,-4.8001,-4.8001,-4.8001,-4.8001,-4.8001,-4.8001,-4.8001,-4.8001,-4.8001,-4.8001,-4.8001,-4.8001,-4.8001,-4.8001,-4.8001,-4.8001,-4.8001,-4.8001,-4.8315,-4.8332,-4.8597,-4.9077,-4.9872,-5.0253,-5.0717,-5.1396,-5.2096,-5.2841,-5.3464,-5.3828,-5.4391,-5.4795,-5.4987,-5.4981,-5.4581,-5.3939,-5.329,-5.2749,-5.2279,-5.1904,-5.169,-5.169,-5.169,-5.169,-5.169,-5.169,-5.169,-5.169,-5.169,-5.169,-5.169,-5.169,-5.169,-5.169,-5.169,-5.169,-5.169,-5.169,-5.169,-5.169,-5.169,-5.169,-5.169,-5.169,-5.169,-5.169,-5.169,-5.169,-5.169,-5.169,-5.169,-5.169,-5.169]}]]